[[{"header":{"parameterUnit":"m.s-1","parameterCategory":1,"la1":30.6,"la2":28.766,"lo1":-90.7593,"lo2":-88.6598,"dx":0.0162,"dy":0.0183,"nx":116,"ny":114,"refTime":"2022-12-19T06:00:00:Z","depth":0,"parameterNumber":2,"parameterNumberName":"U-component_of_WINDS"},"data":[0.0,0.0,0.0,0.0,0.0,0.0,0.0,0.0,0.0,0.0,0.0,0.0,0.0,0.0,0.0,0.0,0.0,0.0,0.0,0.0,0.0,0.0,0.0,0.0,0.0,0.0,0.0,0.0,0.0,0.0,0.0,0.0,0.0,0.0,0.0,0.0,0.0,0.0,0.0,0.0,0.0,0.0,0.0,0.0,0.0,0.0,0.0,0.0,0.0,0.0,0.0,0.0,0.0,0.0,0.0,0.0,0.0,0.0,0.0,0.0,0.0,0.0,0.0,0.0,0.0,0.0,0.0,0.0,0.0,0.0,0.0,0.0,0.0,0.0,0.0,0.0,0.0,0.0,0.0,0.0,0.0,0.0,0.0,0.0,0.0,0.0,0.0,0.0,0.0,0.0,0.0,0.0,0.0,0.0,0.0,0.0,0.0,0.0,0.0,0.0,0.0,0.0,0.0,0.0,0.0,0.0,0.0,0.0,0.0,0.0,0.0,0.0,0.0,0.0,0.0,0.0,0.0,0.0,0.0,0.0,0.0,0.0,0.0,0.0,0.0,0.0,0.0,0.0,0.0,0.0,0.0,0.0,0.0,0.0,0.0,0.0,0.0,0.0,0.0,0.0,0.0,0.0,0.0,0.0,0.0,0.0,0.0,0.0,0.0,0.0,0.0,0.0,0.0,0.0,0.0,0.0,0.0,0.0,0.0,0.0,0.0,0.0,0.0,0.0,0.0,0.0,0.0,0.0,0.0,0.0,0.0,0.0,0.0,0.0,0.0,0.0,0.0,0.0,0.0,0.0,0.0,0.0,0.0,0.0,0.0,0.0,0.0,0.0,0.0,0.0,0.0,0.0,0.0,0.0,0.0,0.0,0.0,0.0,0.0,0.0,0.0,0.0,0.0,0.0,0.0,0.0,0.0,0.0,0.0,0.0,0.0,0.0,0.0,0.0,0.0,0.0,0.0,0.0,0.0,0.0,0.0,0.0,0.0,0.0,0.0,0.0,0.0,0.0,0.0,0.0,0.0,0.0,0.0,0.0,0.0,0.0,0.0,0.0,0.0,0.0,0.0,0.0,0.0,0.0,0.0,0.0,0.0,0.0,0.0,0.0,0.0,0.0,0.0,0.0,0.0,0.0,0.0,0.0,0.0,0.0,0.0,0.0,0.0,0.0,0.0,0.0,0.0,0.0,0.0,0.0,0.0,0.0,0.0,0.0,0.0,0.0,0.0,0.0,0.0,0.0,0.0,0.0,0.0,0.0,0.0,0.0,0.0,0.0,0.0,0.0,0.0,0.0,0.0,0.0,0.0,0.0,0.0,0.0,0.0,0.0,0.0,0.0,0.0,0.0,0.0,0.0,0.0,0.0,0.0,0.0,0.0,0.0,0.0,0.0,0.0,0.0,0.0,0.0,0.0,0.0,0.0,0.0,0.0,0.0,0.0,0.0,0.0,0.0,0.0,0.0,0.0,0.0,0.0,0.0,0.0,0.0,0.0,0.0,0.0,0.0,0.0,0.0,0.0,0.0,0.0,0.0,0.0,0.0,0.0,0.0,0.0,0.0,0.0,0.0,0.0,0.0,0.0,0.0,0.0,0.0,0.0,0.0,0.0,0.0,0.0,0.0,0.0,0.0,0.0,0.0,0.0,0.0,0.0,0.0,0.0,0.0,0.0,0.0,0.0,0.0,0.0,0.0,0.0,0.0,0.0,0.0,0.0,0.0,0.0,0.0,0.0,0.0,0.0,0.0,0.0,0.0,0.0,0.0,0.0,0.0,0.0,0.0,0.0,0.0,0.0,0.0,0.0,0.0,0.0,0.0,0.0,0.0,0.0,0.0,0.0,0.0,0.0,0.0,0.0,0.0,0.0,0.0,0.0,0.0,0.0,0.0,0.0,0.0,0.0,0.0,0.0,0.0,0.0,0.0,0.0,0.0,0.0,0.0,0.0,0.0,0.0,0.0,0.0,0.0,0.0,0.0,0.0,0.0,0.0,0.0,0.0,0.0,0.0,0.0,0.0,0.0,0.0,0.0,0.0,0.0,0.0,0.0,0.0,0.0,0.0,0.0,0.0,0.0,0.0,0.0,0.0,0.0,0.0,0.0,0.0,0.0,0.0,0.0,0.0,0.0,0.0,0.0,0.0,0.0,0.0,0.0,0.0,0.0,0.0,0.0,0.0,0.0,0.0,0.0,0.0,0.0,0.0,0.0,0.0,0.0,0.0,0.0,0.0,0.0,0.0,0.0,0.0,0.0,0.0,0.0,0.0,0.0,0.0,0.0,0.0,0.0,0.0,0.0,0.0,0.0,0.0,0.0,0.0,0.0,0.0,0.0,0.0,0.0,0.0,0.0,0.0,0.0,0.0,0.0,0.0,0.0,0.0,0.0,0.0,0.0,0.0,0.0,0.0,0.0,0.0,0.0,0.0,0.0,0.0,0.0,0.0,0.0,0.0,0.0,0.0,0.0,0.0,0.0,0.0,0.0,0.0,0.0,0.0,0.0,0.0,0.0,0.0,0.0,0.0,0.0,0.0,0.0,0.0,0.0,0.0,0.0,0.0,0.0,0.0,0.0,0.0,0.0,0.0,0.0,0.0,0.0,0.0,0.0,0.0,0.0,0.0,0.0,0.0,0.0,0.0,0.0,0.0,0.0,0.0,0.0,0.0,0.0,0.0,0.0,0.0,0.0,0.0,0.0,0.0,0.0,0.0,0.0,0.0,0.0,0.0,0.0,0.0,0.0,0.0,0.0,0.0,0.0,0.0,0.0,0.0,0.0,0.0,0.0,0.0,0.0,0.0,0.0,0.0,0.0,0.0,0.0,0.0,0.0,0.0,0.0,0.0,0.0,0.0,0.0,0.0,0.0,0.0,0.0,0.0,0.0,0.0,0.0,0.0,0.0,0.0,0.0,0.0,0.0,0.0,0.0,0.0,0.0,0.0,0.0,0.0,0.0,0.0,0.0,0.0,0.0,0.0,0.0,0.0,0.0,0.0,0.0,0.0,0.0,0.0,0.0,0.0,0.0,0.0,0.0,0.0,0.0,0.0,0.0,0.0,0.0,0.0,0.0,0.0,0.0,0.0,0.0,0.0,0.0,0.0,0.0,0.0,0.0,0.0,0.0,0.0,0.0,0.0,0.0,0.0,0.0,0.0,0.0,0.0,0.0,0.0,0.0,0.0,0.0,0.0,0.0,0.0,0.0,0.0,0.0,0.0,0.0,0.0,0.0,0.0,0.0,0.0,0.0,0.0,0.0,0.0,0.0,0.0,0.0,0.0,0.0,0.0,0.0,0.0,0.0,0.0,0.0,0.0,0.0,0.0,0.0,0.0,0.0,0.0,0.0,0.0,0.0,0.0,0.0,0.0,0.0,0.0,0.0,0.0,0.0,0.0,0.0,0.0,0.0,0.0,0.0,0.0,0.0,0.0,0.0,0.0,0.0,0.0,0.0,0.0,0.0,0.0,0.0,0.0,0.0,0.0,0.0,0.0,0.0,0.0,0.0,0.0,0.0,0.0,0.0,0.0,0.0,0.0,0.0,0.0,0.0,0.0,0.0,0.0,0.0,0.0,0.0,0.0,0.0,0.0,0.0,0.0,0.0,0.0,0.0,0.0,0.0,0.0,0.0,0.0,0.0,0.0,0.0,0.0,0.0,0.0,0.0,0.0,0.0,0.0,0.0,0.0,0.0,0.0,0.0,0.0,0.0,0.0,0.0,0.0,0.0,0.0,0.0,0.0,0.0,0.0,0.0,0.0,0.0,0.0,0.0,0.0,0.0,0.0,0.0,0.0,0.0,0.0,0.0,0.0,0.0,0.0,0.0,0.0,0.0,0.0,0.0,0.0,0.0,0.0,0.0,0.0,0.0,0.0,0.0,0.0,0.0,0.0,0.0,0.0,0.0,0.0,0.0,0.0,0.0,0.0,0.0,0.0,0.0,0.0,0.0,0.0,0.0,0.0,0.0,0.0,0.0,0.0,0.0,0.0,0.0,0.0,0.0,0.0,0.0,0.0,0.0,0.0,0.0,0.0,0.0,0.0,0.0,0.0,0.0,0.0,0.0,0.0,0.0,0.0,0.0,0.0,0.0,0.0,0.0,0.0,0.0,0.0,0.0,0.0,0.0,0.0,0.0,0.0,0.0,0.0,0.0,0.0,0.0,0.0,0.0,0.0,0.0,0.0,0.0,0.0,0.0,0.0,0.0,0.0,0.0,0.0,0.0,0.0,0.0,0.0,0.0,0.0,0.0,0.0,0.0,0.0,0.0,0.0,0.0,0.0,0.0,0.0,0.0,0.0,0.0,0.0,0.0,0.0,0.0,0.0,0.0,0.0,0.0,0.0,0.0,0.0,0.0,0.0,0.0,0.0,0.0,0.0,0.0,0.0,0.0,0.0,0.0,0.0,0.0,0.0,0.0,0.0,0.0,0.0,0.0,0.0,0.0,0.0,0.0,0.0,0.0,0.0,0.0,0.0,0.0,0.0,0.0,0.0,0.0,0.0,0.0,0.0,0.0,0.0,0.0,0.0,0.0,0.0,0.0,0.0,0.0,0.0,0.0,0.0,0.0,0.0,0.0,0.0,0.0,0.0,0.0,0.0,0.0,0.0,0.0,0.0,0.0,0.0,0.0,0.0,0.0,0.0,0.0,0.0,0.0,0.0,0.0,0.0,0.0,0.0,0.0,0.0,0.0,0.0,0.0,0.0,0.0,0.0,0.0,0.0,0.0,0.0,0.0,0.0,0.0,0.0,0.0,0.0,0.0,0.0,0.0,0.0,0.0,0.0,0.0,0.0,0.0,0.0,0.0,0.0,0.0,0.0,0.0,0.0,0.0,0.0,0.0,0.0,0.0,0.0,0.0,0.0,0.0,0.0,0.0,0.0,0.0,0.0,0.0,0.0,0.0,0.0,0.0,0.0,0.0,0.0,0.0,0.0,0.0,0.0,0.0,0.0,0.0,0.0,0.0,0.0,0.0,0.0,0.0,0.0,0.0,0.0,0.0,0.0,0.0,0.0,0.0,0.0,0.0,0.0,0.0,0.0,0.0,0.0,0.0,0.0,0.0,0.0,0.0,0.0,0.0,0.0,0.0,0.0,0.0,0.0,0.0,0.0,0.0,0.0,0.0,0.0,0.0,0.0,0.0,0.0,0.0,0.0,0.0,0.0,0.0,0.0,0.0,0.0,0.0,0.0,0.0,0.0,0.0,0.0,0.0,0.0,0.0,0.0,0.0,0.0,0.0,0.0,0.0,0.0,0.0,0.0,0.0,0.0,0.0,0.0,0.0,0.0,0.0,0.0,0.0,0.0,0.0,0.0,0.0,0.0,0.0,0.0,0.0,0.0,0.0,0.0,0.0,0.0,0.0,0.0,0.0,0.0,0.0,0.0,0.0,0.0,0.0,0.0,0.0,0.0,0.0,0.0,0.0,0.0,0.0,0.0,0.0,0.0,0.0,0.0,0.0,0.0,0.0,0.0,0.0,0.0,0.0,0.0,0.0,0.0,0.0,0.0,0.0,0.0,0.0,0.0,0.0,0.0,0.0,0.0,0.0,0.0,0.0,0.0,0.0,0.0,0.0,0.0,0.0,0.0,0.0,0.0,0.0,0.0,0.0,0.0,0.0,0.0,0.0,0.0,0.0,0.0,0.0,0.0,0.0,0.0,0.0,0.0,0.0,0.0,0.0,0.0,0.0,0.0,0.0,0.0,0.0,0.0,0.0,0.0,0.0,0.0,0.0,0.0,0.0,0.0,0.0,0.0,0.0,0.0,0.0,0.0,0.0,0.0,0.0,0.0,0.0,0.0,0.0,0.0,0.0,0.0,0.0,0.0,0.0,0.0,0.0,0.0,0.0,0.0,0.0,0.0,0.0,0.0,0.0,0.0,0.0,0.0,0.0,0.0,0.0,0.0,0.0,0.0,0.0,0.0,0.0,0.0,0.0,0.0,0.0,0.0,0.0,0.0,0.0,0.0,0.0,0.0,0.0,0.0,0.0,0.0,0.0,0.0,0.0,0.0,0.0,0.0,0.0,0.0,0.0,0.0,0.0,0.0,0.0,0.0,0.0,0.0,0.0,0.0,0.0,0.0,0.0,0.0,0.0,0.0,0.0,0.0,0.0,5.0769,0.0,0.0,0.0,0.0,0.0,0.0,0.0,0.0,0.0,0.0,0.0,0.0,0.0,0.0,0.0,0.0,0.0,0.0,0.0,0.0,0.0,0.0,0.0,0.0,2.67,2.67,2.67,2.67,0.0,0.0,0.0,0.0,0.0,0.0,0.0,0.0,0.0,2.8333,2.9377,2.976,3.1316,3.3874,3.2684,3.1765,3.1094,0.0,0.0,0.0,0.0,0.0,0.0,0.0,0.0,0.0,0.0,0.0,0.0,0.0,0.0,0.0,0.0,0.0,0.0,0.0,0.0,0.0,0.0,0.0,0.0,0.0,0.0,0.0,0.0,0.0,0.0,0.0,0.0,0.0,0.0,0.0,0.0,0.0,0.0,0.0,0.0,0.0,0.0,0.0,0.0,0.0,0.0,0.0,0.0,0.0,0.0,0.0,0.0,0.0,0.0,0.0,0.0,0.0,0.0,0.0,0.0,0.0,0.0,0.0,0.0,0.0,0.0,0.0,0.0,0.0,0.0,0.0,5.1092,0.0,0.0,0.0,0.0,0.0,0.0,0.0,0.0,0.0,0.0,0.0,0.0,0.0,0.0,0.0,0.0,0.0,0.0,0.0,0.0,0.0,2.6763,2.6864,2.6898,2.6966,2.7106,2.7106,2.7106,2.7106,2.7106,0.0,0.0,0.0,0.0,2.7997,2.8793,3.0224,3.2293,3.3215,3.5008,3.7568,3.7703,3.6744,3.4878,3.3152,0.0,0.0,0.0,0.0,0.0,0.0,0.0,0.0,0.0,0.0,0.0,0.0,0.0,0.0,0.0,0.0,0.0,0.0,0.0,0.0,0.0,0.0,0.0,0.0,0.0,0.0,0.0,0.0,0.0,0.0,0.0,0.0,0.0,0.0,0.0,0.0,0.0,0.0,0.0,0.0,0.0,0.0,0.0,0.0,0.0,0.0,0.0,0.0,0.0,0.0,0.0,0.0,0.0,0.0,0.0,0.0,0.0,0.0,0.0,0.0,0.0,0.0,0.0,5.4456,5.4215,5.3383,5.3383,5.411,5.5323,5.3636,5.4009,5.5411,5.0456,0.0,0.0,0.0,0.0,0.0,0.0,0.0,0.0,0.0,0.0,0.0,0.0,0.0,0.0,0.0,0.0,0.0,0.0,0.0,2.6924,2.7591,2.765,2.7934,2.8633,2.8705,2.8705,2.8705,2.8705,2.8705,2.8705,2.8802,2.8836,2.8836,2.9567,3.0722,3.2293,3.6857,3.9592,4.0629,4.1284,4.1413,4.1007,3.8261,3.7037,3.6935,0.0,0.0,0.0,0.0,0.0,0.0,0.0,0.0,0.0,0.0,0.0,0.0,0.0,0.0,0.0,0.0,0.0,0.0,0.0,0.0,0.0,0.0,0.0,0.0,0.0,0.0,0.0,0.0,0.0,0.0,0.0,0.0,0.0,0.0,0.0,0.0,0.0,0.0,0.0,0.0,0.0,4.7759,4.933,0.0,0.0,0.0,0.0,0.0,0.0,0.0,0.0,0.0,0.0,0.0,0.0,0.0,5.3213,5.3509,5.5412,5.635,5.6393,5.8321,5.9498,6.004,6.004,5.9934,5.971,5.841,0.0,5.4493,5.3674,0.0,0.0,0.0,0.0,0.0,0.0,0.0,0.0,0.0,0.0,0.0,0.0,0.0,0.0,0.0,0.0,0.0,0.0,0.0,0.0,0.0,2.9456,3.034,3.1945,3.208,3.1747,3.0905,3.0838,3.0296,2.9044,2.9784,3.0257,3.0257,3.2166,3.4737,3.7934,4.1894,4.4019,4.435,4.4695,4.4594,4.4147,4.2855,4.1102,3.9085,3.7984,0.0,0.0,0.0,0.0,0.0,0.0,0.0,0.0,0.0,0.0,0.0,0.0,0.0,0.0,0.0,0.0,0.0,0.0,0.0,0.0,0.0,0.0,0.0,0.0,0.0,0.0,0.0,0.0,0.0,0.0,0.0,0.0,0.0,0.0,0.0,0.0,0.0,0.0,0.0,4.6812,4.8293,4.9357,4.8612,4.7834,0.0,0.0,0.0,0.0,0.0,0.0,0.0,0.0,0.0,5.5919,5.6384,5.7205,5.849,5.9471,5.9954,5.9945,6.0936,6.0882,5.9894,6.0299,5.9593,5.813,5.7928,5.7106,5.5741,5.3987,5.226,5.0553,0.0,0.0,0.0,0.0,5.0001,5.0,0.0,0.0,0.0,0.0,0.0,0.0,0.0,0.0,0.0,0.0,0.0,0.0,3.0514,3.1664,3.3085,3.4923,3.5255,3.4917,3.3806,3.3207,3.222,3.076,3.12,3.1674,3.2046,3.5312,3.8965,4.2875,4.5507,4.6793,4.6793,4.6793,4.6522,4.5974,4.5974,4.4222,4.1189,4.0235,3.8768,3.6862,0.0,0.0,0.0,0.0,0.0,0.0,0.0,0.0,0.0,0.0,0.0,0.0,0.0,0.0,0.0,0.0,0.0,0.0,0.0,0.0,0.0,0.0,0.0,0.0,0.0,0.0,0.0,0.0,0.0,0.0,0.0,0.0,0.0,0.0,0.0,0.0,0.0,4.8334,4.9307,5.0059,5.0338,4.9932,0.0,0.0,0.0,0.0,0.0,0.0,5.4896,5.5615,5.6943,5.8973,5.9766,6.0815,6.2166,6.2725,6.2643,6.1963,6.2316,6.1347,5.9311,5.98,5.887,5.6932,5.7372,5.7389,5.692,5.4619,5.3526,5.3171,5.1871,5.1188,5.1075,5.2072,5.2094,5.2009,0.0,0.0,0.0,0.0,0.0,0.0,0.0,0.0,0.0,0.0,0.0,3.0548,3.2022,3.41,3.5712,3.662,3.7313,3.7713,3.7612,3.5594,3.4641,3.5233,3.3327,3.2897,3.4308,3.8667,4.209,4.4472,4.6056,4.6793,4.6793,4.6793,4.6793,4.6725,4.6725,4.5853,4.4269,4.2773,4.1644,4.0656,3.7799,0.0,0.0,0.0,0.0,0.0,0.0,0.0,0.0,0.0,0.0,0.0,0.0,0.0,0.0,0.0,0.0,0.0,0.0,0.0,0.0,0.0,0.0,0.0,0.0,0.0,0.0,0.0,0.0,0.0,0.0,0.0,0.0,0.0,0.0,0.0,0.0,0.0,0.0,5.3179,5.389,0.0,0.0,0.0,0.0,5.4372,5.5784,5.7264,5.865,5.9428,6.0554,6.212,6.2888,6.2736,6.1639,6.3541,6.3242,6.079,6.209,6.1946,6.0604,6.0625,5.9949,5.8789,5.8789,5.8161,5.7077,5.6937,5.6297,5.543,5.5354,5.4728,5.4104,5.5717,5.6274,5.6517,0.0,0.0,0.0,0.0,0.0,2.67,2.67,2.7093,2.749,2.7752,2.9968,3.2244,3.4196,3.6428,3.8667,4.0859,4.1299,4.1022,4.0081,3.8362,3.7313,3.7099,3.5864,3.6784,4.0149,4.2787,4.5188,4.7436,4.8417,4.9154,4.9619,4.9619,4.939,4.8891,4.8417,4.7665,4.665,4.5121,4.3234,4.1096,4.0054,3.8328,0.0,0.0,0.0,0.0,0.0,0.0,0.0,0.0,0.0,0.0,0.0,0.0,0.0,0.0,0.0,0.0,0.0,0.0,0.0,0.0,0.0,0.0,0.0,0.0,0.0,0.0,0.0,0.0,0.0,0.0,0.0,0.0,0.0,0.0,0.0,0.0,0.0,5.4887,5.5987,0.0,5.5031,5.6452,5.7433,5.7433,5.9733,6.1347,6.1854,6.2618,6.326,6.3802,6.4072,6.3971,6.3546,6.3869,6.354,6.2636,6.2689,6.2057,6.0839,6.1283,6.0823,5.9688,6.0129,6.0059,5.9654,5.9654,5.8457,5.6559,5.6559,5.6343,5.6109,5.6685,5.6939,5.6997,0.0,0.0,0.0,0.0,2.67,2.67,2.67,2.7325,2.8094,2.8847,3.1562,3.4269,3.649,3.8965,4.1265,4.3213,4.3896,4.3666,4.2422,4.094,3.9891,3.9411,3.891,4.05,4.4478,4.5797,4.7522,4.9755,5.0228,5.0736,5.1201,5.1201,5.0939,5.0439,4.9958,4.9315,4.8571,4.7597,4.5466,4.2652,4.188,4.0398,3.8543,0.0,0.0,0.0,0.0,0.0,0.0,0.0,0.0,0.0,0.0,0.0,0.0,0.0,0.0,0.0,0.0,0.0,0.0,0.0,0.0,0.0,0.0,0.0,0.0,0.0,0.0,0.0,0.0,0.0,0.0,0.0,0.0,0.0,0.0,0.0,5.608,5.608,5.7814,5.8457,5.695,5.9047,6.0501,6.0501,6.2608,6.3859,6.3859,6.4156,6.4307,6.4307,6.4776,6.4591,6.3692,6.4448,6.4147,6.2831,6.281,6.2151,6.0984,6.1416,6.1176,6.0446,6.091,6.109,6.109,6.109,6.0043,5.8441,5.8441,5.8441,5.8441,5.8441,5.8441,5.8441,0.0,0.0,0.0,2.67,2.67,2.67,2.67,2.7359,2.8673,3.0925,3.3818,3.6552,3.8808,4.1671,4.3416,4.3484,4.485,4.5399,4.4675,4.3179,4.2293,4.2327,4.2462,4.3883,4.6827,4.7624,4.9063,5.1235,5.1235,5.1235,5.1269,5.1269,5.1269,5.1269,5.1235,5.0837,5.0176,5.0109,4.8451,4.5628,4.3376,4.2401,4.2191,0.0,0.0,0.0,0.0,0.0,0.0,0.0,0.0,0.0,0.0,0.0,0.0,0.0,0.0,0.0,0.0,0.0,0.0,0.0,0.0,0.0,0.0,0.0,0.0,0.0,0.0,0.0,0.0,0.0,0.0,0.0,0.0,0.0,5.5868,5.6452,5.6968,5.6968,5.9573,6.0781,5.9293,6.182,6.3511,6.3511,6.4241,6.4681,6.4681,6.413,6.3824,6.3868,6.516,6.465,6.211,6.5311,6.5011,6.1264,6.2476,6.2425,6.121,6.121,6.121,6.121,6.121,6.121,6.121,6.121,6.121,6.121,6.112,6.109,6.109,6.109,6.112,6.112,0.0,0.0,0.0,2.67,2.67,2.67,2.67,2.8281,3.0069,3.178,3.5081,3.8113,4.0358,4.2273,4.3862,4.4978,4.5459,4.5594,4.5399,4.3443,4.253,4.3051,4.5696,4.78,4.9161,4.9924,5.0863,5.1987,5.1987,5.2291,5.2866,5.2866,5.2866,5.2833,5.2258,5.1894,5.1623,5.0549,4.9635,4.8688,4.6455,4.4939,4.3789,0.0,0.0,0.0,0.0,0.0,0.0,0.0,0.0,0.0,0.0,0.0,0.0,0.0,0.0,0.0,0.0,0.0,0.0,0.0,0.0,0.0,0.0,0.0,0.0,0.0,0.0,0.0,0.0,0.0,0.0,0.0,0.0,5.7518,5.7306,5.8896,6.025,6.08,6.2076,6.2743,6.2293,6.3487,6.4299,6.4299,6.5483,6.6193,6.6193,6.6124,6.6562,6.7566,6.6026,6.5549,6.6331,6.5822,6.5246,6.4658,6.4527,6.4281,6.3917,6.3917,6.3917,6.3917,6.3917,6.3917,6.3917,6.3917,6.3917,6.3738,6.1838,6.109,6.109,6.109,6.1419,6.1882,0.0,0.0,0.0,2.67,2.67,2.6793,2.7093,2.8818,3.0949,3.3361,3.64,3.9303,4.184,4.3193,4.4384,4.5594,4.5696,4.5561,4.527,4.4289,4.4451,4.6136,4.8308,5.0109,5.1488,5.1953,5.2697,5.3712,5.3712,5.3949,5.4422,5.4422,5.4253,5.3923,5.3484,5.3078,5.2739,5.1894,5.1327,5.0879,4.9289,4.7767,4.636,4.544,4.4857,4.4343,4.3294,4.2895,4.2875,4.2699,0.0,0.0,0.0,0.0,0.0,0.0,0.0,0.0,0.0,0.0,0.0,0.0,0.0,0.0,0.0,0.0,0.0,0.0,0.0,0.0,0.0,0.0,0.0,0.0,5.8127,5.9887,6.0182,6.1129,6.2042,6.2753,6.325,6.3612,6.3927,6.4908,6.5286,6.4747,6.6053,6.6889,6.6889,6.6421,6.6801,6.8187,6.6644,6.6109,6.6749,6.6172,6.5794,6.5586,6.5198,6.4994,6.5024,6.5308,6.5413,6.5413,6.5727,6.5667,6.5413,6.5413,6.5233,0.0,0.0,0.0,0.0,0.0,6.2975,6.3364,2.67,2.67,2.67,2.67,2.6767,2.7025,2.7684,2.9248,3.1654,3.5267,3.7713,4.0257,4.322,4.4255,4.5007,4.5763,4.5831,4.5541,4.4878,4.5609,4.7293,4.9973,5.0252,5.1394,5.3585,5.3712,5.4422,5.5834,5.5911,5.5936,5.5936,5.5936,5.5615,5.4947,5.4812,5.4363,5.3746,5.3577,5.3078,5.2367,5.1708,5.0533,4.912,4.9044,4.9011,4.8849,4.7537,4.7064,4.6861,4.5616,0.0,0.0,0.0,0.0,0.0,0.0,0.0,0.0,0.0,0.0,0.0,0.0,0.0,0.0,0.0,0.0,0.0,0.0,0.0,0.0,0.0,0.0,0.0,0.0,6.0564,6.2753,6.3419,6.3024,6.2888,6.3555,6.3758,6.4079,6.4554,6.596,6.6329,6.5154,6.6274,6.7062,6.7236,0.0,0.0,0.0,0.0,6.6412,6.5472,6.6536,6.6541,6.5443,6.5443,6.5443,6.5473,6.6056,6.634,6.6355,6.6969,6.6879,6.634,6.634,6.5996,6.5413,6.5203,6.5114,6.5114,6.5263,6.5338,6.5368,2.67,2.67,2.67,2.67,2.7194,2.7655,2.7786,3.0108,3.2999,3.6175,3.8497,4.1028,4.4025,4.5034,4.5771,4.6515,4.659,4.6522,4.6394,4.7631,4.8883,5.0041,5.1225,5.2672,5.4338,5.4964,5.5708,5.6596,5.7171,5.7476,5.7476,5.7476,5.7417,5.7214,5.6021,5.5403,5.5192,5.4016,5.3408,5.3272,5.3103,5.1792,4.9838,4.9221,4.9011,4.8943,4.868,4.8578,4.8612,4.8924,4.824,4.7488,4.8654,4.8105,0.0,0.0,0.0,0.0,0.0,0.0,0.0,0.0,0.0,0.0,0.0,0.0,0.0,0.0,0.0,0.0,0.0,0.0,0.0,5.865,6.1322,6.3352,6.3477,6.3893,6.4241,6.4377,6.5449,6.5781,6.4862,6.6108,6.6855,6.6601,6.683,6.7491,6.8621,6.7441,6.7304,6.8643,6.6552,6.6348,6.8295,6.7439,6.7425,6.8226,0.0,0.0,6.821,6.8375,6.8435,6.8435,6.8555,6.8525,6.8435,6.8435,6.833,6.8076,6.6445,6.5817,6.5936,6.7014,6.7433,6.7493,2.7258,2.6962,2.6831,2.7194,2.7558,2.8056,2.8843,3.0862,3.3371,3.6383,3.874,4.0973,4.3213,4.3782,4.4154,4.4526,4.4891,4.5906,4.7767,4.8578,4.983,5.1733,5.2841,5.3991,5.5133,5.6224,5.7171,5.7906,5.8626,5.9007,5.9007,5.9007,5.8795,5.8423,5.7669,5.7162,5.6731,5.5615,5.493,5.4558,5.4194,5.3145,5.1758,5.1378,5.1243,5.1209,5.0803,5.0642,5.0642,5.0642,5.0161,4.9747,5.0845,5.0431,4.9409,0.0,0.0,0.0,0.0,0.0,0.0,0.0,0.0,0.0,0.0,0.0,0.0,0.0,0.0,5.5065,5.6519,0.0,5.9945,6.1086,6.2844,6.4299,6.5043,6.5483,6.5686,6.5686,6.5766,6.5836,6.5878,6.6567,6.6708,6.6051,6.6638,6.7362,6.805,6.7108,6.7323,6.9046,6.7402,6.7305,6.9032,6.8344,6.8345,6.9004,6.9004,6.9004,6.9004,6.9333,6.9498,6.9512,6.9812,6.9782,6.9453,6.9123,6.9004,6.8944,6.8256,6.7807,6.7597,6.8271,6.8511,6.8541,2.8027,2.7537,2.7338,2.7934,2.8162,2.8669,2.9895,3.1336,3.3343,3.6175,3.8245,4.0072,4.169,4.1988,4.2191,4.2496,4.3328,4.5317,4.8774,4.9281,5.0642,5.3374,5.4059,5.4735,5.5471,5.707,5.8254,5.9013,6.0047,6.0554,6.0554,6.0554,6.0216,5.9665,5.9361,5.8786,5.806,5.7171,5.6384,5.5665,5.504,5.4465,5.3915,5.3915,5.3847,5.3619,5.2976,5.2841,5.2866,5.2283,5.2072,5.2182,5.2765,5.2554,5.1911,5.1014,5.1082,0.0,0.0,0.0,0.0,0.0,0.0,0.0,0.0,5.2503,5.3365,5.5658,5.6596,5.7602,5.952,6.0883,6.2168,6.3487,6.4434,6.5343,6.6282,6.6654,6.6837,6.6844,6.6,6.5745,6.6536,6.6747,6.6427,6.5472,6.6341,6.7066,6.7474,6.6789,6.7216,6.9019,6.8499,6.8511,6.9183,6.9183,6.9243,6.9363,6.9363,6.9363,6.9393,6.9947,7.0187,7.0217,7.0679,7.062,7.0127,6.9602,6.9363,6.9423,6.9961,6.9842,6.9363,6.9363,6.9363,6.9363,2.8874,2.8807,2.8773,2.8836,2.9397,2.9891,3.006,3.1336,3.3129,3.5436,3.6575,3.7974,4.0106,4.094,4.184,4.3152,4.4606,4.6474,4.8841,5.0228,5.1708,5.3441,5.3585,5.3957,5.471,5.6808,5.8254,5.9013,6.1095,6.2154,6.2154,6.2154,6.2086,6.1951,6.0588,5.9564,5.8786,5.7399,5.6384,5.5699,5.5597,5.5539,5.5462,5.5462,5.5065,5.4473,5.4372,5.4769,5.5293,5.5225,5.5192,5.5225,5.5293,5.5259,5.4921,5.3543,5.2664,5.1826,5.0278,5.098,5.23,5.2866,5.4118,5.6046,0.0,5.9056,5.8786,6.1071,6.1579,6.1941,6.2835,6.3139,6.3521,6.4333,6.5652,6.6195,6.5171,6.6159,6.6992,6.6978,6.7415,6.707,6.5379,6.5822,6.6382,6.6821,6.6389,6.691,6.8796,6.8183,6.8139,6.8985,6.8919,6.9213,6.9887,6.9887,7.0157,7.0679,7.0679,7.0679,7.0679,7.0769,7.0799,7.0799,7.0859,7.0859,7.0799,7.0709,7.0679,7.0709,7.0769,7.0739,7.0679,7.0679,7.0679,7.0679,2.9634,2.9977,3.0287,3.0287,3.0171,3.0234,3.0683,3.1645,3.2796,3.4123,3.5763,3.7168,3.8076,3.8842,3.9872,4.1353,4.3247,4.5689,4.8815,5.0389,5.1877,5.3441,5.3923,5.4262,5.4575,5.6774,5.8254,5.9013,6.0858,6.1985,6.2391,6.2391,6.2188,6.1738,6.1095,6.0385,5.9564,5.8515,5.7636,5.6934,5.6519,5.6071,5.5699,5.5699,5.5775,5.5886,5.5886,5.5513,0.0,5.6046,5.5775,5.5209,5.608,5.635,5.6147,5.5099,5.4862,5.4871,5.4676,5.5082,5.5658,5.5987,5.7171,5.8549,5.9699,5.98,6.0274,6.2574,6.3047,6.326,6.3994,6.4478,6.5019,6.5753,6.6104,6.6367,6.668,6.6898,6.688,6.6533,6.7081,6.7164,6.6316,6.6106,6.633,6.6998,6.711,6.771,6.8971,6.8764,6.89,6.9558,6.9572,6.9887,7.05,7.053,7.0649,7.0889,7.0889,7.0889,7.0889,7.0889,7.0889,7.0889,7.0889,7.0889,7.0889,7.0889,7.0889,7.0889,7.0889,7.0679,7.0426,7.0769,7.0889,7.0859,3.0403,3.0818,3.1195,3.1195,3.0751,3.0581,3.1128,3.164,3.2317,3.3288,3.4849,3.6005,3.6406,3.6935,3.7944,3.9635,4.163,4.4377,4.8139,4.9958,5.1581,5.3103,5.389,5.4304,5.4304,5.6267,5.7645,5.838,5.9902,6.1028,6.1782,6.1782,6.1467,6.096,6.096,6.0511,5.9733,5.9022,5.8389,5.7832,5.7103,5.6587,5.6316,5.6316,5.6519,5.6756,5.6562,5.5818,5.504,5.5886,5.5615,5.5074,5.6147,5.663,5.6756,5.6646,5.6858,5.7137,5.7273,5.7746,5.8195,5.8195,5.9471,6.0655,6.0308,6.0646,6.1559,6.3419,6.3781,6.4096,6.5009,6.5628,6.62,6.6769,6.6666,6.6682,6.7179,6.6953,6.6592,6.6138,6.6506,6.6936,6.7304,6.6701,6.655,6.7224,6.7882,6.8571,6.9243,6.9273,6.9572,7.0217,7.0247,7.044,7.0889,7.0889,7.0889,7.0889,7.0889,7.0889,7.0889,7.0889,7.0889,7.0889,7.0889,7.0889,7.0889,7.0709,7.0649,7.062,7.044,7.0111,6.9798,7.0201,7.038,7.032,3.1161,3.1195,3.1195,3.1195,3.1195,3.1161,3.1195,3.1229,3.1765,3.3215,3.3452,3.4055,3.5464,3.5673,3.6591,3.8842,4.0392,4.2861,4.6624,4.8924,5.0785,5.2266,5.3112,5.3543,5.3543,5.4997,5.6147,5.6867,5.8346,5.9462,6.0182,6.0182,6.0148,6.0148,6.0148,5.9733,5.8989,5.8263,5.7924,5.7832,5.7103,5.7205,5.7823,5.7823,5.7408,5.6697,5.6003,5.5699,5.5564,5.4879,5.5108,5.5665,5.5733,5.6206,5.707,5.8481,5.8423,5.7552,5.6139,5.7322,5.8979,5.8979,6.0655,6.2516,6.3217,6.3376,6.3622,6.441,6.458,6.5019,6.6464,6.6768,6.6823,6.6976,6.7568,6.7329,6.5366,6.5699,6.6096,6.6012,6.6012,6.6536,0.0,6.7374,6.7254,6.7928,6.86,6.9243,6.9917,6.9977,7.0247,7.0859,7.0889,7.0889,7.0889,7.0889,7.0889,7.0889,7.0889,7.0889,7.0889,7.0889,7.0889,7.0889,7.0889,7.0889,7.0859,7.0277,7.0037,6.9947,6.9303,6.9064,6.9034,6.9064,6.9064,6.9064,3.1195,3.1195,3.1195,3.1195,3.1195,3.1364,3.1848,3.1916,3.2119,3.2621,3.353,0.0,0.0,0.0,0.0,0.0,4.1231,4.3633,4.594,4.8586,5.0549,5.1539,5.2799,5.3509,5.3509,5.4465,5.5344,5.608,5.7061,5.8177,5.9361,5.9361,5.9361,5.9361,5.9361,5.8684,5.7534,5.7273,5.69,5.6452,5.6689,5.6934,5.7273,5.8254,5.7273,5.5319,0.0,5.4296,5.3644,5.4896,5.449,5.3712,5.5225,5.6215,5.7002,5.7983,5.8094,5.8026,5.8481,5.9158,5.9979,6.0994,6.2212,6.3183,6.3453,6.3893,6.4444,6.5189,6.573,6.6362,6.7354,6.72,6.726,6.8238,6.7076,6.6124,6.6361,6.6187,6.6189,6.6611,6.7074,0.0,0.0,0.0,0.0,6.9229,6.9528,6.9947,7.056,7.059,7.0679,7.0889,7.0889,7.0889,7.0889,7.0889,7.0889,7.0889,7.0889,7.0889,7.0889,7.0889,7.0679,7.0306,7.0306,7.0051,6.9632,6.9423,6.9333,6.9303,6.9093,6.8734,6.8391,6.8824,6.8704,6.8331,3.2007,3.2007,3.2007,3.2007,3.2007,0.0,0.0,0.0,0.0,0.0,0.0,0.0,0.0,0.0,0.0,0.0,0.0,4.2983,4.4742,4.7158,4.8984,4.9984,5.1201,5.1886,5.1886,5.2604,5.3619,5.4921,5.5369,5.6519,5.8201,5.8201,5.8066,5.7829,5.8109,5.7399,5.5987,5.5716,5.564,5.5665,5.5336,5.5674,5.6452,5.6858,5.5674,0.0,5.3484,5.2401,5.1352,5.279,5.2697,5.2258,5.4279,5.6316,5.8017,5.822,5.8872,5.9785,6.0994,6.1501,6.2009,6.327,6.414,6.4728,6.5009,6.5459,6.6068,6.7094,6.7252,6.7512,6.8538,6.8167,6.8011,6.8968,6.8093,6.7325,6.7477,6.7298,6.72,6.736,6.7748,6.8377,6.9273,6.896,6.9049,6.9947,7.0217,7.05,7.0889,7.0889,7.0889,7.0889,7.0889,7.0889,7.0889,7.0889,7.1009,7.1248,7.1009,7.1038,7.1248,7.1248,7.1055,7.0666,7.0666,7.0426,6.9991,6.9558,6.9363,6.9333,6.9093,6.875,6.8421,6.8824,6.872,6.8361,3.3418,3.3418,3.3418,0.0,0.0,0.0,0.0,0.0,0.0,0.0,0.0,0.0,0.0,0.0,0.0,0.0,0.0,0.0,4.3152,4.4783,4.6305,4.771,4.8537,4.8943,4.9011,4.9703,5.109,5.3272,5.3272,5.4389,5.6519,5.6519,5.6181,5.5631,5.6316,5.5818,5.4439,5.3754,5.4219,5.5225,5.3103,5.3543,5.5327,5.4016,5.2942,5.2089,5.1438,5.0194,4.8909,4.9044,5.0161,5.1708,5.3272,5.6664,5.9911,5.9284,6.0689,6.256,6.3352,6.4096,6.4816,6.5571,6.6305,6.7039,6.7726,6.7963,6.8402,6.98,6.8988,6.8436,6.9834,6.9462,6.8993,6.9105,7.0273,7.045,6.8434,6.8755,6.8925,6.8144,6.8077,6.8616,6.9917,7.0037,7.0037,7.0037,0.0,7.0889,7.0889,7.0889,7.0889,7.0889,7.0889,7.0889,7.0889,7.0889,7.1248,7.1953,7.1278,7.1308,7.1953,7.1953,7.1923,7.1863,7.1863,7.1803,7.1653,7.0456,6.9947,6.9887,6.9243,6.9004,6.9004,6.9034,6.9064,6.9064,0.0,0.0,0.0,0.0,0.0,0.0,0.0,0.0,0.0,0.0,0.0,0.0,0.0,0.0,0.0,0.0,0.0,0.0,4.1732,4.3714,4.5304,4.6237,4.7481,4.8436,4.8984,4.9187,4.956,5.0168,5.0168,5.1006,5.2621,5.2621,5.3129,5.4084,5.4253,5.3788,5.2875,5.2706,5.2198,5.153,5.148,5.1844,5.2418,5.3205,5.2334,5.0718,5.1074,4.9552,4.7706,4.989,5.2385,5.4921,5.6959,5.838,5.9462,6.0443,6.1501,6.2695,6.3971,6.485,6.5605,6.6339,6.7072,6.7658,6.7861,6.8785,6.9394,6.8639,6.909,6.9394,6.865,6.8367,6.8267,6.8306,6.8221,6.7938,6.7381,6.7895,6.8437,6.8707,6.9199,6.9798,7.059,7.0679,7.0679,0.0,7.0799,7.0889,7.0889,7.0889,7.0889,7.0889,7.0889,7.0889,7.0889,7.0889,7.1487,7.2654,7.1966,7.1996,7.2654,7.2654,7.2116,7.1158,7.1158,7.062,6.9722,6.9393,6.9243,6.9243,6.9064,6.9004,6.9064,6.9496,6.9722,6.9798,0.0,0.0,0.0,0.0,0.0,0.0,0.0,0.0,0.0,0.0,0.0,0.0,0.0,0.0,0.0,0.0,0.0,0.0,0.0,4.2394,4.3579,4.464,4.5479,4.6264,4.7064,4.7394,4.803,4.9011,4.8672,4.945,5.1201,5.0871,5.1006,5.1547,5.186,5.1386,5.0364,5.0364,5.0067,0.0,0.0,4.9653,5.0296,5.0837,5.0262,4.9221,4.9958,5.0025,5.0101,5.2393,5.4718,5.6925,5.8515,5.9462,6.024,6.1434,6.2763,6.4116,6.5256,6.6609,6.777,6.8199,6.8842,6.9203,6.8571,6.9113,6.935,6.8132,6.8335,6.8538,6.7996,6.7937,6.8066,6.8432,6.8978,6.9108,6.85,6.9245,6.9773,6.9458,6.9768,7.0247,7.0829,7.0889,7.0889,7.0889,7.0889,7.0889,7.0889,7.0889,7.0889,7.0889,7.0889,7.0889,7.0889,7.1188,7.1876,7.2877,7.1906,7.1966,7.2877,7.2595,7.2056,7.1338,0.0,7.0919,7.026,6.9961,6.9842,6.9842,6.9842,6.9842,6.9871,7.0214,7.038,7.044,0.0,0.0,0.0,0.0,0.0,0.0,0.0,0.0,0.0,3.6045,3.7133,3.795,0.0,0.0,0.0,0.0,0.0,0.0,0.0,0.0,4.1705,4.3186,4.3247,4.3673,4.4574,4.5237,4.6474,4.8409,4.7793,4.8496,5.0457,4.983,4.9229,4.8748,4.9364,4.8951,4.7752,4.7752,4.8056,4.8443,4.7165,4.7428,4.8503,0.0,4.7718,4.7988,4.874,5.0871,5.3577,5.5158,5.679,5.833,5.9191,6.0375,6.1569,6.2221,6.3981,6.5876,6.6599,6.847,7.0206,7.0308,7.0838,7.0928,6.9451,6.918,6.8944,6.7827,6.7242,6.7072,6.7523,6.7848,6.8203,6.8712,7.0602,7.1528,7.0114,7.1102,7.1506,7.0153,7.0067,7.0336,7.0859,7.0889,7.0889,7.0889,7.0889,7.0889,7.0889,7.0889,7.0949,7.1038,7.1038,7.1038,7.1038,7.1427,7.2026,7.2757,7.1517,7.1591,7.2877,7.2295,7.1983,7.1893,7.1893,7.1863,7.1713,7.1128,7.0889,7.0889,7.0889,7.0889,7.0889,7.0889,7.0949,7.1038,0.0,0.0,0.0,0.0,0.0,0.0,0.0,0.0,0.0,0.0,3.8119,3.8119,0.0,0.0,0.0,0.0,0.0,0.0,0.0,0.0,0.0,4.2428,4.2496,4.3139,4.4574,4.4743,4.4973,4.5345,4.5244,4.5676,4.6643,4.6508,4.6718,4.7199,4.7334,4.7233,4.6996,4.6996,4.6718,4.6237,4.6007,4.6034,4.6271,4.6136,4.6838,0.0,4.874,5.0507,5.2841,5.4989,5.75,5.9945,6.1376,6.1985,6.2221,6.2357,6.3981,6.5876,6.6599,6.847,7.0342,7.0973,7.1199,7.0928,6.9451,6.9553,6.9259,6.662,6.6958,6.7387,6.6282,6.7594,6.8481,6.7452,6.9032,6.9939,6.8574,6.955,7.0312,7.0009,7.044,7.0799,7.0889,7.0889,7.0889,7.0889,7.0889,7.0889,7.0889,7.0889,7.1158,7.1713,7.1743,7.1743,7.1743,7.0785,7.0935,7.2056,7.1278,7.1591,7.2907,7.2787,7.2415,7.1893,7.1893,0.0,7.1068,7.0949,7.0889,7.0889,7.0889,7.0889,7.0889,7.0889,7.1248,7.1743,0.0,0.0,0.0,0.0,0.0,0.0,0.0,3.7353,3.803,3.9884,3.9844,3.9608,3.9574,3.9891,4.0113,0.0,0.0,0.0,0.0,0.0,0.0,4.2266,4.2658,4.3403,4.4574,4.4608,4.4804,4.5169,0.0,4.4973,4.5696,4.5304,4.5311,4.5657,4.5657,4.5657,4.5657,4.5657,4.5447,4.5135,4.5135,4.5135,4.5203,4.5974,4.7192,0.0,4.8875,5.0947,5.3661,5.4769,5.7611,6.0926,6.2052,6.2391,6.2492,6.2854,6.4546,6.644,6.7184,6.9045,7.0872,7.1199,7.0996,7.0229,6.8324,6.7861,6.7229,6.5019,6.5425,6.6068,6.5774,6.6912,6.7823,6.7528,6.8553,6.9336,6.9092,6.9868,7.047,7.047,7.0709,7.0889,7.0889,7.0889,7.0889,7.0889,7.0889,7.0889,7.0889,7.1218,7.1398,7.1368,7.1713,7.1743,7.1368,7.0769,7.0965,7.1893,7.1218,7.1427,7.2355,7.2026,7.1697,7.1368,7.1368,0.0,7.0889,7.0889,7.0889,7.0889,7.0889,7.1098,7.1427,7.1427,7.1846,7.2415,0.0,0.0,0.0,0.0,0.0,0.0,0.0,3.8153,3.8999,4.1366,4.1536,4.1197,4.0616,4.0432,4.0276,0.0,0.0,0.0,0.0,0.0,0.0,0.0,4.3091,4.3768,4.4574,0.0,0.0,4.5466,4.4871,0.0,0.0,0.0,0.0,0.0,4.4608,4.4608,4.4608,4.4608,4.4608,0.0,0.0,4.4709,4.5007,0.0,0.0,0.0,0.0,5.1082,5.3966,5.4439,5.7273,6.0757,6.1815,6.2255,6.2594,6.3487,6.5178,6.7005,6.7895,6.9711,7.1267,7.1097,7.0635,6.9563,6.7117,6.6112,6.5233,6.3589,6.3971,6.4783,6.5368,6.6355,6.7316,6.7915,6.8524,6.9164,6.9891,7.0412,7.0769,7.0889,7.0889,7.0889,7.0889,7.0889,7.0889,7.0889,7.1038,7.1009,7.0709,7.1607,7.1727,7.0919,7.1564,7.1593,7.0919,7.0769,7.0979,7.1474,7.0949,7.1038,7.1683,7.1128,7.0889,7.0889,7.0889,0.0,7.0889,7.0889,7.0889,7.0919,7.1068,7.1427,7.1923,7.2056,7.2535,7.3116,0.0,0.0,0.0,0.0,0.0,0.0,0.0,3.891,3.9918,4.2814,4.2618,4.2158,4.2124,4.1508,4.0838,0.0,0.0,0.0,0.0,0.0,0.0,0.0,0.0,0.0,0.0,0.0,0.0,4.4709,4.4642,0.0,0.0,0.0,0.0,0.0,0.0,4.4608,4.4608,4.4608,0.0,0.0,0.0,0.0,0.0,0.0,0.0,0.0,0.0,5.0093,5.1818,5.389,5.6199,5.8601,6.0723,6.1873,6.2661,6.4072,6.5584,6.7106,6.8605,7.0117,7.1131,7.0477,7.024,6.9428,6.6485,6.574,6.5097,6.2932,6.3599,6.4613,6.4681,6.6413,6.7846,6.797,6.8549,6.9235,6.9914,7.0064,7.0277,7.0829,7.0889,7.0889,7.0889,7.0889,7.0889,7.0889,7.1457,7.1294,7.0157,7.1816,7.2219,7.0949,7.1564,7.1593,7.0919,7.0366,7.0097,7.0157,7.0097,7.0396,7.0979,7.0919,7.0889,7.0889,7.0889,0.0,0.0,7.0889,7.0889,7.0949,7.1577,7.1863,7.1983,7.2578,7.3223,7.3821,0.0,0.0,0.0,0.0,0.0,0.0,3.9337,3.9669,4.0724,4.3741,4.3436,4.2956,4.2956,4.2713,4.188,4.0242,0.0,0.0,0.0,0.0,0.0,0.0,0.0,0.0,0.0,0.0,4.4608,4.4608,0.0,0.0,0.0,0.0,0.0,0.0,0.0,0.0,4.4608,4.4608,0.0,0.0,0.0,0.0,0.0,0.0,0.0,0.0,0.0,0.0,5.2799,5.4126,5.6368,5.8786,6.0148,6.1095,6.2212,6.4556,6.6,6.7242,6.9214,7.05,7.1131,7.0375,6.9868,6.8842,6.6282,6.5368,6.4647,6.3328,6.3869,6.4749,6.5189,6.6339,6.7689,6.9087,6.9528,7.0209,7.1805,7.1609,7.1335,7.1595,7.1198,7.0889,7.0889,7.0889,7.0889,7.0889,7.1158,7.0935,7.0037,7.1474,7.1697,7.0396,7.0636,7.0815,7.0889,7.0306,7.0187,7.053,7.053,7.0679,7.0889,7.0889,7.0889,7.0889,7.0889,0.0,0.0,7.0889,7.1128,7.1534,7.1803,7.2402,7.315,7.3402,7.3911,7.4497,0.0,0.0,0.0,0.0,0.0,3.7461,3.9466,4.0142,4.1333,4.3917,4.3768,4.3382,4.3382,4.322,4.2455,4.0885,4.0749,0.0,0.0,0.0,0.0,0.0,0.0,0.0,0.0,0.0,4.4608,4.4608,4.4608,0.0,0.0,0.0,0.0,0.0,0.0,0.0,0.0,0.0,0.0,0.0,0.0,0.0,0.0,0.0,0.0,0.0,0.0,0.0,0.0,0.0,0.0,5.9124,5.9877,6.0655,6.1873,6.4827,6.6203,6.7309,6.9597,7.0567,7.0838,7.0342,6.9462,6.8199,6.618,6.5131,6.44,6.3656,6.4096,6.4816,6.5571,6.6305,6.7478,6.953,6.9841,7.0573,7.278,7.2748,7.2425,7.2132,7.1793,7.1423,7.0938,7.0739,7.062,7.062,7.062,7.035,6.9738,7.0755,7.0935,7.0037,7.0157,7.047,7.0889,7.047,7.047,7.0889,7.0889,7.0889,7.0889,7.0889,7.0889,7.0889,7.0889,0.0,0.0,7.1098,7.1457,7.1953,7.2342,7.309,7.3911,7.4121,7.4497,7.4886,0.0,0.0,0.0,0.0,0.0,0.0,3.8774,4.0257,4.1732,4.322,4.3423,4.3382,4.3382,4.2753,4.2293,4.2293,4.2293,0.0,0.0,0.0,0.0,0.0,0.0,0.0,0.0,0.0,4.4608,4.4608,4.4608,4.4608,4.4608,4.4608,0.0,0.0,0.0,0.0,0.0,0.0,0.0,0.0,0.0,0.0,4.7988,0.0,0.0,0.0,0.0,0.0,0.0,0.0,0.0,0.0,0.0,6.0655,6.1873,6.4827,6.6203,6.7309,6.9597,7.0206,7.0206,7.0206,6.9056,6.7523,6.6045,6.5131,6.44,6.3656,6.4096,6.4816,6.5571,6.6305,6.7309,6.8876,6.9099,6.9874,7.1999,7.2986,7.3159,7.2206,7.2797,7.2643,7.1051,7.0366,7.0007,7.0007,6.9961,0.0,6.9034,6.9648,7.0007,7.0007,7.056,7.0889,7.0889,7.0889,7.0889,7.0889,7.0889,7.0889,7.0889,7.0889,7.0889,7.0889,0.0,0.0,0.0,7.1623,7.1893,7.2042,7.3343,7.3881,7.3971,7.4646,7.4886,7.4886,0.0,0.0,0.0,0.0,0.0,0.0,0.0,3.9823,4.098,4.2455,4.2212,4.2077,4.2591,4.2888,4.3051,4.3051,4.2591,0.0,0.0,0.0,0.0,0.0,0.0,0.0,0.0,0.0,4.4608,4.4608,4.5101,4.5101,4.4608,4.5135,4.5067,4.4608,0.0,0.0,0.0,0.0,0.0,0.0,0.0,4.7996,4.8672,0.0,0.0,0.0,0.0,0.0,0.0,0.0,0.0,0.0,0.0,0.0,0.0,6.3453,6.5087,6.6305,6.7557,6.8233,6.8379,6.7364,6.6755,6.6,6.4536,6.4028,6.3792,6.3545,6.4096,6.4816,6.5571,6.6305,6.7647,7.0184,7.104,7.2319,7.507,7.4716,7.4072,7.3776,7.2506,7.129,7.0385,7.0097,7.0007,7.0007,6.9542,6.9602,7.026,7.0127,7.0007,7.0007,7.0187,7.047,7.0889,7.0889,7.0889,7.0889,7.0889,7.0889,7.0889,7.0889,7.0889,0.0,0.0,0.0,7.1593,7.1803,7.2432,7.3313,7.3732,7.4197,7.4616,7.4826,7.4886,7.4886,0.0,0.0,0.0,0.0,0.0,0.0,0.0,3.9863,4.0838,4.1752,4.1508,4.1474,4.2225,4.2726,4.3085,4.3389,4.3267,0.0,0.0,0.0,0.0,0.0,0.0,0.0,0.0,4.4432,4.4736,4.5007,4.5466,4.5466,4.5041,4.55,4.5304,4.4608,4.4608,0.0,0.0,0.0,0.0,0.0,4.7286,4.8097,4.9011,0.0,0.0,0.0,0.0,0.0,0.0,0.0,0.0,0.0,0.0,0.0,0.0,0.0,6.3937,6.5087,6.6102,6.6711,6.6924,6.6271,6.5696,6.5019,6.413,6.369,6.3589,6.3859,6.4512,6.5222,6.5967,6.6711,6.7918,7.0117,7.1334,7.2717,7.4875,7.5036,7.4731,7.4127,7.218,7.0649,7.0067,6.9768,6.9618,6.9618,6.9019,6.9199,7.05,7.0217,7.0097,7.032,7.0336,7.05,7.0889,7.0889,7.0889,7.0889,7.0889,7.0889,7.0889,7.0889,7.1038,0.0,0.0,7.1667,0.0,7.2535,7.315,7.3911,7.4197,7.4527,7.4886,7.4886,7.4886,7.4886,0.0,0.0,0.0,0.0,0.0,0.0,0.0,4.0155,4.1062,4.1096,4.113,4.1373,4.2056,4.2191,4.253,4.3254,0.0,0.0,0.0,0.0,0.0,0.0,0.0,0.0,4.3382,4.4188,4.4939,4.5628,4.5737,4.5763,4.5696,4.5797,4.5432,4.4675,4.4675,4.4642,0.0,0.0,0.0,0.0,4.6928,4.7767,0.0,0.0,0.0,0.0,0.0,0.0,0.0,0.0,0.0,0.0,0.0,0.0,0.0,0.0,0.0,0.0,0.0,6.5503,6.5706,6.6328,6.5449,6.4444,6.4444,6.3961,0.0,6.4444,6.5121,6.5876,6.6734,6.7343,6.8064,6.9079,7.0343,7.1492,7.2339,7.4228,7.4937,7.3382,7.1838,7.0649,7.0067,6.9439,6.9064,6.9004,6.8481,6.869,7.0007,7.0067,7.032,7.0889,7.0889,7.0889,7.0889,7.0889,7.0889,7.0889,7.0889,7.0889,7.0889,7.0949,7.1308,0.0,0.0,7.2355,7.3027,7.3642,7.3911,7.4031,7.4646,7.4886,7.4886,7.4886,7.4886,7.4886,0.0,0.0,0.0,0.0,0.0,0.0,0.0,0.0,0.0,0.0,4.0377,4.0405,4.0614,4.1109,4.1745,0.0,0.0,0.0,0.0,0.0,0.0,0.0,0.0,0.0,4.3382,4.4188,4.4675,4.4871,4.5981,4.6244,4.573,4.6838,4.6677,4.5432,4.5432,4.5135,0.0,0.0,0.0,0.0,4.8037,4.868,0.0,0.0,0.0,0.0,4.9838,5.1564,0.0,0.0,0.0,0.0,0.0,0.0,0.0,0.0,6.2076,6.2719,6.3067,0.0,6.3927,6.3531,6.3159,6.2932,0.0,6.3226,6.3724,6.4444,6.4749,6.5425,6.7286,6.6846,6.7218,7.0286,7.0612,7.1299,7.3654,7.391,7.3456,7.2347,7.1448,7.0649,7.0067,6.9858,6.9558,6.9034,6.9319,6.9858,7.0649,7.0679,7.0739,7.0889,7.0889,7.0889,7.0889,7.0889,7.0889,7.0889,7.0889,7.0889,7.0919,7.1444,7.1743,0.0,7.2445,7.3043,7.3672,7.3821,7.4197,7.4676,7.4826,7.4886,7.4886,7.4886,7.4886,7.4886,0.0,0.0,0.0,0.0,0.0,0.0,0.0,0.0,0.0,0.0,0.0,4.0113,4.0113,4.0472,0.0,0.0,0.0,0.0,0.0,0.0,0.0,0.0,0.0,4.2753,4.2408,4.3849,4.477,4.5101,4.5913,4.6244,4.621,4.6677,4.6466,4.5696,4.5338,4.4966,0.0,0.0,0.0,4.6894,4.803,0.0,0.0,0.0,0.0,0.0,4.9838,5.1564,0.0,5.4735,5.6562,5.8524,0.0,0.0,0.0,0.0,6.1569,6.1985,6.2323,6.2685,6.2888,6.2492,6.2391,6.2492,6.2821,6.3217,6.3724,6.4444,6.5155,6.5865,6.6711,6.7331,6.835,7.0467,7.0962,7.1618,7.3163,7.2708,7.1993,7.1512,7.1128,7.0649,7.0067,7.0007,6.9858,6.9498,6.9798,7.0277,7.0859,7.0889,7.0889,7.0889,7.0889,7.0889,7.0889,7.0889,7.0889,7.0889,7.1218,7.1368,7.1368,7.2056,7.2535,0.0,7.3193,7.3732,7.4377,7.4377,7.4557,7.4886,7.4886,7.4886,7.4886,7.4886,7.4886,7.4886,0.0,0.0,0.0,0.0,0.0,0.0,0.0,0.0,0.0,0.0,0.0,0.0,0.0,0.0,0.0,0.0,0.0,0.0,0.0,0.0,0.0,0.0,0.0,4.1847,4.1197,4.3308,4.4763,4.5534,4.5865,4.6346,4.6962,4.6549,4.6203,4.5838,4.5108,4.4709,0.0,0.0,4.6244,4.6861,4.7725,0.0,0.0,0.0,0.0,0.0,0.0,0.0,0.0,5.5192,5.7085,5.8955,5.9573,0.0,0.0,0.0,0.0,0.0,6.2357,6.2729,6.283,6.2492,6.2391,6.256,6.3183,6.3521,6.3825,6.4343,6.5628,6.6502,6.611,6.8043,6.9907,7.0578,7.1581,7.2162,7.1841,7.1272,7.0949,7.1038,7.0949,7.0739,7.0336,7.0187,7.0127,7.0127,7.0127,7.0366,7.0889,7.0889,7.0889,7.0889,7.0889,7.0889,7.0889,7.0889,7.0949,7.1068,7.1623,7.1953,7.2072,7.2744,7.3373,7.3928,0.0,0.0,7.4886,7.4886,7.4886,7.4886,7.4886,7.4886,7.4886,7.4886,7.4886,7.4886,0.0,0.0,0.0,0.0,0.0,0.0,0.0,0.0,0.0,0.0,0.0,0.0,0.0,0.0,0.0,0.0,0.0,0.0,0.0,0.0,0.0,3.8458,4.0324,4.1305,4.1197,4.2787,4.3978,4.477,4.6643,4.7616,4.7752,4.8883,4.8417,4.659,4.5872,4.5169,4.4675,4.6056,4.6691,4.6928,4.8274,0.0,0.0,0.0,0.0,0.0,0.0,0.0,0.0,5.5192,5.6765,5.8094,5.8195,0.0,0.0,0.0,0.0,0.0,6.298,6.4241,6.4725,6.2864,6.2391,6.2424,6.2526,6.3531,6.4299,6.3758,6.485,6.6238,6.7354,6.7913,6.9255,7.2399,7.3029,7.2468,7.0589,7.0661,7.1098,7.1683,7.1248,7.1098,7.1564,7.1098,7.0769,7.0769,7.0769,7.0799,7.0889,7.0889,7.0889,7.0889,7.0889,7.0889,7.0889,7.0889,7.1188,7.1743,7.1863,7.2206,7.2757,7.3432,7.3791,7.3941,0.0,7.4796,7.4886,7.4886,7.4886,7.4886,7.4886,7.4886,7.4886,7.4886,7.4886,7.4886,0.0,0.0,0.0,0.0,0.0,0.0,0.0,0.0,0.0,0.0,0.0,0.0,0.0,0.0,0.0,0.0,0.0,0.0,0.0,0.0,0.0,3.7387,3.9423,4.0608,4.0608,4.2868,4.4628,4.5785,4.7218,4.8293,4.9086,4.8984,4.7928,4.6177,4.544,4.4905,4.4709,4.6157,4.6793,4.6928,0.0,0.0,0.0,0.0,0.0,0.0,0.0,0.0,0.0,0.0,5.7002,5.7958,5.8355,0.0,0.0,0.0,0.0,0.0,6.1897,6.2821,6.3463,6.4048,6.5402,6.6721,6.7117,6.803,6.8504,6.7354,6.7996,6.8651,6.8424,6.9039,7.0228,7.2243,7.2621,7.2156,7.0687,7.0739,7.1009,7.1308,7.1398,7.1547,7.1863,7.1607,7.1427,7.1427,7.1098,7.0889,7.0889,7.0889,7.0889,7.0889,7.0889,7.0889,7.0889,7.1248,7.1593,7.1923,7.2641,7.3133,7.3462,7.4121,7.4437,7.4467,0.0,7.4886,7.4886,7.4886,7.4886,7.4886,7.4886,7.4886,7.4886,7.4886,7.4886,7.4886,0.0,0.0,0.0,0.0,0.0,0.0,0.0,0.0,0.0,0.0,0.0,0.0,0.0,0.0,0.0,0.0,0.0,0.0,0.0,0.0,3.9411,3.7162,3.9017,4.0269,4.0614,4.322,4.5413,4.7064,4.8124,4.9247,5.0338,4.8841,4.738,4.594,4.5203,4.4777,4.4709,4.6157,4.6793,4.6928,0.0,0.0,0.0,0.0,0.0,0.0,0.0,0.0,0.0,0.0,0.0,0.0,0.0,0.0,0.0,5.9158,5.9259,5.9665,6.1569,6.2313,6.3159,6.5605,6.7297,6.8853,7.0635,7.121,7.103,6.9917,7.0511,7.0764,6.9153,7.0494,7.1924,7.2192,7.229,7.2013,7.1025,7.0889,7.0889,7.0889,7.1504,7.1953,7.2116,7.2116,7.2116,7.2116,7.1517,7.1068,7.0919,7.0889,7.0889,7.0889,7.0889,7.0979,7.1128,7.1803,7.2116,7.2162,7.3313,7.3971,7.4168,7.4676,7.4886,7.4886,7.4886,7.4886,7.4886,7.4886,7.4886,7.4886,7.4886,7.4886,7.4886,7.4886,7.4886,7.4886,0.0,0.0,0.0,0.0,0.0,0.0,0.0,0.0,0.0,0.0,0.0,0.0,0.0,0.0,0.0,0.0,0.0,0.0,0.0,0.0,3.8052,3.7849,3.9297,4.0758,4.2124,4.3762,4.5643,4.7819,4.9916,5.1032,5.11,4.9619,4.8139,4.6691,4.594,4.5237,4.4709,4.6157,4.6793,4.6928,4.8409,0.0,0.0,0.0,0.0,0.0,0.0,0.0,0.0,0.0,0.0,0.0,0.0,0.0,5.8263,5.9607,6.0013,6.0655,6.3565,6.5347,6.6633,6.7523,6.5334,6.4251,6.9157,6.9214,6.8201,6.8169,6.9789,7.0758,6.9261,7.1854,7.4001,7.3299,7.3172,7.2598,7.1102,7.0889,7.0889,7.0889,7.1504,7.2146,7.2757,7.2817,7.2817,7.2817,7.2206,7.1547,7.0949,7.0889,7.0889,7.0889,7.0889,7.1188,7.1833,7.2505,7.2817,7.2847,7.3552,7.4227,7.4826,7.4886,7.4886,7.4886,7.4886,7.4886,7.4886,7.4886,7.4886,7.4886,7.4886,7.4886,7.4886,7.4886,7.4886,7.4886,0.0,0.0,0.0,0.0,0.0,0.0,0.0,0.0,0.0,0.0,0.0,0.0,0.0,0.0,0.0,0.0,0.0,0.0,0.0,3.7934,3.8565,3.8565,3.9568,4.1231,4.3687,4.521,4.7064,4.9255,5.1006,5.1412,5.0473,4.9011,4.7522,4.6075,4.5338,4.5135,4.5338,4.6353,4.7056,4.759,4.8605,4.9011,0.0,0.0,0.0,0.0,0.0,0.0,0.0,0.0,5.5505,5.6249,5.6968,5.7518,5.8094,5.9133,5.9099,5.9278,6.1839,6.3961,6.5628,6.6349,6.618,6.706,7.1853,7.244,7.2293,7.3325,7.2979,7.2216,7.1169,7.2028,7.283,7.2604,7.2106,7.1569,7.097,7.0889,7.1038,7.1457,7.2116,7.2804,7.3462,7.3522,7.3343,7.2937,7.2265,7.1623,7.0949,7.0889,7.0889,7.0889,7.1308,7.1653,7.1893,7.2984,7.3522,7.3522,7.4197,7.4646,7.4886,7.4886,7.4886,7.4886,7.4886,7.4886,7.4886,7.4886,7.4886,7.4886,7.4886,7.4886,7.4886,7.4886,7.4886,7.4886,0.0,0.0,0.0,0.0,0.0,0.0,0.0,0.0,0.0,0.0,0.0,0.0,0.0,0.0,0.0,0.0,0.0,0.0,3.7568,3.8233,3.8876,3.9322,4.0047,4.1745,4.454,4.6285,4.8003,4.9737,5.1014,5.098,4.9737,4.8462,4.7346,4.6372,4.5609,4.5575,4.6075,4.659,4.709,4.7616,4.8368,4.8943,0.0,0.0,0.0,0.0,0.0,0.0,0.0,0.0,5.5108,5.5834,5.6562,5.7306,5.8026,5.8786,5.9327,6.0114,6.2144,6.3971,6.5652,6.7083,6.7861,6.9451,7.3939,7.3993,7.3703,7.5747,7.449,7.2849,7.2265,7.2267,7.2303,7.2135,7.1416,7.0889,7.0889,7.0889,7.1158,7.1833,7.2505,7.3146,7.3821,7.4108,7.3941,7.3283,7.2595,7.1906,7.1248,7.1009,7.1009,7.1218,7.1653,7.2102,7.2521,7.3432,7.4018,7.4227,7.4676,7.4886,7.4886,7.4886,7.4886,7.4886,7.4886,7.4886,7.4886,7.4886,7.4886,7.4886,7.4886,7.4886,7.4886,7.4886,7.4886,7.4886,0.0,0.0,0.0,0.0,0.0,0.0,0.0,0.0,0.0,0.0,0.0,0.0,0.0,0.0,0.0,0.0,0.0,0.0,3.9011,3.8328,3.8565,4.0045,4.0804,4.2252,4.454,4.6744,4.8259,4.9011,4.9737,4.9703,4.8943,4.8225,4.7879,4.7853,4.7124,4.6793,4.6793,4.6793,4.6793,4.6861,4.7616,4.8808,5.0109,0.0,0.0,0.0,0.0,0.0,0.0,0.0,5.5074,5.58,5.6553,5.7315,5.8026,5.8786,6.1119,6.3792,6.5266,6.6237,6.7546,7.0511,7.0218,7.0331,7.4695,7.2826,7.0992,7.3986,7.3436,7.2359,7.2125,7.2742,7.3024,7.2235,7.1416,7.0889,7.0889,7.0889,7.1158,7.1833,7.2505,7.3163,7.3851,7.4497,7.4616,7.3941,7.3266,7.2624,7.1953,7.1278,7.1218,7.1893,7.1923,7.2551,7.3881,7.3911,7.4257,7.4886,7.4886,7.4886,7.4886,7.4886,7.4886,7.4886,7.4886,7.4886,7.4886,7.4886,7.4886,7.4886,7.4886,7.4886,7.4886,7.4916,7.4916,7.4916,0.0,0.0,0.0,0.0,0.0,0.0,0.0,0.0,0.0,0.0,0.0,0.0,0.0,0.0,0.0,0.0,0.0,0.0,3.9011,3.8808,3.9349,4.0798,4.1062,4.2252,4.454,4.5737,4.7496,4.977,4.9458,4.868,4.7436,4.7225,4.6583,4.5609,4.6421,4.6522,4.6075,4.659,4.709,4.7658,4.8368,4.9255,5.021,0.0,0.0,0.0,0.0,0.0,0.0,0.0,0.0,0.0,5.5809,5.69,5.8026,5.8786,5.9622,6.068,6.2178,6.5459,6.8358,6.8189,7.1379,7.4796,7.554,7.4405,7.3284,7.3615,7.381,7.3502,7.2311,7.1844,7.1705,7.2042,7.1416,7.0889,7.0889,7.0889,7.1338,7.2475,7.2787,7.3343,7.4497,7.4766,7.4616,7.3941,7.3702,7.3103,7.1953,7.2146,7.2176,7.1923,7.2804,7.3492,7.3881,7.4377,7.4706,7.4886,7.4886,7.4886,7.4886,7.4886,7.4886,7.4886,7.4886,7.4886,7.4886,7.4886,7.4886,7.4886,7.4886,7.4886,7.4946,7.5437,7.5587,7.5647,0.0,0.0,0.0,0.0,0.0,0.0,0.0,0.0,4.2057,4.1837,4.1467,4.0879,0.0,0.0,0.0,3.9513,3.9688,3.9755,3.9457,3.9146,3.9654,4.113,4.1197,4.2388,4.4966,4.5466,4.6583,4.8342,4.8206,4.753,4.638,4.7259,4.7199,4.6421,4.7909,4.7962,4.7049,4.7496,4.7936,4.8402,4.9146,5.0244,5.1564,0.0,0.0,0.0,0.0,0.0,0.0,0.0,0.0,0.0,5.5564,5.6697,5.8229,5.9877,6.1593,6.3419,6.5222,6.8436,7.1267,7.1278,7.3849,7.6623,7.7333,7.6645,7.5362,7.3649,7.3947,7.3917,7.1967,7.1481,7.1432,7.1609,7.1216,7.0979,7.1248,7.1068,7.1487,7.3103,7.3057,7.3432,7.4766,7.4886,7.4736,7.4317,7.4031,7.3432,7.2355,7.2684,7.2698,7.2295,7.3343,7.4048,7.427,7.4706,7.4886,7.4886,7.4886,7.5035,7.5305,7.5006,7.4886,7.4886,7.4886,7.4886,7.4886,7.4886,7.4886,7.4933,7.5185,7.5305,7.5395,7.6018,7.6258,7.6317,0.0,0.0,0.0,0.0,0.0,0.0,0.0,4.2717,4.2482,4.1953,4.1885,4.1666,0.0,0.0,0.0,4.0284,4.0735,4.0838,4.014,3.9525,3.9817,4.1231,4.1434,4.2794,4.5534,4.5594,4.5594,4.5594,4.6346,4.6312,4.5635,4.7861,4.8841,4.8841,5.033,5.0186,4.8815,4.8815,4.8815,4.8883,4.9737,5.1386,5.3306,5.3382,0.0,0.0,0.0,0.0,0.0,0.0,0.0,0.0,5.5767,5.6765,5.8432,6.1173,6.5165,6.9147,7.1142,7.3093,7.5089,7.7176,7.6826,7.6758,7.9566,7.902,7.7069,7.411,7.4082,7.3829,7.1351,7.1512,7.1767,7.1011,7.0889,7.1128,7.1803,7.1368,7.1727,7.3672,7.3373,7.3492,7.4766,7.4886,7.4886,7.4886,7.4347,7.3732,7.3116,7.3146,7.3176,7.3176,7.3821,7.442,7.4976,7.4976,7.4946,7.4886,7.4886,7.5245,7.5886,7.5275,7.4976,7.4976,7.4976,7.4946,7.4886,7.4886,7.4946,7.5035,7.5647,7.5946,7.6048,7.6676,7.6886,7.6916,0.0,0.0,0.0,0.0,0.0,0.0,4.3334,4.2985,4.265,4.2537,4.2523,4.2282,4.1682,4.1758,0.0,4.0774,4.0502,4.0276,4.0106,4.05,4.1136,4.2022,4.3206,4.4161,4.4804,4.4838,4.4838,4.4838,4.5568,4.5568,4.4871,4.7116,4.7827,4.7334,4.8808,4.8638,4.7267,4.7267,4.7267,4.7436,4.933,5.0744,5.175,5.2325,5.2942,0.0,0.0,0.0,0.0,0.0,0.0,0.0,5.6384,5.7171,5.8035,5.8669,6.2052,6.5662,6.6136,7.0353,7.4717,7.519,7.6847,7.8674,7.9904,7.902,7.7358,7.5478,7.522,7.4457,7.1457,7.1044,7.1112,7.0938,7.0889,7.1128,7.1803,7.1773,7.2252,7.3702,7.3762,7.4001,7.4826,7.4886,7.4886,7.4886,7.4766,7.4616,7.4467,7.4958,7.524,7.524,7.5839,7.6018,7.5677,7.5677,7.5407,7.4886,7.4886,7.5245,7.5916,7.5766,7.5677,7.5677,7.5677,7.5395,7.4886,7.4886,7.5215,7.5707,7.5856,7.6198,7.6706,7.7335,7.7574,7.7664,0.0,0.0,0.0,0.0,0.0,0.0,0.0,0.0,4.4079,4.3706,4.3669,4.3445,4.2859,4.2502,0.0,0.0,4.0746,4.0472,4.0113,4.0804,4.1705,4.2787,4.3958,4.4608,4.4608,4.4608,4.4608,4.4608,4.5007,4.4973,4.4642,4.6481,4.7158,4.6861,4.8342,4.8376,4.7353,4.7699,4.8274,4.9052,5.0541,5.1623,5.2351,5.2731,5.2909,5.2875,5.2469,0.0,0.0,0.0,0.0,0.0,0.0,0.0,5.8161,5.9616,6.2719,6.6125,6.8267,7.1921,7.5461,7.6927,7.82,7.9283,8.004,7.9593,7.8578,7.7027,7.611,7.4866,7.2472,7.2061,7.1792,7.1018,7.1158,7.1607,7.2265,7.2385,7.2864,7.4227,7.4108,7.4168,7.4826,7.4886,7.4886,7.4886,7.4886,7.4886,7.4886,7.5245,7.5557,7.5886,7.6198,7.6347,7.6317,7.6317,7.6168,7.5796,7.5796,7.6006,7.6317,7.6317,7.6317,7.6317,7.6317,7.6108,7.5796,7.5796,7.6036,7.6347,7.6676,7.7006,7.7365,7.8041,7.828,7.834,0.0,0.0,0.0,0.0,0.0,0.0,0.0,0.0,0.0,4.4773,4.47,4.4487,4.3968,4.3298,4.2374,0.0,0.0,0.0,4.0282,4.097,4.2043,4.3524,4.4222,4.4608,4.4608,4.4608,4.4608,4.4608,4.4608,4.4675,4.4804,4.6157,4.6793,4.6861,4.8079,4.8368,4.7913,4.8402,4.9416,5.0694,5.1581,5.2334,5.2909,5.2909,5.2672,5.2266,5.2164,5.3577,5.5327,5.4084,0.0,0.0,0.0,0.0,5.8398,6.0902,6.4005,6.7377,7.0984,7.368,7.6284,7.9397,7.9667,7.9283,8.004,7.9998,7.9508,7.8525,7.7069,7.5435,7.3627,7.3276,7.2767,7.1164,7.1457,7.2116,7.2817,7.2997,7.3522,7.4736,7.4407,7.4287,7.4856,7.4886,7.4886,7.4886,7.5006,7.5125,7.5215,7.5335,7.5724,7.6395,7.6395,7.6587,7.6976,7.6958,7.6838,7.6647,7.6749,7.6838,7.6976,7.7095,7.7035,7.6808,7.6898,7.6898,7.6779,7.6779,7.6886,7.7035,7.7574,7.7873,7.8041,7.8579,7.8807,7.8807,0.0,0.0,0.0,0.0,0.0,0.0,0.0,0.0,0.0,0.0,4.47,4.4487,4.3968,4.3217,4.244,4.1741,4.1687,4.1464,4.0827,0.0,0.0,4.4364,4.454,4.4608,4.4608,4.4608,4.4608,4.4608,4.4608,4.4939,4.5561,4.6421,4.6793,4.6827,4.6996,4.7387,4.7845,4.7327,4.759,4.8462,4.983,5.0447,5.0549,5.0549,5.1285,5.2232,5.1573,5.2799,5.471,5.4507,5.5412,0.0,0.0,0.0,5.7992,5.8364,6.1985,6.5842,6.5797,7.015,7.563,7.9295,7.9667,7.9283,8.004,7.9163,7.8538,7.967,7.867,7.6688,7.3747,7.3261,7.2767,7.1164,7.1457,7.2116,7.2817,7.3402,7.4031,7.4796,7.4826,7.4796,7.4886,7.4886,7.4886,7.4886,7.5455,7.6006,7.6527,7.7113,7.7711,7.837,7.84,7.816,7.7664,7.7682,7.7095,7.6036,7.6557,7.7095,7.7694,7.828,7.7921,7.6838,7.7424,7.7335,7.6779,7.6779,7.7155,7.7664,7.7771,7.816,7.8687,7.8777,7.8807,7.8807,0.0,0.0,0.0,0.0,0.0,0.0,0.0,0.0,0.0,0.0,0.0,4.5796,4.5084,4.4044,4.3079,4.2363,4.1989,4.1733,4.1596,4.2019,4.28,4.3876,4.4364,4.4608,4.4608,4.4154,4.4154,4.4608,4.4154,4.4553,4.573,4.6447,4.6793,4.6793,4.6387,4.6812,4.7845,4.7124,4.7706,4.9187,4.9838,5.1361,5.301,5.0887,5.1792,5.3881,5.1446,5.2063,5.3923,5.345,5.4338,5.5649,5.6046,0.0,0.0,0.0,6.1061,6.4522,6.7523,7.1706,7.6014,7.9363,7.9972,7.9803,8.0141,7.9683,7.9392,8.0048,7.967,7.8251,7.5129,7.4555,7.3888,7.1807,7.2026,7.2684,7.3373,7.4031,7.4557,7.4856,7.4886,7.4886,7.4886,7.4886,7.4886,7.4886,7.5527,7.6168,7.6766,7.7095,7.7724,7.8777,7.843,7.828,7.837,7.837,7.8071,7.7502,7.7394,7.7514,7.7813,7.81,7.813,7.7951,7.822,7.819,7.7921,7.7921,7.81,7.837,7.837,7.8519,7.8807,7.8807,7.8807,7.8807,0.0,0.0,0.0,0.0,0.0,0.0,0.0,0.0,0.0,0.0,0.0,4.6818,4.6083,0.0,0.0,0.0,4.2404,4.2121,4.2277,4.2265,4.2673,4.3606,4.4074,4.4398,4.4608,4.3802,4.3802,4.4608,4.3802,4.4302,4.6007,4.6556,4.6996,4.7334,4.6575,4.6872,4.7845,4.7319,4.8248,5.0176,5.0921,5.2909,5.5234,5.3357,5.4499,5.6612,5.2875,0.0,0.0,0.0,5.345,5.4972,5.5539,5.6697,0.0,0.0,0.0,6.3328,6.8933,7.2056,7.4559,7.8145,7.9194,7.9498,8.0073,8.0209,8.0209,8.0209,8.0209,7.9275,7.6166,7.5594,7.4776,7.2298,7.2475,7.3116,7.3791,7.4467,7.4886,7.4886,7.4886,7.4886,7.4886,7.4886,7.4886,7.4886,7.5647,7.6317,7.6779,7.6976,7.7514,7.8519,7.8071,7.8041,7.8519,7.8549,7.8639,7.8807,7.813,7.7891,7.8041,7.8041,7.834,7.8807,7.8807,7.8807,7.8807,7.8807,7.8807,7.8807,7.8807,7.8807,7.8807,7.8807,7.8807,7.8807,0.0,0.0,0.0,0.0,0.0,0.0,0.0,0.0,0.0,0.0,0.0,4.6873,4.6344,4.5293,4.4451,4.3881,4.3112,4.27,4.2864,4.2399,4.2757,4.4205,4.3754,0.0,4.4574,4.3802,4.3802,4.4608,4.3802,4.4546,4.6725,4.6793,4.7537,4.8849,4.8124,4.7812,4.7913,4.7853,4.8706,5.0353,5.3221,5.4473,5.5015,5.8321,6.0182,0.0,0.0,0.0,0.0,0.0,0.0,0.0,0.0,5.6697,5.8026,0.0,0.0,0.0,6.6846,6.8199,6.9519,7.4661,7.6521,7.7638,7.9701,8.0209,8.0209,8.0209,8.0209,7.9275,7.6166,7.5594,7.4776,7.2298,7.2475,7.3116,7.3791,7.4467,7.4886,7.4886,7.4886,7.4886,7.4886,7.4886,7.4886,7.4886,7.6066,7.6766,7.6779,7.7394,7.7801,7.7861,7.7831,7.7831,7.7861,7.7861,7.816,7.8807,7.813,7.813,7.8747,7.8747,7.8777,7.8807,7.8807,7.8807,7.8807,7.8807,7.8807,7.8807,7.8807,7.8807,7.8807,7.8807,7.8807,7.8807,0.0,0.0,0.0,0.0,0.0,0.0,0.0,0.0,0.0,0.0,0.0,0.0,0.0,4.5997,4.5192,4.4469,4.3018,4.2127,4.22,4.1768,4.1959,4.2976,4.3247,4.3768,4.4574,4.3802,4.3802,4.4608,4.3802,4.4336,4.6102,4.7049,4.7785,4.8293,4.8022,4.8428,4.9255,4.8293,4.874,5.0346,5.3391,5.603,5.8254,5.9607,0.0,0.0,0.0,0.0,0.0,0.0,0.0,0.0,0.0,0.0,5.8229,5.9979,6.0883,6.2279,6.6711,6.7895,6.8944,7.3218,7.5608,7.7096,7.7908,7.9194,8.0209,8.0209,8.0209,7.9546,7.744,7.7082,7.6094,7.3034,7.3561,7.4403,7.453,7.4736,7.4886,7.4886,7.4886,7.4886,7.4886,7.4886,7.4886,7.4886,7.5335,7.5587,7.5587,7.6215,7.6766,7.7155,7.7574,7.8011,7.843,7.843,7.8549,7.8807,7.8549,7.8549,7.8807,7.8807,7.8807,7.8807,7.8807,7.8807,7.8807,7.8807,7.8807,7.8807,7.8807,7.8807,7.8807,7.8807,7.8807,7.8807,0.0,0.0,0.0,0.0,0.0,4.7861,4.6503,4.7457,4.7824,0.0,0.0,0.0,0.0,0.0,4.5593,4.4573,4.3428,4.2609,4.2243,4.1934,4.2003,4.2573,4.3111,4.3768,4.4574,4.3802,4.3802,4.4608,4.3802,4.4201,4.573,4.6947,4.765,4.7913,4.8157,4.9078,5.0405,0.0,0.0,5.1225,0.0,0.0,5.9674,0.0,0.0,0.0,0.0,0.0,0.0,0.0,0.0,0.0,0.0,0.0,0.0,6.0385,6.1095,6.2009,6.5189,6.6406,6.7624,7.1154,7.3172,7.4796,7.6792,7.801,7.8991,8.0006,8.0209,7.9559,7.7528,7.7963,7.778,7.4964,7.466,7.4983,7.5627,7.5248,7.4886,7.4886,7.4886,7.4886,7.4886,7.4886,7.4886,7.4886,7.4886,0.0,7.4886,7.5335,7.5929,7.6779,7.7245,7.7873,7.8807,7.8807,7.8807,7.8807,7.8807,7.8807,7.8807,7.8807,7.8807,7.8807,7.8807,7.8807,7.8807,7.8807,7.8807,7.8807,7.8807,7.8807,7.8807,7.8807,7.8807,7.8807,0.0,0.0,0.0,0.0,4.8301,4.8039,4.7223,4.7778,4.8003,4.7223,0.0,0.0,0.0,0.0,0.0,4.425,4.4456,4.4222,4.3082,4.2935,4.2973,4.3199,4.3331,4.3768,4.4574,4.3836,4.3802,4.4608,4.3802,4.4201,4.573,4.6447,4.7225,4.7947,4.8706,4.9856,5.1201,0.0,5.1581,5.2875,0.0,6.053,5.8939,0.0,0.0,0.0,6.4884,6.4816,0.0,0.0,0.0,0.0,0.0,0.0,0.0,0.0,6.0655,6.1434,0.0,0.0,0.0,6.8267,6.9079,7.0635,7.6432,7.6635,7.6454,7.9464,8.0073,7.9167,7.628,7.8157,7.9639,7.8051,7.5721,7.4821,7.6936,7.5916,7.4954,7.4903,7.4886,7.4886,7.4886,7.4886,7.4886,7.4886,7.4886,7.4886,7.4886,7.4946,7.5527,7.6749,7.6838,7.7484,7.8759,7.8807,7.8807,7.8807,7.8807,7.8807,7.8807,7.8807,7.8807,7.8807,7.8807,7.8807,7.8807,7.8807,7.8807,7.8807,7.8807,7.8807,7.8807,7.8807,7.8807,7.8807,0.0,0.0,0.0,4.8301,4.8301,4.8039,4.7223,4.7778,4.8003,0.0,0.0,0.0,0.0,0.0,0.0,4.4879,4.4451,4.3937,4.319,4.2733,4.2723,4.3306,4.3383,4.3768,4.4574,4.4364,4.4364,4.4608,4.4364,4.4763,4.573,4.6447,4.7462,4.874,4.9466,5.0338,5.1133,5.0051,0.0,0.0,5.6147,5.9327,0.0,0.0,0.0,0.0,0.0,7.0117,0.0,0.0,6.6193,6.2076,0.0,0.0,0.0,0.0,0.0,0.0,6.2675,0.0,0.0,0.0,0.0,0.0,7.1312,7.2462,7.3984,7.6454,7.6927,7.7337,7.8684,7.9116,7.9488,8.0188,7.9167,7.767,7.5831,7.6169,7.6202,7.5057,7.4886,7.4886,7.4886,7.4886,7.4886,0.0,7.4886,7.4886,7.4886,7.5766,7.6437,7.6779,7.7724,7.819,7.8071,7.8549,7.8807,7.8807,7.8807,7.8807,7.8807,7.8807,7.8807,7.8807,7.8807,7.8807,7.8807,7.8807,7.8807,7.8807,7.8807,7.8807,7.8807,7.8807,7.8807,7.8807,0.0,0.0,4.8301,4.8301,4.86,4.8678,4.8191,4.8526,4.8673,0.0,0.0,0.0,0.0,0.0,0.0,0.0,4.4807,4.4319,4.3729,4.3336,4.321,4.3396,4.3734,4.412,4.4574,4.4608,4.4608,4.4608,4.4905,4.527,4.573,4.6786,4.7725,4.8563,4.9323,4.9864,5.0228,4.9349,0.0,0.0,5.75,0.0,0.0,6.7478,6.9688,0.0,0.0,0.0,6.8696,7.2383,6.9383,0.0,0.0,0.0,0.0,0.0,0.0,0.0,0.0,0.0,6.485,6.5899,0.0,0.0,7.0861,7.1672,7.2992,7.6792,7.757,7.7905,7.903,7.883,7.8661,7.9263,7.9747,7.9422,7.7732,7.6809,7.6202,7.5933,7.5303,7.4886,7.4886,7.4886,7.4886,7.4886,7.4646,7.4587,7.4886,7.5886,7.6557,7.6779,7.7831,7.819,7.7801,7.846,7.8807,7.8807,7.8807,7.8807,7.8807,7.8807,7.8807,7.8807,7.8807,7.8807,7.8807,7.8807,7.8807,7.8807,7.8807,7.8807,7.8807,7.8807,7.8807,7.8807,0.0,0.0,4.8338,4.8411,4.916,4.9752,4.9862,4.9862,4.9899,0.0,0.0,0.0,0.0,0.0,0.0,0.0,4.5445,4.4992,4.4457,4.4371,4.4101,4.3552,4.4222,4.4608,4.4608,4.4608,4.4642,4.4702,4.5365,4.5797,4.5966,4.7278,4.7954,4.8056,4.8706,4.9011,4.9011,4.918,0.0,5.3315,6.0655,6.2415,0.0,0.0,6.918,0.0,7.0522,7.0049,6.8696,7.4559,7.3003,0.0,0.0,0.0,0.0,0.0,6.1028,0.0,0.0,0.0,0.0,0.0,6.5753,0.0,7.2281,7.2078,7.2247,7.7807,7.8957,7.8661,7.7589,7.7496,7.7251,7.6413,7.8187,7.9893,8.038,7.7701,7.6086,7.7067,7.5972,7.5163,7.5163,7.5006,7.4886,7.4886,7.4437,7.442,7.5185,7.5796,7.6347,7.6886,7.7544,7.7891,7.7801,7.846,7.8807,7.8807,7.8807,7.8807,7.8807,7.8807,7.8807,7.8807,7.8807,7.8807,7.8807,7.8807,7.8807,7.8807,7.8807,7.8807,7.8807,7.8807,7.8807,7.8807,4.8301,4.8301,4.8521,4.9233,5.0036,5.0765,5.1436,5.1546,5.1762,5.2412,0.0,0.0,0.0,0.0,0.0,0.0,0.0,4.5183,4.4599,4.4538,4.4496,4.4371,4.4506,4.4608,4.4608,4.4608,4.4905,4.55,4.5628,4.6305,4.7481,4.7785,4.8225,4.8808,4.8951,4.9011,4.9078,5.0262,0.0,5.5192,5.6781,0.0,6.414,6.8064,7.0534,7.2236,7.4153,7.4458,7.3984,0.0,7.3781,7.2247,0.0,0.0,0.0,0.0,0.0,0.0,0.0,0.0,0.0,0.0,0.0,0.0,6.7252,6.7094,6.7624,7.0635,7.1278,7.1909,7.3993,7.4842,7.4981,7.4244,7.5899,7.7065,7.6438,7.8911,7.9699,7.6849,7.6689,7.6816,7.6816,7.5661,7.4886,7.4886,7.5258,7.6006,7.7173,7.7352,7.7484,7.7604,7.825,7.834,7.7801,7.846,7.8807,7.8807,7.8807,7.8807,7.8807,7.8807,7.8807,7.8807,7.8807,7.8807,7.8807,7.8807,7.8807,7.8807,7.8807,7.8807,7.8807,7.8807,7.8807,7.8807,4.8301,4.8636,4.9192,5.0036,5.1206,5.2265,5.3078,5.3193,5.3335,5.3733,0.0,0.0,0.0,0.0,0.0,0.0,0.0,0.0,4.5739,4.5684,4.5684,4.5684,4.5684,4.5684,4.5684,4.5684,4.5887,4.6244,4.6609,4.7177,4.7921,4.8293,4.9856,5.2249,4.9991,5.0431,5.2799,5.1285,5.219,5.4896,5.8235,0.0,6.7184,7.0161,7.2439,7.4153,7.4897,7.5642,7.6082,7.4559,7.3071,0.0,0.0,6.829,6.6948,0.0,6.5618,6.7049,0.0,0.0,0.0,6.617,0.0,0.0,0.0,6.7669,6.8132,7.0781,7.1278,7.1627,7.2744,7.2927,7.3024,7.3452,7.4972,7.5717,7.4474,7.7524,7.9562,7.8805,7.8257,7.7795,7.734,7.6568,7.5762,7.4954,7.5215,7.5946,7.7245,7.7305,7.7454,7.7801,7.846,7.846,7.7813,7.846,7.8807,7.8807,7.8807,7.8807,7.8807,7.8807,7.8807,7.8807,7.8807,7.8807,7.8807,7.8807,7.8807,7.8807,7.8807,7.8807,7.8807,7.8807,7.8807,7.8807,4.8301,4.9008,4.9858,5.0655,5.2113,5.3471,5.4289,5.4399,5.4393,0.0,0.0,0.0,0.0,0.0,0.0,0.0,0.0,0.0,0.0,4.7639,4.7699,4.7842,4.7165,4.7064,4.7639,4.7097,4.6861,4.6996,4.7624,4.7981,4.8124,4.8706,5.1006,5.449,5.1716,5.2536,5.575,5.2985,0.0,5.5911,0.0,6.5043,6.776,7.1458,7.324,7.3871,7.4717,7.5845,7.6657,7.5122,0.0,7.05,7.2326,7.0567,0.0,0.0,0.0,0.0,0.0,0.0,0.0,0.0,0.0,6.6552,0.0,0.0,0.0,0.0,7.1864,7.1594,7.1007,7.0487,7.0543,7.1795,7.3472,7.4227,0.0,7.5066,0.0,7.9785,7.9477,7.8738,7.7905,7.7401,7.653,7.5027,7.4786,7.5343,7.6724,7.6779,7.7185,7.7981,7.8519,7.8519,7.8011,7.8519,7.8807,7.8807,7.8807,7.8807,7.8807,7.8807,7.8807,7.8807,7.8807,7.8807,7.8807,7.8807,7.8807,7.8807,7.8807,7.8807,7.8807,7.8807,7.8807,7.8807,4.8301,4.9008,4.9858,5.0655,5.2113,5.3471,5.4289,5.4399,5.4422,0.0,0.0,0.0,0.0,0.0,0.0,0.0,0.0,0.0,5.0837,0.0,5.1006,5.1657,4.8552,4.8003,5.0626,4.8139,4.7124,4.7785,4.7853,4.8225,4.8875,4.8943,4.9627,5.0887,5.4363,5.4769,5.3044,0.0,5.9689,0.0,6.3173,6.254,0.0,6.8176,7.0612,7.1221,7.5202,7.6758,7.6657,0.0,7.4311,7.3127,0.0,7.0804,7.395,0.0,0.0,0.0,0.0,0.0,0.0,0.0,6.6237,0.0,0.0,0.0,0.0,0.0,0.0,0.0,0.0,0.0,0.0,0.0,0.0,0.0,7.0591,7.2532,7.4536,7.6129,7.8987,8.0527,7.9757,7.7765,7.6041,7.4975,7.4389,7.4888,7.6699,7.6779,7.7365,7.8639,7.8759,7.8759,7.8687,7.8759,7.8807,7.8807,7.8807,7.8807,7.8807,7.8807,7.8807,7.8807,7.8807,7.8807,7.8807,7.8807,7.8807,7.8807,7.8807,7.8807,7.8807,7.8807,7.8807,7.8807,4.8301,4.937,5.0403,5.0724,5.2522,5.399,5.4363,5.5972,5.7018,0.0,0.0,0.0,0.0,0.0,0.0,0.0,0.0,0.0,0.0,0.0,0.0,5.2334,5.0405,4.9924,5.1167,4.956,4.8654,4.8537,4.8537,4.8706,4.9011,4.9011,5.1014,5.4676,5.6156,5.8017,6.009,0.0,6.0781,0.0,0.0,0.0,0.0,6.9688,7.3308,7.4322,7.6217,7.7164,7.7515,0.0,7.4931,0.0,0.0,0.0,0.0,0.0,0.0,0.0,0.0,0.0,0.0,0.0,0.0,0.0,6.6024,0.0,6.5571,0.0,0.0,0.0,0.0,0.0,0.0,0.0,6.7184,0.0,0.0,0.0,7.293,7.4856,0.0,0.0,7.8626,7.7292,7.6357,7.6314,7.4504,7.4258,7.6165,7.6288,7.6856,7.819,7.8579,7.8807,7.8807,7.8807,7.8807,7.8807,7.8807,7.8807,7.8807,7.8807,7.8807,7.8807,7.8807,7.8807,7.8807,7.8807,7.8807,7.8807,7.8807,7.8807,7.8807,7.8807,7.8807,7.8867,4.8999,4.9769,5.0692,5.1348,5.2926,5.4224,5.4664,5.6906,5.8326,5.7669,0.0,0.0,5.8262,5.9404,0.0,0.0,0.0,5.9109,0.0,0.0,5.5987,0.0,5.3205,0.0,0.0,5.1514,5.0033,4.9289,4.9086,4.9112,4.9289,4.9289,5.1725,5.6131,5.7442,6.0216,6.3845,0.0,6.3115,6.326,6.4377,6.5256,6.6474,7.1909,7.5337,7.7198,7.7198,7.7548,7.7988,7.7896,7.4987,0.0,7.6657,0.0,0.0,0.0,0.0,0.0,6.644,0.0,0.0,0.0,0.0,0.0,0.0,0.0,0.0,0.0,0.0,0.0,0.0,0.0,0.0,0.0,0.0,6.6812,0.0,6.8256,7.059,0.0,0.0,0.0,0.0,7.6384,7.6053,7.6379,7.4315,7.3875,7.581,7.6048,7.6647,7.7753,7.846,7.8807,7.8807,7.8807,7.8807,7.8807,7.8807,7.8807,7.8807,7.8807,7.8807,7.8807,7.8807,7.8807,7.8807,7.8807,7.8807,7.8807,7.8807,7.8807,7.8807,7.8807,7.8926,7.9148,5.0724,5.0146,5.0372,5.2706,5.3177,5.3767,5.5326,5.6307,5.6845,5.6758,0.0,0.0,0.0,0.0,0.0,0.0,0.0,6.4522,6.2289,0.0,6.1197,0.0,0.0,0.0,0.0,0.0,5.0803,5.0075,4.9357,4.9357,5.0075,5.0075,5.0541,5.1708,5.8244,6.0443,5.9588,6.529,6.8944,7.0962,7.0996,7.3612,7.7109,0.0,7.4762,7.7954,7.7954,0.0,0.0,7.5473,7.4615,0.0,0.0,0.0,0.0,0.0,0.0,0.0,0.0,0.0,0.0,6.5527,0.0,0.0,0.0,0.0,6.6362,0.0,0.0,0.0,0.0,0.0,0.0,0.0,0.0,0.0,0.0,0.0,6.6721,6.9011,0.0,0.0,0.0,7.5009,7.4507,0.0,7.3487,7.3918,7.5802,7.6467,7.7095,7.7801,7.846,7.8807,7.8807,7.8807,7.8807,7.8807,7.8807,7.8807,7.8807,7.8807,7.8807,7.8807,7.8807,7.8807,7.8807,7.8807,7.8807,7.8807,7.8807,7.8807,7.8807,7.8807,7.9208,7.9758,5.148,5.1377,5.1444,5.2271,5.2842,5.411,5.6833,5.8324,0.0,0.0,0.0,0.0,0.0,0.0,6.4512,0.0,0.0,6.5696,6.3971,6.2912,0.0,0.0,0.0,5.734,0.0,0.0,5.2841,5.1555,5.0837,5.0592,5.0837,5.0837,5.1514,5.2968,5.8718,6.2076,6.37,0.0,0.0,0.0,0.0,7.3815,7.6466,0.0,0.0,7.872,7.872,7.9025,0.0,7.8585,7.6995,7.5608,7.7096,7.5879,7.4153,7.5371,7.5078,0.0,0.0,0.0,7.271,6.7963,0.0,0.0,0.0,0.0,0.0,0.0,0.0,0.0,0.0,0.0,0.0,0.0,0.0,0.0,0.0,0.0,6.6349,6.8098,7.1176,7.3043,7.2751,0.0,0.0,0.0,7.4145,0.0,7.5168,7.5856,7.6497,7.7125,7.7801,7.834,7.8807,7.8807,7.8807,7.8807,7.8807,7.8807,7.8807,7.8807,7.8807,7.8807,7.8807,7.8807,7.8807,7.8807,7.8807,7.8807,7.8807,7.8807,7.8807,7.8807,7.8938,7.9267,5.2876,5.29,5.2972,5.3266,5.4423,5.5997,5.8126,5.9716,0.0,0.0,6.4105,0.0,6.5328,0.0,6.6068,0.0,6.7354,6.6971,6.5483,6.4942,0.0,6.5043,6.1975,0.0,0.0,0.0,0.0,5.4296,5.2765,5.2021,5.2013,5.1716,5.2122,5.3281,5.7983,6.1873,6.5155,6.8684,7.1379,0.0,0.0,7.5777,0.0,0.0,7.8585,7.8403,0.0,7.9803,8.0209,8.0209,7.8889,7.7671,7.9917,7.8111,7.5676,7.8145,7.7299,7.5349,7.4289,7.5236,0.0,7.0669,7.1142,0.0,6.6261,0.0,0.0,0.0,0.0,0.0,0.0,0.0,0.0,0.0,0.0,0.0,0.0,6.5324,0.0,6.7387,6.9451,7.1244,7.2349,7.2663,7.3844,7.6373,7.4297,7.3741,7.5647,7.5859,7.6168,7.6779,7.7454,7.813,7.8807,7.8807,7.8807,7.8807,7.8807,7.8807,7.8807,7.8807,7.8807,7.8807,7.8807,7.8807,7.8807,7.8807,7.8807,7.8807,7.8807,7.8807,7.8807,7.8807,7.9088,7.9656,5.4899,5.4679,5.4965,5.5745,5.7637,0.0,0.0,0.0,6.1649,0.0,6.3866,6.5314,6.6768,6.7546,6.8267,6.9045,6.9147,0.0,6.7072,6.6927,0.0,0.0,6.5967,6.5459,6.6859,0.0,0.0,0.0,5.5108,5.3619,5.3577,5.2807,5.2401,5.2536,5.6233,6.0013,6.3893,6.8335,7.2845,7.713,7.8572,7.952,8.004,8.0175,7.8822,7.7198,7.9397,8.0209,8.0209,8.0209,8.0209,8.031,8.1033,8.0796,8.0513,8.1921,8.1832,8.0695,7.7874,7.7604,7.7244,7.3544,0.0,0.0,0.0,0.0,7.0793,0.0,0.0,0.0,0.0,0.0,0.0,0.0,0.0,0.0,0.0,0.0,0.0,0.0,6.7493,6.9543,7.3758,7.0534,7.1054,7.8027,7.396,7.2936,7.7075,7.6315,7.6058,7.6719,7.7394,7.8071,7.8729,7.8759,7.8807,7.8807,7.8807,7.8807,7.8807,7.8807,7.8807,7.8807,7.8807,7.8807,7.8807,7.8807,7.8807,7.8807,7.8807,7.8807,7.8807,7.8837,7.9656,8.0853,5.6239,5.7197,5.8026,0.0,5.8229,5.8808,0.0,0.0,0.0,0.0,6.6541,6.7421,6.8402,6.8673,6.8876,6.9079,6.9597,0.0,0.0,0.0,0.0,7.0353,6.8267,6.7523,6.8504,6.4116,0.0,6.124,0.0,5.5124,5.5124,5.4363,5.3721,5.334,5.6503,6.0597,6.5368,6.8751,7.3421,7.8606,7.952,7.9058,0.0,0.0,7.8822,7.7198,7.9397,8.0209,8.0209,8.0209,8.0209,8.0242,8.0412,8.0729,8.1101,8.1473,8.1439,8.1135,8.039,7.9917,7.8991,7.6386,7.5439,7.4469,0.0,0.0,0.0,0.0,0.0,0.0,0.0,0.0,0.0,0.0,0.0,0.0,0.0,0.0,0.0,6.8358,0.0,0.0,6.7967,7.0372,7.2477,7.3834,7.4075,7.5072,7.7184,0.0,7.4438,7.6083,7.6736,7.7365,7.8041,7.8549,7.8807,7.8807,7.8807,7.8807,7.8807,7.8807,7.8807,7.8807,7.8807,7.8807,7.8807,7.8807,7.8807,7.8807,7.8807,7.8807,7.8867,7.9357,7.9758,8.0207,5.7325,0.0,0.0,5.95,0.0,0.0,6.2105,0.0,0.0,6.6111,6.728,0.0,6.8538,6.944,7.0049,7.0049,7.0737,0.0,0.0,0.0,0.0,7.13,7.0703,7.0578,7.1007,6.7895,0.0,6.4309,0.0,5.7636,5.6621,5.5252,5.4372,5.4126,5.707,6.0385,6.414,6.9755,7.4255,7.7773,7.9498,7.9464,0.0,7.9735,7.9431,7.8517,7.9735,8.0209,8.0209,8.0209,8.0209,8.0209,8.0209,8.0479,8.083,8.083,8.083,8.083,8.083,8.0526,7.9904,7.8653,7.801,7.6995,7.4424,7.4436,7.4774,0.0,0.0,0.0,0.0,0.0,0.0,0.0,0.0,0.0,0.0,0.0,0.0,0.0,6.7993,0.0,6.5837,6.9767,7.2772,7.3662,7.4155,7.4997,7.635,7.4486,7.413,7.5831,7.5946,7.6574,7.7801,7.7873,7.822,7.8807,7.8807,7.8807,7.8807,7.8807,7.8807,7.8807,7.8807,7.8807,7.8807,7.8807,7.8807,7.8807,7.8807,7.8807,7.8878,7.9548,7.9997,8.0345,5.8363,0.0,0.0,0.0,0.0,0.0,0.0,6.4096,0.0,6.5977,0.0,6.8335,6.8335,7.0184,7.1436,7.1436,0.0,7.1988,7.0714,7.2439,7.2947,7.1639,7.2902,7.3624,7.3624,7.209,0.0,0.0,0.0,6.0182,5.7721,5.5793,5.4846,5.4871,5.7737,6.0341,6.3149,7.13,7.5337,7.6521,7.9126,8.0209,8.0209,8.0209,8.0209,8.0209,8.0209,8.0209,8.0209,8.0209,8.0209,8.0209,8.0209,8.0209,8.0209,8.0209,8.0209,8.0209,8.0209,8.0209,8.0209,8.0209,8.0209,7.9498,7.6893,7.6826,7.713,7.642,7.5281,7.5484,0.0,0.0,0.0,0.0,0.0,0.0,0.0,0.0,0.0,0.0,0.0,0.0,0.0,6.9233,7.2362,7.4815,7.3861,7.3789,7.5232,7.4209,7.4249,7.5729,7.5365,7.5874,7.7412,7.7185,7.7544,7.8519,7.8717,7.8807,7.8807,7.8807,7.8807,7.8807,7.8807,7.8807,7.8807,7.8807,7.8807,7.8807,7.8807,7.8807,7.8867,7.9429,8.0087,8.0704,5.9831,0.0,0.0,0.0,0.0,6.4884,6.6846,6.7117,6.7455,6.8368,6.9778,7.0692,7.0692,7.1605,7.2225,7.2225,7.2879,0.0,0.0,0.0,0.0,7.3116,7.395,7.4412,7.4412,7.2383,7.0117,0.0,0.0,6.0428,5.6968,5.6596,5.608,5.5597,5.7974,6.2936,6.9812,7.3815,7.7029,7.9464,8.0006,8.0209,8.0209,8.0209,8.0209,8.0209,8.0209,8.0209,8.0209,8.0209,8.0209,8.0209,8.0209,8.0209,8.0209,8.0209,8.0209,8.0209,8.0209,8.0209,8.0209,8.0209,8.0209,8.0073,7.9532,7.9532,7.9566,7.9431,7.9194,7.872,7.7671,0.0,0.0,0.0,0.0,0.0,0.0,0.0,0.0,0.0,0.0,0.0,0.0,7.0355,7.1906,7.121,7.203,7.3343,7.5194,7.2848,7.2559,0.0,7.5976,0.0,0.0,0.0,7.8011,7.7155,7.828,7.8807,7.8807,7.8807,7.8807,7.8807,7.8807,7.8807,7.8807,7.8807,7.8807,7.8807,7.8807,7.8807,7.8807,7.8938,7.9417,8.0117,0.0,0.0,0.0,0.0,0.0,0.0,0.0,7.0297,0.0,7.0286,7.0861,7.13,7.13,7.2293,7.2981,7.2981,7.3646,7.4052,7.4052,7.4424,7.4639,7.4639,7.4965,0.0,7.5168,0.0,7.1921,6.8504,0.0,6.2584,5.8481,5.7712,5.7171,5.7002,6.0375,6.4536,6.9271,7.3781,0.0,7.801,7.9566,8.0209,8.0209,8.0209,8.0209,8.0209,8.0209,8.0209,8.0209,8.0209,8.0209,8.0209,8.0209,8.0209,8.0209,8.0209,8.0209,8.0209,8.0209,8.0209,8.0209,8.0209,8.0209,8.0209,8.0209,8.0209,8.0209,8.0209,8.0513,8.0086,7.7874,7.5574,0.0,0.0,0.0,0.0,0.0,0.0,0.0,0.0,0.0,0.0,0.0,0.0,7.2372,7.0872,7.1785,7.3251,7.5208,7.2867,7.2517,0.0,0.0,0.0,7.5886,0.0,7.7801,7.7861,7.8489,7.8807,7.8807,7.8807,7.8807,7.8807,7.8807,7.8807,7.8807,7.8807,7.8807,7.8807,7.8807,7.8998,7.9297,7.8938,7.9238,7.9937,0.0,6.4333,0.0,0.0,6.8019,0.0,7.1233,7.28,7.3274,7.1943,7.1774,7.1774,7.1774,7.2935,7.3725,7.3725,7.4424,7.4818,7.4818,7.5371,7.5709,7.5709,7.5709,7.5777,7.5946,7.5946,7.4018,0.0,0.0,0.0,6.0791,5.9142,5.8804,5.9718,6.3429,6.643,0.0,0.0,7.6082,7.686,7.9228,8.0209,8.0209,8.0209,8.0209,8.0209,8.0209,8.0209,8.0209,8.0209,8.0209,8.0209,8.0209,8.0209,8.0209,8.0209,8.0209,8.0209,8.0209,8.0209,8.0209,8.0209,8.0209,8.0209,8.0209,8.031,8.0412,8.0412,8.1169,8.0999,7.8462,7.6838,0.0,0.0,0.0,0.0,0.0,0.0,0.0,0.0,0.0,0.0,0.0,0.0,7.2056,7.2011,7.2247,7.3119,7.4799,7.3515,0.0,0.0,0.0,7.5729,7.643,0.0,7.7604,7.837,7.8639,7.8807,7.8807,7.8807,7.8807,7.8807,7.8807,7.8807,7.8807,7.8807,7.8807,7.8807,7.8807,7.9118,7.9519,7.8998,7.9118,7.9698,0.0,0.0,0.0,0.0,0.0,0.0,7.2157,7.3533,7.4221,7.3387,7.3285,7.3285,7.3285,7.4018,7.448,7.448,7.5168,7.5608,7.5608,7.5676,7.5709,7.5709,7.5709,7.6048,7.6758,7.6792,7.5574,0.0,0.0,6.6937,6.3149,6.0917,6.1704,6.503,6.6102,6.9677,0.0,7.5473,7.7266,7.9803,8.0073,8.0209,8.0209,8.0209,8.0209,8.0209,8.0209,8.0209,8.0209,8.0209,8.0209,8.0209,8.0209,8.0209,8.0209,8.0209,8.0209,8.0209,8.0209,8.0209,8.0209,8.0209,8.0209,8.0209,8.0209,8.0729,8.1202,8.1202,8.2319,8.2205,7.8665,8.1054,8.1583,0.0,0.0,0.0,0.0,0.0,0.0,0.0,0.0,0.0,0.0,7.0522,6.9339,7.3939,7.3127,7.2718,7.3448,7.4563,0.0,7.7202,7.7022,7.6356,7.5278,7.7487,7.8071,7.7006,7.822,7.8807,7.8807,7.8807,7.8807,7.8807,7.8807,7.8807,7.8807,7.8807,7.8807,7.8807,7.8807,7.8837,7.8878,7.8819,7.8819,7.9058,0.0,0.0,0.0,0.0,0.0,0.0,0.0,7.4897,7.5134,7.4875,7.4808,7.4808,7.4808,7.5067,7.527,7.527,7.554,7.5912,7.6386,7.642,7.6623,7.7075,7.7075,7.7244,7.7536,7.7548,7.642,0.0,0.0,0.0,6.4783,6.3879,6.5233,6.8515,7.1007,7.3477,7.5811,7.7638,7.9092,8.0209,8.0209,8.0209,8.0209,8.0209,8.0209,8.0209,8.0209,8.0209,8.0209,8.0209,8.0209,8.0209,8.0209,8.0209,8.0209,8.0209,8.0209,8.0209,8.0209,8.0209,8.0209,8.0209,8.0209,8.0209,8.0209,8.0763,8.1169,8.0729,8.1799,8.2665,8.2056,8.1955,8.165,0.0,0.0,0.0,0.0,0.0,0.0,0.0,0.0,0.0,0.0,0.0,7.1977,7.3195,7.024,6.9814,7.3116,7.2947,0.0,7.5443,0.0,7.6715,7.6289,7.7966,7.8519,7.8011,7.8549,7.8807,7.8807,7.8807,7.8807,7.8807,7.8807,7.8807,7.8807,7.8807,7.8807,7.8807,7.8807,7.9058,7.9357,7.8938,7.9058,7.9417,7.1842,0.0,7.1797,0.0,7.3713,7.3883,7.5473,7.5709,7.5777,7.6014,7.6048,7.6048,7.6048,7.6048,7.6149,7.6364,7.6398,7.6635,7.721,7.7232,7.7447,7.7988,7.7988,0.0,7.8327,7.8314,7.7638,7.6239,7.3274,0.0,6.8616,6.777,6.8954,7.1932,7.4537,7.6183,7.7164,7.9295,8.0209,8.0209,8.0209,8.031,8.0513,8.0513,8.0513,8.0513,8.0513,8.0378,8.0209,8.0209,8.0209,8.0209,8.0209,8.0209,8.0209,8.0209,8.0209,8.0209,8.0209,8.0209,8.0209,8.0209,8.0209,8.0209,8.0209,8.0763,8.1202,8.0919,8.1697,8.2767,8.4052,8.2564,8.1629,8.3071,0.0,0.0,0.0,0.0,0.0,0.0,0.0,8.1042,8.0276,7.6014,0.0,7.4322,7.0601,7.0096,7.4127,0.0,0.0,0.0,0.0,0.0,7.7368,7.8329,7.8807,7.8807,7.8807,7.8807,7.8807,7.8807,7.8807,7.8807,7.8807,7.8807,7.8807,7.8807,7.8807,7.8807,7.8807,7.9088,7.9459,7.9208,7.9267,7.9489,7.3184,7.3454,7.3928,7.5405,7.5676,7.5676,7.5709,7.5709,7.598,7.6792,7.6893,7.6893,7.6893,7.6893,7.7164,7.7921,7.7954,7.7988,7.7988,7.7988,7.7988,0.0,0.0,7.8348,7.908,7.908,7.9418,8.0141,0.0,0.0,7.5506,7.2586,7.28,7.5642,7.5676,7.7367,8.0141,8.0175,8.0209,8.0209,8.0209,8.0661,8.127,8.127,8.127,8.127,8.127,8.083,8.0209,8.0209,8.0209,8.0209,8.0209,8.0209,8.0209,8.0209,8.0209,8.0209,8.0209,8.0209,8.0209,8.0209,8.0209,8.0209,8.0209,8.0763,8.1507,8.2225,8.2395,8.2644,8.3389,8.349,8.2746,8.0615,0.0,0.0,0.0,0.0,0.0,0.0,7.633,7.5349,7.9769,7.4165,0.0,7.8572,7.6205,7.5178,7.6768,0.0,0.0,8.0809,7.9006,0.0,7.8,7.8523,7.8807,7.8807,7.8807,7.8807,7.8807,7.8807,7.8807,7.8807,7.8807,7.8807,7.8807,7.8807,7.8807,7.8807,7.8807,7.8807,7.8878,7.9548,7.9369,7.9016,7.4897,7.4999,7.5146,7.5608,7.6149,7.6521,7.6521,7.6927,7.7345,7.7616,7.765,7.7841,7.8336,7.7942,7.7751,0.0,7.7988,7.8225,0.0,7.8754,7.8957,7.9477,7.9498,7.96,7.9837,7.987,7.9972,8.0209,0.0,0.0,0.0,7.4728,7.5912,7.8754,7.8754,7.9295,8.0209,8.0209,8.0209,8.0242,8.0763,8.1101,8.1338,8.1866,8.2069,8.2069,8.2069,8.19,8.1684,8.1684,8.1684,8.1684,8.1684,8.1359,8.0864,8.0344,8.056,8.083,8.0344,8.0209,8.0209,8.0209,8.0209,8.0209,8.0209,8.0378,8.0885,8.2124,8.2395,8.2644,8.3355,8.393,8.4018,8.3308,8.3971,0.0,0.0,0.0,0.0,0.0,0.0,8.1617,0.0,7.9012,0.0,0.0,7.4345,0.0,0.0,0.0,0.0,0.0,7.9986,0.0,7.8017,7.9694,7.998,7.8807,7.8807,7.8807,7.8807,7.8807,7.8807,7.8807,7.8807,7.8807,7.8807,7.8807,7.8807,7.8807,7.8807,7.8807,7.8837,7.9028,7.8968,7.8867,7.5743,7.6161,7.6499,7.6183,7.6792,7.7299,7.7299,7.7718,7.809,7.8382,7.8416,7.8686,7.9418,7.9092,0.0,7.8834,7.8834,7.9025,7.9486,7.952,7.9735,8.0175,8.0209,8.0209,8.0209,8.0209,0.0,8.0209,7.8314,7.7401,7.7401,7.7401,7.8382,8.0209,8.0209,8.0209,8.0209,8.0209,8.0344,8.0648,8.1101,8.1642,8.2184,8.2644,8.28,8.28,8.28,8.2631,8.2395,8.2395,8.2238,8.2002,8.2002,8.1663,8.1202,8.0763,8.0932,8.1135,8.0412,8.0209,8.0276,8.0547,8.0615,8.0695,8.0953,8.1021,8.1291,8.2192,8.2395,8.2644,8.3355,8.4086,8.4681,8.4999,8.527,8.5459,8.5459,0.0,0.0,0.0,0.0,0.0,0.0,8.0872,7.9587,0.0,0.0,0.0,0.0,0.0,0.0,8.0053,8.1494,0.0,7.9307,8.0676,8.0544,7.8807,7.8807,7.8807,7.8807,7.8807,7.8807,7.8807,7.8807,7.8807,7.8807,7.8807,7.8807,7.8807,7.8807,7.8807,7.8819,7.9088,7.8998,7.8837,7.6014,7.7007,7.7785,0.0,7.7582,0.0,7.809,7.8124,7.8382,7.908,7.9181,7.9418,8.0141,8.0209,8.0209,8.0209,0.0,0.0,0.0,8.0209,8.0209,8.0209,8.0209,8.0209,8.0209,8.0209,8.0209,8.0209,8.0209,8.0209,8.0209,8.0209,8.0209,8.0209,8.0209,8.0209,8.0209,8.0242,8.0661,8.1304,8.1405,8.2285,8.349,8.3558,8.3524,8.349,8.349,8.305,8.2462,8.2428,8.2002,8.1507,8.1473,8.1473,8.1507,8.127,8.127,8.1135,8.0412,8.0209,8.0344,8.1033,8.127,8.1473,8.2171,8.2361,8.2395,8.2395,8.2428,8.2699,8.3355,8.4086,8.4864,8.5587,8.6298,8.6758,8.6825,0.0,0.0,0.0,0.0,0.0,0.0,8.0513,8.1562,0.0,0.0,0.0,0.0,0.0,7.8478,8.413,8.3565,8.2619,8.1505,8.155,8.0635,7.8807,7.8807,7.8807,7.8807,7.8807,7.8807,7.8807,7.8807,7.8807,7.8807,7.8807,7.8807,7.8807,7.8807,7.8807,7.8878,7.9489,7.9357,7.8878,0.0,0.0,7.7954,7.7785,7.8348,7.8855,7.8855,7.9329,7.9735,7.9904,7.9938,8.0006,8.0175,8.0209,8.0209,8.0209,8.0209,8.0209,8.0209,8.0209,8.0209,8.0209,8.0209,8.0209,8.0209,8.0209,8.0209,8.0209,8.0209,8.0209,8.0209,8.0209,8.0209,8.0209,8.0209,8.0209,8.0242,8.0796,8.1135,8.1405,8.2522,8.3186,8.3558,8.412,8.3984,8.349,8.349,8.3389,8.3152,8.2598,8.3037,8.3714,8.3152,8.3389,8.3375,8.1122,8.0864,8.1135,8.0412,8.0209,8.0242,8.0412,8.0898,8.1338,8.1507,8.2002,8.2395,8.2395,8.2847,8.3287,8.3456,8.4086,8.4647,8.4864,8.5019,8.5371,8.596,8.554,8.5033,0.0,8.42,8.3748,8.3578,8.3578,8.2902,0.0,0.0,8.215,8.2353,8.1327,8.1837,8.424,8.5919,8.5373,8.2507,8.3079,8.1838,7.8807,7.8807,7.8807,7.8807,7.8807,7.8807,7.8807,7.8807,7.8807,7.8807,7.8807,7.8807,7.8807,7.8807,7.8807,7.8819,7.8968,7.8956,7.8819,7.8056,7.853,7.8889,7.8551,7.9126,7.96,7.96,7.9938,8.0209,8.0209,8.0209,8.0209,8.0209,8.0209,8.0209,8.0209,8.0209,8.0209,8.0209,8.0209,8.0209,8.0209,8.0209,8.0209,8.0209,8.0209,8.0209,8.0209,8.0209,8.0209,8.0209,8.0209,8.0209,8.0209,8.0209,8.0378,8.0729,8.1135,8.1676,8.2387,8.3186,8.3693,8.4052,8.4458,8.4356,8.3984,8.3984,8.3984,8.395,8.3545,8.3714,8.4018,8.3625,8.3545,8.3274,8.1697,8.1731,8.2082,8.0999,8.0695,8.0695,8.0695,8.127,8.19,8.2218,8.2611,8.3003,8.3342,8.3714,8.3984,8.3984,8.4627,8.5148,8.5148,8.5439,8.5811,8.623,8.5912,8.5675,8.5804,8.5418,8.4999,8.4647,8.4614,8.3937,8.2327,8.2915,0.0,8.3368,8.437,8.5275,8.5973,8.7301,8.686,8.45,8.3369,8.148,7.8807,7.8807,7.8807,7.8807,7.8807,7.8807,7.8807,7.8807,7.8807,7.8807,7.8807,7.8807,7.8807,7.8807,7.8807,7.8807,7.8807,7.8998,7.9208,7.8462,7.9342,8.0006,7.9384,7.9769,8.0209,8.0209,8.0209,8.0209,8.0209,8.0209,8.0209,8.0209,8.0209,8.0209,8.0209,8.0209,8.0209,8.0209,8.0209,8.0209,8.0209,8.0209,8.0209,8.0209,8.0209,8.0209,8.0209,8.0209,8.0209,8.0209,8.0209,8.0209,8.0209,8.031,8.0729,8.1304,8.1541,8.2353,8.3524,8.3625,8.4052,8.4614,8.4614,8.4512,8.4424,8.4424,8.4424,8.4411,8.4323,8.3984,8.3659,8.3524,8.3152,8.2733,8.2733,8.3172,8.3355,8.1879,8.1473,8.1473,8.1473,8.2002,8.2733,8.3355,8.3592,8.3862,8.4478,8.4614,8.4614,8.4614,8.5182,8.5567,8.533,8.5993,8.6521,8.6386,8.6487,8.6366,8.5872,8.5702,8.5351,8.4661,8.4614,8.4647,8.4749,8.5317,8.5736,8.5939,8.7144,8.7888,8.7989,8.8091,8.7529,8.6133,8.3219,8.0791,7.8807,7.8807,7.8807,7.8807,7.8807,7.8807,7.8807,7.8807,7.8807,7.8807,7.8807,7.8807,7.8807,7.8807,7.8807,7.8807,7.8807,7.9238,7.9728,7.987,8.004,8.0175,8.004,8.0107,8.0209,8.0209,8.0209,8.0209,8.0209,8.0209,8.0209,8.0209,8.0209,8.0209,8.0209,8.0209,8.0209,8.0209,8.0209,8.0209,8.0209,8.0209,8.0209,8.0209,8.0209,8.0209,8.0209,8.0209,8.0209,8.0209,8.0209,8.0209,8.0209,8.0864,8.1202,8.1372,8.2624,8.3287,8.3558,8.4187,8.4492,8.4614,8.4614,8.4221,8.3659,8.3659,8.3659,8.3592,8.2936,8.3477,8.4323,8.3693,8.3849,8.4242,8.4242,8.4343,8.412,8.2631,8.2238,8.2238,8.2238,8.278,8.3355,8.3456,8.3984,8.4444,8.458,8.4614,8.4614,8.4614,8.4681,8.439,8.3152,8.4086,8.4728,8.4133,8.4559,8.5168,8.5736,8.5215,8.4762,8.4614,8.4614,8.4898,8.5567,8.51,8.5337,8.6656,8.6961,8.738,8.7989,8.8612,8.7458,8.4426,8.3866,8.199,7.8807,7.8807,7.8807,7.8807,7.8807,7.8807,7.8807,7.8807,7.8807,7.8807,7.8807,7.8807,7.8807,7.8807,7.8807,7.8807,7.8807,7.9238,7.9788,8.0209,8.0209,8.0209,8.0209,8.0209,8.0209,8.0209,8.0209,8.0209,8.0209,8.0209,8.0209,8.0209,8.0209,8.0209,8.0209,8.0209,8.0209,8.0209,8.0209,8.0209,8.0209,8.0209,8.0209,8.0209,8.0209,8.0209,8.0209,8.0209,8.0209,8.0209,8.0627,8.0796,8.0796,8.1135,8.1744,8.2488,8.278,8.3375,8.412,8.4444,8.4614,8.4614,8.4614,8.4377,8.4086,8.4086,8.4086,8.4052,8.3714,8.4039,8.4546,8.4187,8.4323,8.4614,8.4614,8.4323,8.3849,8.3186,8.2699,8.2395,8.2395,8.2665,8.3016,8.3422,8.3761,8.412,8.4512,8.4614,8.4614,8.4614,8.4614,8.4377,8.37,8.414,8.4492,8.4153,8.439,8.4762,8.5114,8.483,8.4614,8.4614,8.4614,8.4749,8.5148,8.5215,8.5554,8.6264,8.7076,8.7651,8.7989,8.8714,8.7882,8.5382,8.4457,8.2725,8.0178,7.9261,7.8807,7.8807,7.8807,7.8807,7.8807,7.8807,7.8807,7.8807,7.8807,7.8807,7.8807,7.8807,7.8807,7.8807,7.8807,7.9238,7.9788,8.0209,8.0209,8.0209,8.0209,8.0209,8.0209,8.0209,8.0209,8.0209,8.0209,8.0209,8.0209,8.0209,8.0209,8.0209,8.0209,8.0209,8.0209,8.0209,8.0209,8.0209,8.0209,8.0209,8.0209,8.0209,8.0209,8.0209,8.0209,8.0209,8.0276,8.0445,8.0864,8.1135,8.1317,8.1473,8.2184,8.3219,8.3003,8.3565,8.4614,8.4614,8.4614,8.4614,8.4614,8.4614,8.4614,8.4614,8.4614,8.4614,8.4614,8.4614,8.4614,8.4614,8.4614,8.4614,8.4614,8.4187,8.3761,8.3761,8.3342,8.2902,8.2902,8.2902,8.3071,8.3625,8.3761,8.393,8.4478,8.4614,8.4614,8.4614,8.4614,8.4478,8.414,8.4377,8.4478,8.414,8.4377,8.4614,8.4614,8.4614,8.4614,8.4614,8.4614,8.4681,8.4864,8.5452,8.5872,8.6041,8.7279,8.8091,8.826,8.8815,8.8262,8.6528,8.4852,8.312,8.1377,7.964,7.8807,7.8807,7.8807,7.8807,7.8807,7.8807,7.8807,7.8807,7.8807,7.8807,7.8807,7.8807,7.8807,7.8807,7.8807,7.9327,7.9997,8.0209,8.0209,8.0209,8.0209,8.0209,8.0209,8.0209,8.0209,8.0209,8.0209,8.0209,8.0209,8.0209,8.0209,8.0209,8.0209,8.0209,8.0209,8.0209,8.0209,8.0209,8.0209,8.0209,8.0209,8.0209,8.0209,8.0209,8.0209,8.0209,8.056,8.1202,8.0593,8.0661,8.1338,8.2002,8.2361,8.2564,8.3883,8.4512,8.4614,8.4614,8.4614,8.4614,8.4614,8.4614,8.4614,8.4614,8.4614,8.4614,8.4614,8.4614,8.4614,8.4614,8.4614,8.4614,8.4614,8.4546,8.4512,8.4512,8.4478,8.4444,8.4444,8.4444,8.4444,8.4512,8.4512,8.4512,8.458,8.4614,8.4614,8.4614,8.4614,8.414,8.2767,8.3714,8.4106,8.2767,8.3748,8.4614,8.4614,8.4614,8.4614,8.4614,8.4614,8.4898,8.5669,8.577,8.6108,8.6792,8.7583,8.8294,8.8984,8.9052,8.8262,8.6528,8.4852,8.312,8.1377,7.964,7.8807,7.8807,7.8807,7.8807,7.8807,7.8807,7.8807,7.8807,7.8807,7.8807,7.8807,7.8807,7.8807,7.8807,7.8807,7.9627,8.0644,8.0209,8.0209,8.0209,8.0209,8.0209,8.0209,8.0209,8.0209,8.0209,8.0209,8.0209,8.0209,8.0209,8.0209,8.0209,8.0209,8.0209,8.0209,8.0209,8.0209,8.0209,8.0209,8.0209,8.0209,8.0209,8.0209,8.0412,8.0898,8.0412,8.0581,8.1304,8.0999,8.127,8.2002,8.2259,8.2902,8.3781,8.3883,8.4187,8.4614,8.4614,8.4614,8.4614,8.4614,8.4614,8.4614,8.4614,8.4614,8.4614,8.4614,8.4614,8.4614,8.4614,8.4614,8.4614,8.4614,8.4614,8.4614,8.4614,8.4614,8.4614,8.4614,8.4614,8.4614,8.4614,8.4614,8.4614,8.4614,8.4614,8.4614,8.4614,8.4614,8.4411,8.3849,8.4242,8.4411,8.3849,8.4242,8.4614,8.4614,8.4614,8.4614,8.4614,8.4614,8.4931,8.5736,8.5804,8.6311,8.7516,8.8274,8.8815,8.9086,8.9086,8.8785,8.8132,8.5382,8.3673,8.2972,8.0143,7.8807,7.8807,7.8807,7.8807,7.8807,7.8807,7.8807,7.8807,7.8807,7.8807,7.8807,7.8807,7.8807,7.8807,7.8807,7.9136,7.9627,8.0209,8.0209,8.0209,8.0209,8.0209,8.0209,8.0209,8.0209,8.0209,8.0209,8.0209,8.0209,8.0209,8.0209,8.0209,8.0209,8.0209,8.0209,8.0209,8.0209,8.0209,8.0209,8.0209,8.0209,8.0209,8.0209,8.0445,8.0966,8.0445,8.0581,8.1304,8.1304,8.1697,8.2395,8.2631,8.3308,8.4255,8.395,8.4153,8.4614,8.4614,8.4614,8.4614,8.4614,8.4614,8.4614,8.4614,8.4614,8.4614,8.4614,8.4614,8.4614,8.4614,8.4614,8.4614,8.4614,8.4614,8.4614,8.4614,8.4614,8.4614,8.4614,8.4614,8.4614,8.4614,8.4614,8.4614,8.4614,8.4614,8.4614,8.4614,8.4614,8.4614,8.4614,8.4614,8.4614,8.4614,8.4614,8.4614,8.4614,8.4614,8.4614,8.4614,8.4614,8.4931,8.5736,8.6007,8.6785,8.8274,8.8815,8.9086,8.9086,8.9086,8.9086,8.9086,8.569,8.4011,8.3963,8.0461,7.8807,7.8807,7.8807,7.8807,7.8807,7.8807,7.8807,7.8807,7.8807,7.8807,7.8807,7.8807,7.8807,7.8807,7.8807,7.8938,7.9208,8.0209,8.0209,8.0209,8.0209,8.0209,8.0209,8.0209,8.0209,8.0209,8.0209,8.0209,8.0209,8.0209,8.0209,8.0209,8.0209,8.0209,8.0209,8.0209,8.0209,8.0209,8.0209,8.0209,8.0209,8.0209,8.0209,8.0209,8.0209,8.0209,8.0581,8.1304,8.1304,8.171,8.2428,8.3186,8.349,8.3558,8.4289,8.4614,8.4614,8.4614,8.4614,8.4614,8.4614,8.4614,8.4614,8.4614,8.4614,8.4614,8.4614,8.4614,8.4614,8.4614,8.4614,8.4614,8.4614,8.4614,8.4614,8.4614,8.4614,8.4614,8.4614,8.4614,8.4614,8.4614,8.4614,8.4614,8.4614,8.4614,8.4614,8.4614,8.4614,8.4614,8.4614,8.4614,8.4614,8.4614,8.4614,8.4614,8.4614,8.4614,8.4614,8.4614,8.4614,8.4931,8.5736,8.6501,8.755,8.9018,8.9086,8.9086,8.9086,8.9086,8.9086,8.9086,8.569,8.4011,8.3963,8.0461,7.8807,7.8807,7.8807,7.8807,7.8807,7.8807,7.8807,7.8807,7.8807,7.8807,7.8807,7.8807,7.8807,7.8807,7.8807,7.9238,7.9698,8.0209,8.0209,8.0209,8.0209,8.0209,8.0209,8.0209,8.0209,8.0209,8.0209,8.0209,8.0209,8.0209,8.0209,8.0209,8.0209,8.0209,8.0209,8.0209,8.0209,8.0209,8.0209,8.0209,8.0209,8.0209,8.0209,8.0445,8.0966,8.0445,8.0851,8.2069,8.1541,8.1981,8.3186,8.3389,8.3795,8.4289,8.4512,8.4614,8.4614,8.4614,8.4614,8.4614,8.4614,8.4614,8.4614,8.4614,8.4614,8.4614,8.4614,8.4614,8.4614,8.4614,8.4614,8.4614,8.4614,8.4614,8.4614,8.4614,8.4614,8.4614,8.4614,8.4614,8.4614,8.4614,8.4614,8.4614,8.4614,8.4614,8.4614,8.4614,8.4614,8.4614,8.4614,8.4614,8.4614,8.4614,8.4614,8.4614,8.4614,8.4614,8.4614,8.4614,8.51,8.5757,8.6501,8.7719,8.8646,8.9086,8.9086,8.9086,8.9086,8.9086,8.9086,8.9086,8.569,8.4011,8.3963,8.0461,7.8807,7.8807,7.8807,7.8807,7.8807,7.8807,7.8807,7.8807,7.8807,7.8807,7.8807,7.8807,7.8807,7.8807,7.8807,7.8926,7.9148,8.0209,8.0209,8.0209,8.0209,8.0209,8.0209,8.0209,8.0209,8.0209,8.0209,8.0209,8.0209,8.0209,8.0209,8.0209,8.0209,8.0209,8.0209,8.0209,8.0209,8.0209,8.0209,8.0209,8.0209,8.0209,8.0209,8.0412,8.0864,8.0412,8.0648,8.1515,8.1663,8.2205,8.3084,8.3659,8.4187,8.4614,8.4614,8.4614,8.4614,8.4614,8.4614,8.4614,8.4614,8.4614,8.4614,8.4614,8.4614,8.4614,8.4614,8.4614,8.4614,8.4614,8.4614,8.4614,8.4614,8.4614,8.4614,8.4614,8.4614,8.4614,8.4614,8.4614,8.4614,8.4614,8.4614,8.4614,8.4614,8.4614,8.4614,8.4614,8.4614,8.4614,8.4614,8.4614,8.4614,8.4614,8.4614,8.4614,8.4614,8.4614,8.4614,8.4614,8.5317,8.6244,8.7279,8.8429,8.9086,8.9086,8.9086,8.9086,8.9086,8.9086,8.9086,8.9086,8.569,8.4011,8.3963,8.0461,7.8807,7.8807,7.8807,7.8807,7.8807,7.8807,7.8807,7.8807,7.8807,7.8807,7.8807,7.8807,7.8807,7.8807,7.8807,7.8807,7.8867,8.0209,8.0209,8.0209,8.0209,8.0209,8.0209,8.0209,8.0209,8.0209,8.0209,8.0209,8.0209,8.0209,8.0209,8.0209,8.0209,8.0209,8.0209,8.0209,8.0209,8.0209,8.0209,8.0209,8.0209,8.0209,8.0209,8.0209,8.0209,8.0209,8.0276,8.0412,8.1752,8.2462,8.2665,8.4005,8.4614,8.4614,8.4614,8.4614,8.4614,8.4614,8.4614,8.4614,8.4614,8.4614,8.4614,8.4614,8.4614,8.4614,8.4614,8.4614,8.4614,8.4614,8.4614,8.4614,8.4614,8.4614,8.4614,8.4614,8.4614,8.4614,8.4614,8.4614,8.4614,8.4614,8.4614,8.4614,8.4614,8.4614,8.4614,8.4614,8.4614,8.4614,8.4614,8.4614,8.4614,8.4614,8.4614,8.4614,8.4614,8.4614,8.4614,8.4614,8.5384,8.6514,8.7989,8.8714,8.9086,8.9086,8.9086,8.9086,8.9086,8.9086,8.9086,8.9086,8.5876,8.4155,8.3963,8.0461,7.8807,7.8807,7.8807,7.8807,7.8807,7.8807,7.8807,7.8807,7.8807,7.8807,7.8807,7.8807,7.8807,7.8807,7.8807,7.8807,7.8807,8.0209,8.0209,8.0209,8.0209,8.0209,8.0209,8.0209,8.0209,8.0209,8.0209,8.0209,8.0209,8.0209,8.0209,8.0209,8.0209,8.0209,8.0209,8.0209,8.0209,8.0209,8.0209,8.0209,8.0209,8.0209,8.0209,8.0209,8.0209,8.0209,8.0784,8.1921,8.2259,8.3003,8.414,8.4444,8.4614,8.4614,8.4614,8.4614,8.4614,8.4614,8.4614,8.4614,8.4614,8.4614,8.4614,8.4614,8.4614,8.4614,8.4614,8.4614,8.4614,8.4614,8.4614,8.4614,8.4614,8.4614,8.4614,8.4614,8.4614,8.4614,8.4614,8.4614,8.4614,8.4614,8.4614,8.4614,8.4614,8.4614,8.4614,8.4614,8.4614,8.4614,8.4614,8.4614,8.4614,8.4614,8.4614,8.4614,8.4614,8.4614,8.4614,8.4614,8.5845,8.7279,8.8748,8.9018,8.9086,8.9086,8.9086,8.9086,8.9086,8.9086,8.9086,8.9086,8.7009,8.5304,8.3963,8.0461,7.8807,7.8807,7.8807,7.8807,7.8807,7.8807,7.8807,7.8807,7.8807,7.8807,7.8807,7.8807,7.8807,7.8807,7.8807,7.8807,7.8807,8.0209,8.0209,8.0209,8.0209,8.0209,8.0209,8.0209,8.0209,8.0209,8.0209,8.0209,8.0209,8.0209,8.0209,8.0209,8.0209,8.0209,8.0209,8.0209,8.0209,8.0209,8.0209,8.0209,8.0209,8.0209,8.0209,8.0209,8.0209,8.0209,8.0784,8.1866,8.2225,8.3003,8.4086,8.4444,8.4614,8.4614,8.4614,8.4614,8.4614,8.4614,8.4614,8.4614,8.4614,8.4614,8.4614,8.4614,8.4614,8.4614,8.4614,8.4614,8.4614,8.4614,8.4614,8.4614,8.4614,8.4614,8.4614,8.4614,8.4614,8.4614,8.4614,8.4614,8.4614,8.4614,8.4614,8.4614,8.4614,8.4614,8.4614,8.4614,8.4614,8.4614,8.4614,8.4614,8.4614,8.4614,8.4614,8.4614,8.4614,8.4614,8.4884,8.5642,8.6724,8.7888,8.9018,8.9086,8.9086,8.9086,8.9086,8.9086,8.9086,8.9086,8.9086,8.9086,8.7382,8.566,8.3963,8.1309,7.9605,7.8807,7.8807,7.8807,7.8807,7.8807,7.8807,7.8807,7.8807,7.8807,7.8807,7.8807,7.8807,7.8807,7.8807,7.8807,7.8807,8.0209,8.0209,8.0209,8.0209,8.0209,8.0209,8.0209,8.0209,8.0209,8.0209,8.0209,8.0209,8.0209,8.0209,8.0209,8.0209,8.0209,8.0209,8.0209,8.0209,8.0209,8.0209,8.0209,8.0209,8.0209,8.0209,8.0209,8.0209,8.0209,8.0648,8.1507,8.2103,8.2868,8.3727,8.4323,8.4614,8.4614,8.4614,8.4614,8.4614,8.4614,8.4614,8.4614,8.4614,8.4614,8.4614,8.4614,8.4614,8.4614,8.4614,8.4614,8.4614,8.4614,8.4614,8.4614,8.4614,8.4614,8.4614,8.4614,8.4614,8.4614,8.4614,8.4614,8.4614,8.4614,8.4614,8.4614,8.4614,8.4614,8.4614,8.4614,8.4614,8.4614,8.4614,8.4614,8.4614,8.4614,8.4614,8.4614,8.4614,8.4715,8.5371,8.6758,8.7583,8.8294,8.9052,8.9086,8.9086,8.9086,8.9086,8.9086,8.9086,8.9086,8.9086,8.9086,8.766,8.5951,8.3995,8.251,8.0773,7.8807,7.8807,7.8807,7.8807,7.8807,7.8807,7.8807,7.8807,7.8807,7.8807,7.8807,7.8807,7.8807,7.8807,7.8807,7.8807,8.0209,8.0209,8.0209,8.0209,8.0209,8.0209,8.0209,8.0209,8.0209,8.0209,8.0209,8.0209,8.0209,8.0209,8.0209,8.0209,8.0209,8.0209,8.0209,8.0209,8.0209,8.0209,8.0209,8.0209,8.0209,8.0209,8.0209,8.0209,8.0209,8.0885,8.2259,8.2361,8.3139,8.4444,8.4546,8.4614,8.4614,8.4614,8.4614,8.4614,8.4614,8.4614,8.4614,8.4614,8.4614,8.4614,8.4614,8.4614,8.4614,8.4614,8.4614,8.4614,8.4614,8.4614,8.4614,8.4614,8.4614,8.4614,8.4614,8.4614,8.4614,8.4614,8.4614,8.4614,8.4614,8.4614,8.4614,8.4614,8.4614,8.4614,8.4614,8.4614,8.4614,8.4614,8.4614,8.4614,8.4614,8.4614,8.4614,8.4614,8.5215,8.596,8.6825,8.7583,8.8294,8.9052,8.9086,8.9086,8.9086,8.9086,8.9086,8.9086,8.9086,8.9086,8.9086,8.8855,8.7161,8.4011,8.377,8.1956,7.8807,7.8807,7.8807,7.8807,7.8807,7.8807,7.8807,7.8807,7.8807,7.8807,7.8807,7.8807,7.8807,7.8807,7.8807,7.8807,8.0209,8.0209,8.0209,8.0209,8.0209,8.0209,8.0209,8.0209,8.0209,8.0209,8.0209,8.0209,8.0209,8.0209,8.0209,8.0209,8.0209,8.0209,8.0209,8.0209,8.0209,8.0209,8.0209,8.0209,8.0209,8.0209,8.0209,8.0209,8.0209,8.0953,8.2395,8.2395,8.3206,8.4614,8.4614,8.4614,8.4614,8.4614,8.4614,8.4614,8.4614,8.4614,8.4614,8.4614,8.4614,8.4614,8.4614,8.4614,8.4614,8.4614,8.4614,8.4614,8.4614,8.4614,8.4614,8.4614,8.4614,8.4614,8.4614,8.4614,8.4614,8.4614,8.4614,8.4614,8.4614,8.4614,8.4614,8.4614,8.4614,8.4614,8.4614,8.4614,8.4614,8.4614,8.4614,8.4614,8.4614,8.4614,8.4614,8.4614,8.5675,8.6535,8.6859,8.7955,8.8748,8.9086,8.9086,8.9086,8.9086,8.9086,8.9086,8.9086,8.9086,8.9086,8.9086,8.9086,8.7853,8.5397,8.4457,8.216,7.8807,7.8807,7.8807,7.8807,7.8807,7.8807,7.8807,7.8807,7.8807,7.8807,7.8807,7.8807,7.8807,7.8807,7.8807,7.8807]},{"header":{"parameterUnit":"m.s-1","parameterCategory":1,"la1":30.6,"la2":28.766,"lo1":-90.7593,"lo2":-88.6598,"dx":0.0162,"dy":0.0183,"nx":116,"ny":114,"refTime":"2022-12-19T06:00:00:Z","depth":0,"parameterNumber":3,"parameterNumberName":"V-component_of_WINDS"},"data":[0.0,0.0,0.0,0.0,0.0,0.0,0.0,0.0,0.0,0.0,0.0,0.0,0.0,0.0,0.0,0.0,0.0,0.0,0.0,0.0,0.0,0.0,0.0,0.0,0.0,0.0,0.0,0.0,0.0,0.0,0.0,0.0,0.0,0.0,0.0,0.0,0.0,0.0,0.0,0.0,0.0,0.0,0.0,0.0,0.0,0.0,0.0,0.0,0.0,0.0,0.0,0.0,0.0,0.0,0.0,0.0,0.0,0.0,0.0,0.0,0.0,0.0,0.0,0.0,0.0,0.0,0.0,0.0,0.0,0.0,0.0,0.0,0.0,0.0,0.0,0.0,0.0,0.0,0.0,0.0,0.0,0.0,0.0,0.0,0.0,0.0,0.0,0.0,0.0,0.0,0.0,0.0,0.0,0.0,0.0,0.0,0.0,0.0,0.0,0.0,0.0,0.0,0.0,0.0,0.0,0.0,0.0,0.0,0.0,0.0,0.0,0.0,0.0,0.0,0.0,0.0,0.0,0.0,0.0,0.0,0.0,0.0,0.0,0.0,0.0,0.0,0.0,0.0,0.0,0.0,0.0,0.0,0.0,0.0,0.0,0.0,0.0,0.0,0.0,0.0,0.0,0.0,0.0,0.0,0.0,0.0,0.0,0.0,0.0,0.0,0.0,0.0,0.0,0.0,0.0,0.0,0.0,0.0,0.0,0.0,0.0,0.0,0.0,0.0,0.0,0.0,0.0,0.0,0.0,0.0,0.0,0.0,0.0,0.0,0.0,0.0,0.0,0.0,0.0,0.0,0.0,0.0,0.0,0.0,0.0,0.0,0.0,0.0,0.0,0.0,0.0,0.0,0.0,0.0,0.0,0.0,0.0,0.0,0.0,0.0,0.0,0.0,0.0,0.0,0.0,0.0,0.0,0.0,0.0,0.0,0.0,0.0,0.0,0.0,0.0,0.0,0.0,0.0,0.0,0.0,0.0,0.0,0.0,0.0,0.0,0.0,0.0,0.0,0.0,0.0,0.0,0.0,0.0,0.0,0.0,0.0,0.0,0.0,0.0,0.0,0.0,0.0,0.0,0.0,0.0,0.0,0.0,0.0,0.0,0.0,0.0,0.0,0.0,0.0,0.0,0.0,0.0,0.0,0.0,0.0,0.0,0.0,0.0,0.0,0.0,0.0,0.0,0.0,0.0,0.0,0.0,0.0,0.0,0.0,0.0,0.0,0.0,0.0,0.0,0.0,0.0,0.0,0.0,0.0,0.0,0.0,0.0,0.0,0.0,0.0,0.0,0.0,0.0,0.0,0.0,0.0,0.0,0.0,0.0,0.0,0.0,0.0,0.0,0.0,0.0,0.0,0.0,0.0,0.0,0.0,0.0,0.0,0.0,0.0,0.0,0.0,0.0,0.0,0.0,0.0,0.0,0.0,0.0,0.0,0.0,0.0,0.0,0.0,0.0,0.0,0.0,0.0,0.0,0.0,0.0,0.0,0.0,0.0,0.0,0.0,0.0,0.0,0.0,0.0,0.0,0.0,0.0,0.0,0.0,0.0,0.0,0.0,0.0,0.0,0.0,0.0,0.0,0.0,0.0,0.0,0.0,0.0,0.0,0.0,0.0,0.0,0.0,0.0,0.0,0.0,0.0,0.0,0.0,0.0,0.0,0.0,0.0,0.0,0.0,0.0,0.0,0.0,0.0,0.0,0.0,0.0,0.0,0.0,0.0,0.0,0.0,0.0,0.0,0.0,0.0,0.0,0.0,0.0,0.0,0.0,0.0,0.0,0.0,0.0,0.0,0.0,0.0,0.0,0.0,0.0,0.0,0.0,0.0,0.0,0.0,0.0,0.0,0.0,0.0,0.0,0.0,0.0,0.0,0.0,0.0,0.0,0.0,0.0,0.0,0.0,0.0,0.0,0.0,0.0,0.0,0.0,0.0,0.0,0.0,0.0,0.0,0.0,0.0,0.0,0.0,0.0,0.0,0.0,0.0,0.0,0.0,0.0,0.0,0.0,0.0,0.0,0.0,0.0,0.0,0.0,0.0,0.0,0.0,0.0,0.0,0.0,0.0,0.0,0.0,0.0,0.0,0.0,0.0,0.0,0.0,0.0,0.0,0.0,0.0,0.0,0.0,0.0,0.0,0.0,0.0,0.0,0.0,0.0,0.0,0.0,0.0,0.0,0.0,0.0,0.0,0.0,0.0,0.0,0.0,0.0,0.0,0.0,0.0,0.0,0.0,0.0,0.0,0.0,0.0,0.0,0.0,0.0,0.0,0.0,0.0,0.0,0.0,0.0,0.0,0.0,0.0,0.0,0.0,0.0,0.0,0.0,0.0,0.0,0.0,0.0,0.0,0.0,0.0,0.0,0.0,0.0,0.0,0.0,0.0,0.0,0.0,0.0,0.0,0.0,0.0,0.0,0.0,0.0,0.0,0.0,0.0,0.0,0.0,0.0,0.0,0.0,0.0,0.0,0.0,0.0,0.0,0.0,0.0,0.0,0.0,0.0,0.0,0.0,0.0,0.0,0.0,0.0,0.0,0.0,0.0,0.0,0.0,0.0,0.0,0.0,0.0,0.0,0.0,0.0,0.0,0.0,0.0,0.0,0.0,0.0,0.0,0.0,0.0,0.0,0.0,0.0,0.0,0.0,0.0,0.0,0.0,0.0,0.0,0.0,0.0,0.0,0.0,0.0,0.0,0.0,0.0,0.0,0.0,0.0,0.0,0.0,0.0,0.0,0.0,0.0,0.0,0.0,0.0,0.0,0.0,0.0,0.0,0.0,0.0,0.0,0.0,0.0,0.0,0.0,0.0,0.0,0.0,0.0,0.0,0.0,0.0,0.0,0.0,0.0,0.0,0.0,0.0,0.0,0.0,0.0,0.0,0.0,0.0,0.0,0.0,0.0,0.0,0.0,0.0,0.0,0.0,0.0,0.0,0.0,0.0,0.0,0.0,0.0,0.0,0.0,0.0,0.0,0.0,0.0,0.0,0.0,0.0,0.0,0.0,0.0,0.0,0.0,0.0,0.0,0.0,0.0,0.0,0.0,0.0,0.0,0.0,0.0,0.0,0.0,0.0,0.0,0.0,0.0,0.0,0.0,0.0,0.0,0.0,0.0,0.0,0.0,0.0,0.0,0.0,0.0,0.0,0.0,0.0,0.0,0.0,0.0,0.0,0.0,0.0,0.0,0.0,0.0,0.0,0.0,0.0,0.0,0.0,0.0,0.0,0.0,0.0,0.0,0.0,0.0,0.0,0.0,0.0,0.0,0.0,0.0,0.0,0.0,0.0,0.0,0.0,0.0,0.0,0.0,0.0,0.0,0.0,0.0,0.0,0.0,0.0,0.0,0.0,0.0,0.0,0.0,0.0,0.0,0.0,0.0,0.0,0.0,0.0,0.0,0.0,0.0,0.0,0.0,0.0,0.0,0.0,0.0,0.0,0.0,0.0,0.0,0.0,0.0,0.0,0.0,0.0,0.0,0.0,0.0,0.0,0.0,0.0,0.0,0.0,0.0,0.0,0.0,0.0,0.0,0.0,0.0,0.0,0.0,0.0,0.0,0.0,0.0,0.0,0.0,0.0,0.0,0.0,0.0,0.0,0.0,0.0,0.0,0.0,0.0,0.0,0.0,0.0,0.0,0.0,0.0,0.0,0.0,0.0,0.0,0.0,0.0,0.0,0.0,0.0,0.0,0.0,0.0,0.0,0.0,0.0,0.0,0.0,0.0,0.0,0.0,0.0,0.0,0.0,0.0,0.0,0.0,0.0,0.0,0.0,0.0,0.0,0.0,0.0,0.0,0.0,0.0,0.0,0.0,0.0,0.0,0.0,0.0,0.0,0.0,0.0,0.0,0.0,0.0,0.0,0.0,0.0,0.0,0.0,0.0,0.0,0.0,0.0,0.0,0.0,0.0,0.0,0.0,0.0,0.0,0.0,0.0,0.0,0.0,0.0,0.0,0.0,0.0,0.0,0.0,0.0,0.0,0.0,0.0,0.0,0.0,0.0,0.0,0.0,0.0,0.0,0.0,0.0,0.0,0.0,0.0,0.0,0.0,0.0,0.0,0.0,0.0,0.0,0.0,0.0,0.0,0.0,0.0,0.0,0.0,0.0,0.0,0.0,0.0,0.0,0.0,0.0,0.0,0.0,0.0,0.0,0.0,0.0,0.0,0.0,0.0,0.0,0.0,0.0,0.0,0.0,0.0,0.0,0.0,0.0,0.0,0.0,0.0,0.0,0.0,0.0,0.0,0.0,0.0,0.0,0.0,0.0,0.0,0.0,0.0,0.0,0.0,0.0,0.0,0.0,0.0,0.0,0.0,0.0,0.0,0.0,0.0,0.0,0.0,0.0,0.0,0.0,0.0,0.0,0.0,0.0,0.0,0.0,0.0,0.0,0.0,0.0,0.0,0.0,0.0,0.0,0.0,0.0,0.0,0.0,0.0,0.0,0.0,0.0,0.0,0.0,0.0,0.0,0.0,0.0,0.0,0.0,0.0,0.0,0.0,0.0,0.0,0.0,0.0,0.0,0.0,0.0,0.0,0.0,0.0,0.0,0.0,0.0,0.0,0.0,0.0,0.0,0.0,0.0,0.0,0.0,0.0,0.0,0.0,0.0,0.0,0.0,0.0,0.0,0.0,0.0,0.0,0.0,0.0,0.0,0.0,0.0,0.0,0.0,0.0,0.0,0.0,0.0,0.0,0.0,0.0,0.0,0.0,0.0,0.0,0.0,0.0,0.0,0.0,0.0,0.0,0.0,0.0,0.0,0.0,0.0,0.0,0.0,0.0,0.0,0.0,0.0,0.0,0.0,0.0,0.0,0.0,0.0,0.0,0.0,0.0,0.0,0.0,0.0,0.0,0.0,0.0,0.0,0.0,0.0,0.0,0.0,0.0,0.0,0.0,0.0,0.0,0.0,0.0,0.0,0.0,0.0,0.0,0.0,0.0,0.0,0.0,0.0,0.0,0.0,0.0,0.0,0.0,0.0,0.0,0.0,0.0,0.0,0.0,0.0,0.0,0.0,0.0,0.0,0.0,0.0,0.0,0.0,0.0,0.0,0.0,0.0,0.0,0.0,0.0,0.0,0.0,0.0,0.0,0.0,0.0,0.0,0.0,0.0,0.0,0.0,0.0,0.0,0.0,0.0,0.0,0.0,0.0,0.0,0.0,0.0,0.0,0.0,0.0,0.0,0.0,0.0,0.0,0.0,0.0,0.0,0.0,0.0,0.0,0.0,0.0,0.0,0.0,0.0,0.0,0.0,0.0,0.0,0.0,0.0,0.0,0.0,0.0,0.0,0.0,0.0,0.0,0.0,0.0,0.0,0.0,0.0,0.0,0.0,0.0,0.0,0.0,0.0,0.0,0.0,0.0,0.0,0.0,0.0,0.0,0.0,0.0,0.0,0.0,0.0,0.0,0.0,0.0,0.0,0.0,0.0,0.0,0.0,0.0,0.0,0.0,0.0,0.0,0.0,0.0,0.0,0.0,0.0,0.0,0.0,0.0,0.0,0.0,0.0,0.0,0.0,0.0,0.0,0.0,0.0,0.0,0.0,0.0,0.0,0.0,0.0,0.0,0.0,0.0,0.0,0.0,0.0,0.0,0.0,0.0,0.0,0.0,0.0,0.0,0.0,0.0,0.0,0.0,0.0,0.0,0.0,0.0,0.0,0.0,0.0,0.0,0.0,0.0,0.0,0.0,0.0,0.0,0.0,0.0,0.0,0.0,0.0,0.0,0.0,0.0,0.0,0.0,0.0,0.0,0.0,0.0,0.0,0.0,0.0,0.0,0.0,0.0,0.0,0.0,0.0,0.0,0.0,0.0,0.0,0.0,0.0,0.0,0.0,0.0,0.0,0.0,0.0,0.0,0.0,0.0,0.0,0.0,0.0,0.0,0.0,0.0,0.0,0.0,0.0,0.0,0.0,0.0,0.0,0.0,0.0,0.0,0.0,0.0,0.0,0.0,0.0,0.0,0.0,0.0,0.0,0.0,0.0,0.0,0.0,0.0,0.0,0.0,0.0,0.0,0.0,0.0,0.0,0.0,0.0,0.0,0.0,0.0,0.0,0.0,0.0,0.0,0.0,0.0,0.0,0.0,0.0,0.0,2.933,0.0,0.0,0.0,0.0,0.0,0.0,0.0,0.0,0.0,0.0,0.0,0.0,0.0,0.0,0.0,0.0,0.0,0.0,0.0,0.0,0.0,0.0,0.0,0.0,1.5396,1.5396,1.5396,1.5396,0.0,0.0,0.0,0.0,0.0,0.0,0.0,0.0,0.0,1.6317,1.6929,1.7204,1.8103,1.9532,1.8858,1.834,1.7941,0.0,0.0,0.0,0.0,0.0,0.0,0.0,0.0,0.0,0.0,0.0,0.0,0.0,0.0,0.0,0.0,0.0,0.0,0.0,0.0,0.0,0.0,0.0,0.0,0.0,0.0,0.0,0.0,0.0,0.0,0.0,0.0,0.0,0.0,0.0,0.0,0.0,0.0,0.0,0.0,0.0,0.0,0.0,0.0,0.0,0.0,0.0,0.0,0.0,0.0,0.0,0.0,0.0,0.0,0.0,0.0,0.0,0.0,0.0,0.0,0.0,0.0,0.0,0.0,0.0,0.0,0.0,0.0,0.0,0.0,0.0,3.1233,0.0,0.0,0.0,0.0,0.0,0.0,0.0,0.0,0.0,0.0,0.0,0.0,0.0,0.0,0.0,0.0,0.0,0.0,0.0,0.0,0.0,1.5442,1.55,1.552,1.5559,1.563,1.563,1.563,1.563,1.563,0.0,0.0,0.0,0.0,1.6195,1.6613,1.7417,1.8598,1.9189,2.0224,2.1649,2.1727,2.1201,2.0137,1.9141,0.0,0.0,0.0,0.0,0.0,0.0,0.0,0.0,0.0,0.0,0.0,0.0,0.0,0.0,0.0,0.0,0.0,0.0,0.0,0.0,0.0,0.0,0.0,0.0,0.0,0.0,0.0,0.0,0.0,0.0,0.0,0.0,0.0,0.0,0.0,0.0,0.0,0.0,0.0,0.0,0.0,0.0,0.0,0.0,0.0,0.0,0.0,0.0,0.0,0.0,0.0,0.0,0.0,0.0,0.0,0.0,0.0,0.0,0.0,0.0,0.0,0.0,0.0,3.146,3.2334,3.3763,3.3763,3.5519,3.8468,3.5881,3.5389,3.6243,3.3396,0.0,0.0,0.0,0.0,0.0,0.0,0.0,0.0,0.0,0.0,0.0,0.0,0.0,0.0,0.0,0.0,0.0,0.0,0.0,1.5554,1.596,1.6014,1.6148,1.65,1.6531,1.6531,1.6531,1.6531,1.6531,1.6531,1.6597,1.6617,1.6617,1.707,1.7726,1.8598,2.1239,2.283,2.3457,2.3806,2.3895,2.3661,2.209,2.1397,2.1338,0.0,0.0,0.0,0.0,0.0,0.0,0.0,0.0,0.0,0.0,0.0,0.0,0.0,0.0,0.0,0.0,0.0,0.0,0.0,0.0,0.0,0.0,0.0,0.0,0.0,0.0,0.0,0.0,0.0,0.0,0.0,0.0,0.0,0.0,0.0,0.0,0.0,0.0,0.0,0.0,0.0,2.7591,2.8463,0.0,0.0,0.0,0.0,0.0,0.0,0.0,0.0,0.0,0.0,0.0,0.0,0.0,3.0723,3.0913,3.1992,3.2554,3.2559,3.3672,3.4524,3.5146,3.5146,3.6391,3.866,3.97,0.0,3.8223,3.7758,0.0,0.0,0.0,0.0,0.0,0.0,0.0,0.0,0.0,0.0,0.0,0.0,0.0,0.0,0.0,0.0,0.0,0.0,0.0,0.0,0.0,1.7028,1.7528,1.842,1.8498,1.8294,1.7798,1.7759,1.7447,1.6726,1.7163,1.7436,1.7436,1.8583,2.0068,2.1874,2.4157,2.5398,2.5605,2.5789,2.573,2.5488,2.4758,2.373,2.2537,2.1944,0.0,0.0,0.0,0.0,0.0,0.0,0.0,0.0,0.0,0.0,0.0,0.0,0.0,0.0,0.0,0.0,0.0,0.0,0.0,0.0,0.0,0.0,0.0,0.0,0.0,0.0,0.0,0.0,0.0,0.0,0.0,0.0,0.0,0.0,0.0,0.0,0.0,0.0,0.0,2.7044,2.7917,2.8496,2.8066,2.7617,0.0,0.0,0.0,0.0,0.0,0.0,0.0,0.0,0.0,3.2285,3.2574,3.3027,3.3769,3.4336,3.4593,3.4609,3.5159,3.6559,3.8664,3.8972,4.067,4.3457,4.45,4.4541,4.3623,4.11,3.8847,3.675,0.0,0.0,0.0,0.0,3.4626,3.497,0.0,0.0,0.0,0.0,0.0,0.0,0.0,0.0,0.0,0.0,0.0,0.0,1.7617,1.8281,1.9102,2.0137,2.0342,2.0147,1.9493,1.9124,1.8567,1.7737,1.7991,1.8264,1.8479,2.04,2.2511,2.4723,2.6257,2.6999,2.6999,2.6999,2.6843,2.6543,2.6543,2.5515,2.3736,2.3201,2.2383,2.1309,0.0,0.0,0.0,0.0,0.0,0.0,0.0,0.0,0.0,0.0,0.0,0.0,0.0,0.0,0.0,0.0,0.0,0.0,0.0,0.0,0.0,0.0,0.0,0.0,0.0,0.0,0.0,0.0,0.0,0.0,0.0,0.0,0.0,0.0,0.0,0.0,0.0,2.7923,2.8503,2.892,2.9062,2.8828,0.0,0.0,0.0,0.0,0.0,0.0,3.1714,3.2109,3.2855,3.4027,3.4528,3.5444,3.6847,3.6512,3.6807,3.7716,3.7282,3.8637,4.1627,4.2018,4.3836,4.6697,4.7084,4.7492,4.7629,4.4279,4.2457,4.1519,3.8911,3.7404,3.6896,3.8181,3.8416,3.8727,0.0,0.0,0.0,0.0,0.0,0.0,0.0,0.0,0.0,0.0,0.0,1.7637,1.8442,1.9687,2.0644,2.1103,2.1543,2.1788,2.1729,2.0537,2.0,2.038,1.9229,1.8957,1.9795,2.2324,2.4285,2.5628,2.6557,2.6999,2.6999,2.6999,2.6999,2.696,2.696,2.644,2.5511,2.4664,2.4043,2.3488,2.1796,0.0,0.0,0.0,0.0,0.0,0.0,0.0,0.0,0.0,0.0,0.0,0.0,0.0,0.0,0.0,0.0,0.0,0.0,0.0,0.0,0.0,0.0,0.0,0.0,0.0,0.0,0.0,0.0,0.0,0.0,0.0,0.0,0.0,0.0,0.0,0.0,0.0,0.0,3.0703,3.1113,0.0,0.0,0.0,0.0,3.1372,3.2207,3.3082,3.3883,3.4333,3.4961,3.5842,3.6309,3.7417,3.9198,3.7897,3.8993,4.2442,4.0732,4.088,4.2707,4.2746,4.3755,4.5494,4.5494,4.6419,4.7867,4.767,4.5868,4.3258,4.3102,4.1287,3.9174,4.2632,4.3892,4.4405,0.0,0.0,0.0,0.0,0.0,1.5396,1.5396,1.5652,1.5901,1.6073,1.7313,1.8604,1.9755,2.1045,2.2324,2.3605,2.3859,2.3714,2.3155,2.2148,2.1543,2.1446,2.0693,2.121,2.3194,2.4719,2.6106,2.737,2.7936,2.8379,2.8666,2.8666,2.8516,2.8209,2.7936,2.7519,2.6934,2.6067,2.4961,2.3742,2.3125,2.2129,0.0,0.0,0.0,0.0,0.0,0.0,0.0,0.0,0.0,0.0,0.0,0.0,0.0,0.0,0.0,0.0,0.0,0.0,0.0,0.0,0.0,0.0,0.0,0.0,0.0,0.0,0.0,0.0,0.0,0.0,0.0,0.0,0.0,0.0,0.0,0.0,0.0,3.1729,3.2324,0.0,3.1792,3.2613,3.318,3.318,3.4508,3.5463,3.5756,3.6152,3.6523,3.6836,3.6992,3.74,3.8041,3.9091,4.0285,4.1606,4.2508,4.3832,4.5508,4.5893,4.7014,4.8632,4.9018,4.9536,5.0083,5.0083,4.8591,4.6288,4.6288,4.5626,4.4857,4.6134,4.6625,4.6802,0.0,0.0,0.0,0.0,1.5396,1.5396,1.5396,1.5796,1.6261,1.6676,1.8223,1.9785,2.1094,2.2511,2.3839,2.4996,2.5375,2.5227,2.4492,2.3622,2.3016,2.2754,2.245,2.3368,2.5696,2.6458,2.7454,2.8744,2.9018,2.9311,2.9598,2.9598,2.9428,2.9121,2.8861,2.849,2.806,2.748,2.625,2.464,2.418,2.3309,2.2225,0.0,0.0,0.0,0.0,0.0,0.0,0.0,0.0,0.0,0.0,0.0,0.0,0.0,0.0,0.0,0.0,0.0,0.0,0.0,0.0,0.0,0.0,0.0,0.0,0.0,0.0,0.0,0.0,0.0,0.0,0.0,0.0,0.0,0.0,0.0,3.2398,3.2398,3.3379,3.375,3.2922,3.4134,3.4974,3.4974,3.6169,3.6892,3.6892,3.7932,3.852,3.852,3.8801,3.9557,4.0845,4.133,4.2508,4.443,4.5399,4.6754,4.8455,4.8853,4.965,5.072,5.1138,5.1289,5.1289,5.1289,5.041,4.9038,4.9038,4.9038,4.9038,4.9038,4.9038,4.9038,0.0,0.0,0.0,1.5396,1.5396,1.5396,1.5396,1.5816,1.6586,1.7843,1.955,2.1143,2.2392,2.4074,2.5114,2.5153,2.5911,2.6211,2.5745,2.4898,2.4402,2.4422,2.45,2.532,2.7018,2.7513,2.838,2.9618,2.9618,2.9618,2.9637,2.9637,2.9637,2.9637,2.9618,2.9369,2.8951,2.8912,2.7955,2.636,2.5027,2.4449,2.4344,0.0,0.0,0.0,0.0,0.0,0.0,0.0,0.0,0.0,0.0,0.0,0.0,0.0,0.0,0.0,0.0,0.0,0.0,0.0,0.0,0.0,0.0,0.0,0.0,0.0,0.0,0.0,0.0,0.0,0.0,0.0,0.0,0.0,3.2296,3.2613,3.2891,3.2891,3.4394,3.5114,3.4254,3.5737,3.6714,3.6714,3.709,3.7344,3.7344,3.9637,4.093,4.086,4.1812,4.407,4.7712,4.4626,4.5812,5.1264,4.9529,4.9655,5.1389,5.1389,5.1389,5.1389,5.1389,5.1389,5.1389,5.1389,5.1389,5.1389,5.1314,5.1289,5.1289,5.1289,5.1314,5.1314,0.0,0.0,0.0,1.5396,1.5396,1.5396,1.5396,1.6328,1.7371,1.8314,2.0254,2.2032,2.3301,2.4437,2.5356,2.6001,2.6262,2.634,2.6211,2.5066,2.4539,2.4887,2.6399,2.7598,2.8365,2.8842,2.9403,3.0034,3.0034,3.021,3.0542,3.0542,3.0542,3.0522,3.019,2.9961,2.9805,2.9166,2.8639,2.8092,2.6804,2.5913,2.5249,0.0,0.0,0.0,0.0,0.0,0.0,0.0,0.0,0.0,0.0,0.0,0.0,0.0,0.0,0.0,0.0,0.0,0.0,0.0,0.0,0.0,0.0,0.0,0.0,0.0,0.0,0.0,0.0,0.0,0.0,0.0,0.0,3.3187,3.3086,3.4004,3.4785,3.5081,3.584,3.6247,3.601,3.6677,3.7146,3.7146,3.783,3.8241,3.8241,4.0794,4.1643,4.0223,4.3134,4.4762,4.4793,4.7032,4.9138,5.1115,5.234,5.3195,5.3692,5.3692,5.3692,5.3692,5.3692,5.3692,5.3692,5.3692,5.3692,5.3542,5.1917,5.1289,5.1289,5.1289,5.1565,5.1925,0.0,0.0,0.0,1.5396,1.5396,1.5469,1.5652,1.6648,1.7879,1.9249,2.1016,2.2706,2.4172,2.4953,2.5625,2.634,2.6399,2.6321,2.612,2.5554,2.5664,2.6653,2.7891,2.8912,2.9726,3.0014,3.0444,3.103,3.103,3.1167,3.1441,3.1441,3.1343,3.1133,3.0879,3.0644,3.0449,2.9961,2.9615,2.9375,2.8457,2.7578,2.6732,2.6218,2.5898,2.5618,2.5012,2.4766,2.4723,2.4637,0.0,0.0,0.0,0.0,0.0,0.0,0.0,0.0,0.0,0.0,0.0,0.0,0.0,0.0,0.0,0.0,0.0,0.0,0.0,0.0,0.0,0.0,0.0,0.0,3.3539,3.4554,3.4746,3.5293,3.582,3.623,3.6541,3.6773,3.6931,3.7498,3.8169,3.9,3.986,4.0365,4.0365,4.3885,4.5005,4.3023,4.634,4.8169,4.8218,4.9921,5.1375,5.2521,5.3925,5.4597,5.4622,5.483,5.4949,5.4949,5.5182,5.5132,5.4949,5.4949,5.4798,0.0,0.0,0.0,0.0,0.0,5.2871,5.3198,1.5396,1.5396,1.5396,1.5396,1.5435,1.5613,1.6034,1.6918,1.8298,2.04,2.1788,2.3242,2.4984,2.5535,2.5952,2.6438,2.6477,2.6277,2.5862,2.6316,2.7305,2.8834,2.8976,2.9654,3.0937,3.103,3.1441,3.2276,3.23,3.2335,3.2335,3.2335,3.2109,3.1704,3.1626,3.1387,3.105,3.0952,3.0644,3.0234,2.9891,2.9193,2.8359,2.8334,2.8314,2.8203,2.7428,2.7155,2.7038,2.6303,0.0,0.0,0.0,0.0,0.0,0.0,0.0,0.0,0.0,0.0,0.0,0.0,0.0,0.0,0.0,0.0,0.0,0.0,0.0,0.0,0.0,0.0,0.0,0.0,3.4944,3.623,3.6638,3.6387,3.6309,3.6716,3.6834,3.7136,3.7718,3.8563,3.9781,4.1532,4.268,4.3188,4.2989,0.0,0.0,0.0,0.0,5.2738,5.4452,5.2895,5.3077,5.4974,5.4974,5.4974,5.4999,5.5458,5.5666,5.5709,5.6194,5.6118,5.5666,5.5666,5.5408,5.4949,5.4773,5.4697,5.4697,5.4823,5.4856,5.4881,1.5396,1.5396,1.5396,1.5396,1.5711,1.6007,1.6093,1.7383,1.9016,2.0859,2.2227,2.3703,2.5386,2.5984,2.6426,2.6855,2.6882,2.6843,2.6752,2.75,2.8223,2.8873,2.9556,3.041,3.1352,3.1753,3.2183,3.2676,3.3008,3.3184,3.3184,3.3184,3.3129,3.3012,3.2344,3.2007,3.1905,3.1206,3.0854,3.0776,3.0678,2.9902,2.8756,2.8418,2.8314,2.8275,2.8105,2.8047,2.8066,2.8229,2.7851,2.7435,2.8073,2.7773,0.0,0.0,0.0,0.0,0.0,0.0,0.0,0.0,0.0,0.0,0.0,0.0,0.0,0.0,0.0,0.0,0.0,0.0,0.0,3.3883,3.5427,3.6599,3.6695,3.6912,3.709,3.7168,3.7811,3.8869,4.053,4.1485,4.2132,4.2532,4.4892,4.5657,4.4086,4.8662,5.043,4.8456,5.2055,5.3878,5.3568,5.4703,5.5952,5.7248,0.0,0.0,5.7267,5.7374,5.7424,5.7424,5.7524,5.7499,5.7424,5.7424,5.7367,5.7123,5.5785,5.5257,5.5358,5.62,5.6552,5.6602,1.5757,1.5566,1.5481,1.5711,1.594,1.6249,1.6684,1.7796,1.923,2.0966,2.2353,2.3641,2.4918,2.5261,2.5476,2.5691,2.5918,2.6504,2.7578,2.8047,2.8769,2.9849,3.0508,3.1172,3.1851,3.2461,3.3008,3.3453,3.3848,3.4046,3.4046,3.4046,3.3945,3.373,3.3316,3.3023,3.2754,3.2109,3.1734,3.1519,3.1289,3.0684,2.9883,2.9682,2.9604,2.9584,2.935,2.9238,2.9238,2.9238,2.8978,2.8758,2.9355,2.9135,2.8562,0.0,0.0,0.0,0.0,0.0,0.0,0.0,0.0,0.0,0.0,0.0,0.0,0.0,0.0,3.1812,3.2652,0.0,3.4609,3.529,3.6306,3.7146,3.7576,3.783,3.7948,3.7948,3.92,4.0592,4.1994,4.3877,4.542,4.6438,4.8305,4.897,4.801,5.1465,5.2717,5.1033,5.4126,5.5729,5.559,5.6558,5.7349,5.7901,5.7901,5.7901,5.7901,5.8177,5.8284,5.8328,5.8579,5.8554,5.8278,5.8001,5.7901,5.7851,5.7273,5.6897,5.6721,5.7255,5.7455,5.7481,1.6222,1.5898,1.5774,1.6148,1.63,1.6594,1.7282,1.8069,1.9202,2.0859,2.2039,2.3092,2.404,2.4227,2.4344,2.452,2.5031,2.6197,2.8177,2.847,2.9238,3.0835,3.1211,3.1601,3.2046,3.2949,3.3633,3.4114,3.4668,3.4961,3.4961,3.4961,3.4766,3.4469,3.4293,3.3961,3.35,3.3008,3.2574,3.2179,3.1777,3.1445,3.1147,3.1147,3.1108,3.0957,3.0586,3.0508,3.0542,3.0224,3.0121,3.0165,3.0483,3.038,3.0009,2.9453,2.9492,0.0,0.0,0.0,0.0,0.0,0.0,0.0,0.0,3.0312,3.0849,3.2114,3.2676,3.3277,3.4407,3.5173,3.5915,3.6677,3.7225,3.7916,3.9019,3.9311,3.9616,4.0213,4.1216,4.2492,4.4065,4.6466,4.8595,5.0324,5.1627,5.2221,5.195,5.4326,5.5224,5.4227,5.6122,5.7455,5.8052,5.8052,5.8102,5.8202,5.8202,5.8202,5.8227,5.866,5.8861,5.8886,5.9307,5.9257,5.8811,5.8403,5.8202,5.8252,5.8704,5.8604,5.8202,5.8202,5.8202,5.8202,1.6629,1.659,1.657,1.6617,1.6973,1.729,1.7388,1.8069,1.9103,2.0498,2.1103,2.1883,2.3112,2.3622,2.4172,2.4945,2.5786,2.6849,2.8216,2.9018,2.9891,3.0874,3.0937,3.1152,3.1567,3.2777,3.3633,3.4114,3.5273,3.5862,3.5862,3.5862,3.5823,3.5745,3.498,3.4411,3.3961,3.316,3.2574,3.2198,3.214,3.2085,3.2061,3.2061,3.1812,3.143,3.1372,3.1621,3.1964,3.1925,3.1905,3.1925,3.1964,3.1944,3.1749,3.0932,3.0424,2.9922,2.901,2.9434,3.0195,3.0542,3.1265,3.2378,0.0,3.4118,3.3961,3.5237,3.553,3.5762,3.6323,3.6499,3.6697,3.7166,3.7928,3.9089,4.0921,4.1844,4.3297,4.5925,4.4436,4.4814,4.896,4.9995,5.0678,5.1389,5.3641,5.4425,5.3178,5.546,5.6986,5.7375,5.7638,5.8077,5.861,5.861,5.8836,5.9307,5.9307,5.9307,5.9307,5.9382,5.9408,5.9408,5.9458,5.9458,5.9408,5.9332,5.9307,5.9332,5.9382,5.9357,5.9307,5.9307,5.9307,5.9307,1.7109,1.7296,1.7464,1.7464,1.743,1.7477,1.7715,1.8236,1.8899,1.9726,2.0635,2.1405,2.1941,2.2411,2.3049,2.3921,2.5016,2.6412,2.8184,2.9129,2.9989,3.0874,3.1133,3.1328,3.1489,3.2758,3.3633,3.4114,3.5137,3.5764,3.5999,3.5999,3.5881,3.5644,3.5273,3.4863,3.4411,3.3805,3.3297,3.2871,3.2652,3.2413,3.2198,3.2198,3.2222,3.2266,3.2266,3.2051,0.0,3.2378,3.2222,3.1875,3.2398,3.2554,3.2437,3.1831,3.1695,3.168,3.1548,3.1782,3.2114,3.2324,3.3008,3.3824,3.4489,3.4547,3.4821,3.615,3.6423,3.6523,3.697,3.7226,3.7539,3.7987,3.9548,4.1144,4.248,4.4226,4.6342,4.8979,4.8626,4.891,5.0829,5.2495,5.3713,5.4254,5.5536,5.622,5.5976,5.6969,5.7782,5.8334,5.8378,5.861,5.9156,5.9182,5.9282,5.9483,5.9483,5.9483,5.9483,5.9483,5.9483,5.9483,5.9483,5.9483,5.9483,5.9483,5.9483,5.9483,5.9483,5.9307,5.9062,5.9382,5.9483,5.9458,1.7575,1.7793,1.7999,1.7999,1.7754,1.7656,1.796,1.8244,1.8635,1.9219,2.0108,2.0762,2.1006,2.1338,2.1935,2.2912,2.4066,2.5637,2.7793,2.8861,2.9799,3.0678,3.1113,3.1333,3.1333,3.2465,3.3281,3.3727,3.4606,3.5234,3.5647,3.5647,3.5488,3.5195,3.5195,3.4958,3.4508,3.4098,3.3711,3.3347,3.2969,3.2691,3.2535,3.2535,3.2652,3.2789,3.2656,3.2226,3.1777,3.2266,3.2109,3.1797,3.2437,3.2695,3.2789,3.2746,3.2847,3.2988,3.3066,3.334,3.3578,3.3578,3.4336,3.5019,3.4841,3.5036,3.5564,3.6638,3.6871,3.7029,3.7557,3.7891,3.8462,3.9576,4.1329,4.32,4.5073,4.699,4.9163,5.176,5.2429,5.2768,5.3058,5.4619,5.5842,5.6376,5.6928,5.7506,5.8102,5.8127,5.8378,5.8886,5.8911,5.9106,5.9483,5.9483,5.9483,5.9483,5.9483,5.9483,5.9483,5.9483,5.9483,5.9483,5.9483,5.9483,5.9483,5.9332,5.9282,5.9257,5.9106,5.883,5.8535,5.8905,5.9056,5.9006,1.798,1.7999,1.7999,1.7999,1.7999,1.798,1.7999,1.8019,1.834,1.9189,1.9325,1.9686,2.0527,2.0635,2.1153,2.2411,2.332,2.4746,2.6901,2.8229,2.9302,3.0176,3.0664,3.0932,3.0932,3.1773,3.2437,3.2832,3.3707,3.4352,3.4746,3.4746,3.4726,3.4726,3.4726,3.4508,3.4079,3.3617,3.3422,3.3347,3.2969,3.3027,3.3363,3.3363,3.3144,3.2734,3.2374,3.2198,3.212,3.1665,3.1816,3.2179,3.2218,3.2492,3.2949,3.3785,3.373,3.3207,3.2452,3.3137,3.4095,3.4095,3.5019,3.6094,3.6521,3.6636,3.6756,3.7187,3.7285,3.7539,3.8397,3.8573,3.9485,4.2233,4.3123,4.4988,4.9368,5.0413,5.1814,5.4902,5.5268,5.5676,0.0,5.644,5.6401,5.6935,5.7531,5.8102,5.8635,5.8685,5.8911,5.9458,5.9483,5.9483,5.9483,5.9483,5.9483,5.9483,5.9483,5.9483,5.9483,5.9483,5.9483,5.9483,5.9483,5.9483,5.9458,5.8936,5.8736,5.866,5.8152,5.7951,5.7926,5.7951,5.7951,5.7951,1.7999,1.7999,1.7999,1.7999,1.7999,1.8097,1.8353,1.8392,1.8509,1.881,1.9346,0.0,0.0,0.0,0.0,0.0,2.382,2.5207,2.6523,2.8034,2.9166,2.9794,3.0503,3.0913,3.0913,3.1445,3.1953,3.2398,3.2965,3.361,3.4293,3.4293,3.4293,3.4293,3.4293,3.3903,3.3238,3.3066,3.2851,3.2613,3.275,3.2871,3.3066,3.3633,3.3066,3.1918,0.0,3.1348,3.0991,3.1714,3.148,3.103,3.1925,3.2476,3.291,3.3476,3.3519,3.348,3.3785,3.4176,3.4629,3.5215,3.5918,3.6502,3.6658,3.6912,3.7207,3.7637,3.7949,3.8338,3.8887,4.0303,4.1927,4.3525,4.6127,4.8678,5.0834,5.2707,5.4381,5.5769,5.6251,0.0,0.0,0.0,0.0,5.8058,5.8309,5.866,5.9207,5.9232,5.9307,5.9483,5.9483,5.9483,5.9483,5.9483,5.9483,5.9483,5.9483,5.9483,5.9483,5.9483,5.9307,5.8961,5.8961,5.878,5.8428,5.8252,5.8177,5.8152,5.7976,5.7675,5.7355,5.775,5.765,5.7305,1.8468,1.8468,1.8468,1.8468,1.8468,0.0,0.0,0.0,0.0,0.0,0.0,0.0,0.0,0.0,0.0,0.0,0.0,2.4848,2.5864,2.7226,2.8281,2.8894,2.9598,2.9975,2.9975,3.0371,3.0957,3.1749,3.1988,3.2652,3.3645,3.3645,3.3567,3.343,3.357,3.316,3.2324,3.2168,3.2144,3.2179,3.1968,3.2164,3.2613,3.2847,3.2164,0.0,3.0879,3.0254,2.9648,3.0517,3.0444,3.019,3.1377,3.2535,3.3496,3.3613,3.3968,3.4495,3.5215,3.5508,3.5801,3.6506,3.7031,3.7418,3.7557,3.7793,3.8144,3.8712,3.8828,3.9003,3.957,4.1722,4.3589,4.4123,4.7541,5.0532,5.1689,5.3381,5.4996,5.6335,5.6784,5.7311,5.8127,5.7832,5.7907,5.866,5.8886,5.9156,5.9483,5.9483,5.9483,5.9483,5.9483,5.9483,5.9483,5.9483,5.9583,5.9784,5.9583,5.9608,5.9784,5.9784,5.9589,5.9263,5.9263,5.9062,5.873,5.8334,5.8202,5.8177,5.7976,5.7656,5.738,5.775,5.7631,5.733,1.9306,1.9306,1.9306,0.0,0.0,0.0,0.0,0.0,0.0,0.0,0.0,0.0,0.0,0.0,0.0,0.0,0.0,0.0,2.4945,2.5872,2.6751,2.7598,2.8041,2.8275,2.8314,2.8678,2.9478,3.0776,3.0776,3.1421,3.2652,3.2652,3.2457,3.2159,3.2535,3.2226,3.1411,3.1035,3.1323,3.1925,3.0678,3.0932,3.1983,3.1206,3.0566,3.0092,2.9735,2.8998,2.8255,2.8334,2.8978,2.9891,3.0776,3.2715,3.459,3.4271,3.5039,3.6096,3.6599,3.7029,3.7422,3.7834,3.8281,3.8729,3.9101,3.9238,3.9492,4.0274,3.9805,3.9512,4.0293,4.2749,4.4591,4.4344,4.7679,5.0833,5.2304,5.2847,5.4093,5.6737,5.706,5.7512,5.8635,5.8736,5.8736,5.8736,0.0,5.9483,5.9483,5.9483,5.9483,5.9483,5.9483,5.9483,5.9483,5.9483,5.9784,6.0342,5.9809,5.9834,6.0342,6.0342,6.0317,6.0267,6.0267,6.0217,6.0091,5.9087,5.866,5.861,5.8102,5.7901,5.7901,5.7926,5.7951,5.7951,0.0,0.0,0.0,0.0,0.0,0.0,0.0,0.0,0.0,0.0,0.0,0.0,0.0,0.0,0.0,0.0,0.0,0.0,2.4124,2.5222,2.614,2.6712,2.7448,2.7982,2.8281,2.8398,2.8613,2.8965,2.8965,2.9467,3.0419,3.0419,3.0713,3.1245,3.1343,3.1055,3.0527,3.043,3.0137,2.9732,2.9741,2.997,3.0302,3.0737,3.0215,2.9263,2.9506,2.8627,2.7526,2.8822,3.0282,3.1749,3.2906,3.3727,3.4352,3.4919,3.5508,3.6174,3.6934,3.7441,3.7853,3.8301,3.8749,3.9062,3.918,3.9688,4.004,3.9629,3.9864,4.004,3.961,4.3686,4.7084,4.7028,5.1291,5.477,5.5145,5.5627,5.6383,5.7525,5.8033,5.8535,5.9232,5.9307,5.9307,0.0,5.9408,5.9483,5.9483,5.9483,5.9483,5.9483,5.9483,5.9483,5.9483,5.9483,5.9985,6.0964,6.0387,6.0412,6.0964,6.0964,6.0512,5.9709,5.9709,5.9257,5.8504,5.8227,5.8102,5.8102,5.7951,5.7901,5.7951,5.8347,5.8504,5.8535,0.0,0.0,0.0,0.0,0.0,0.0,0.0,0.0,0.0,0.0,0.0,0.0,0.0,0.0,0.0,0.0,0.0,0.0,0.0,2.4461,2.5144,2.5806,2.6307,2.6744,2.7155,2.7363,2.7747,2.8314,2.8119,2.8568,2.9598,2.9389,2.9467,2.978,2.9941,2.9668,2.9096,2.9096,2.8906,0.0,0.0,2.8685,2.9057,2.9369,2.9037,2.8418,2.8861,2.89,2.8926,3.0268,3.1631,3.2887,3.3805,3.4352,3.4802,3.5469,3.6213,3.6994,3.7676,3.8457,3.9103,3.9375,3.9746,3.998,3.959,3.9902,4.0039,3.9336,3.9453,3.957,3.9258,4.4066,4.7716,4.6567,5.1714,5.5683,5.5254,5.5824,5.6786,5.8089,5.851,5.8911,5.9433,5.9483,5.9483,5.9483,5.9483,5.9483,5.9483,5.9483,5.9483,5.9483,5.9483,5.9483,5.9483,5.9734,6.0311,6.1185,6.0337,6.0387,6.1185,6.0914,6.0462,5.9859,0.0,5.9508,5.8956,5.8704,5.8604,5.8604,5.8604,5.8604,5.8629,5.895,5.9056,5.9106,0.0,0.0,0.0,0.0,0.0,0.0,0.0,0.0,0.0,2.085,2.1466,2.1924,0.0,0.0,0.0,0.0,0.0,0.0,0.0,0.0,2.4093,2.4965,2.5016,2.5215,2.5686,2.6101,2.6849,2.7949,2.7611,2.8034,2.9168,2.8769,2.8404,2.8144,2.8483,2.8262,2.7604,2.7604,2.778,2.7969,2.7214,2.7383,2.8021,0.0,2.7585,2.7741,2.8158,2.9389,3.0952,3.1885,3.2808,3.3656,3.4196,3.488,3.5547,3.5901,3.6916,3.8009,3.8475,3.9531,4.0508,4.0567,4.0898,4.0976,4.0098,3.9941,3.9805,3.916,3.8846,3.8749,3.8984,4.3772,4.7039,4.5023,5.0622,5.5009,5.4411,5.5177,5.6561,5.8475,5.8761,5.8987,5.9458,5.9483,5.9483,5.9483,5.9483,5.9483,5.9483,5.9483,5.9533,5.9608,5.9608,5.9608,5.9608,5.9935,6.0437,6.1085,6.001,6.0105,6.1185,6.0663,6.0367,6.0292,6.0292,6.0267,6.0141,5.9684,5.9483,5.9483,5.9483,5.9483,5.9483,5.9483,5.9533,5.9608,0.0,0.0,0.0,0.0,0.0,0.0,0.0,0.0,0.0,0.0,2.2022,2.2022,0.0,0.0,0.0,0.0,0.0,0.0,0.0,0.0,0.0,2.4481,2.452,2.4891,2.5686,2.5784,2.5932,2.6147,2.6089,2.6355,2.6946,2.6868,2.6973,2.7233,2.7311,2.7253,2.7116,2.7116,2.6973,2.6712,2.6562,2.6595,2.6731,2.6653,2.7076,0.0,2.8158,2.916,3.0508,3.1788,3.3219,3.4609,3.5413,3.5764,3.5901,3.5979,3.6916,3.8009,3.8475,3.9531,4.0586,4.0976,4.1133,4.0976,4.0098,4.0156,3.9961,3.8439,3.8634,3.8906,3.8244,4.1982,4.5515,4.6684,5.1052,5.4826,5.6277,5.7428,5.8284,5.8647,5.9106,5.9408,5.9483,5.9483,5.9483,5.9483,5.9483,5.9483,5.9483,5.9483,5.9709,6.0141,6.0166,6.0166,6.0166,5.9363,5.9489,6.0462,5.9809,6.0105,6.121,6.111,6.0763,6.0292,6.0292,0.0,5.9633,5.9533,5.9483,5.9483,5.9483,5.9483,5.9483,5.9483,5.9784,6.0166,0.0,0.0,0.0,0.0,0.0,0.0,0.0,2.1552,2.1943,2.3027,2.3019,2.2882,2.2862,2.3016,2.3101,0.0,0.0,0.0,0.0,0.0,0.0,2.4371,2.4629,2.5059,2.5686,2.5706,2.5835,2.6062,0.0,2.5932,2.6399,2.614,2.6128,2.631,2.631,2.631,2.631,2.631,2.6206,2.6042,2.6042,2.6042,2.6081,2.6543,2.7246,0.0,2.8236,2.9414,3.0962,3.1621,3.3262,3.5176,3.5803,3.5999,3.6057,3.6289,3.7266,3.8359,3.8789,3.9863,4.0918,4.1133,4.1015,4.0547,3.9472,3.918,3.879,3.7539,3.7773,3.8144,3.7951,4.1079,4.4097,4.5254,5.0122,5.4202,5.5329,5.7595,5.9131,5.9131,5.9332,5.9483,5.9483,5.9483,5.9483,5.9483,5.9483,5.9483,5.9483,5.9759,5.991,5.9885,6.0141,6.0166,5.9885,5.9382,5.9514,6.0292,5.9759,5.9935,6.0713,6.0437,6.0161,5.9885,5.9885,0.0,5.9483,5.9483,5.9483,5.9483,5.9483,5.9659,5.9935,5.9935,6.0286,6.0763,0.0,0.0,0.0,0.0,0.0,0.0,0.0,2.2042,2.253,2.3898,2.3996,2.38,2.3479,2.3329,2.3209,0.0,0.0,0.0,0.0,0.0,0.0,0.0,2.4895,2.5285,2.5686,0.0,0.0,2.625,2.5874,0.0,0.0,0.0,0.0,0.0,2.5706,2.5706,2.5706,2.5706,2.5706,0.0,0.0,2.5764,2.5952,0.0,0.0,0.0,0.0,2.9492,3.1138,3.1411,3.3066,3.5078,3.5667,3.592,3.6116,3.6677,3.7654,3.871,3.9199,4.0273,4.1172,4.1074,4.0781,4.0137,3.875,3.8146,3.7638,3.6736,3.6934,3.7402,3.7716,4.0191,4.2499,4.3449,4.8625,5.2892,5.3933,5.7114,5.9382,5.9483,5.9483,5.9483,5.9483,5.9483,5.9483,5.9483,5.9608,5.9583,5.9332,6.0085,6.0186,5.9508,6.0016,6.0041,5.9508,5.9382,5.9558,5.994,5.9533,5.9608,6.0116,5.9684,5.9483,5.9483,5.9483,0.0,5.9483,5.9483,5.9483,5.9508,5.9633,5.9935,6.0317,6.0462,6.0864,6.1386,0.0,0.0,0.0,0.0,0.0,0.0,0.0,2.245,2.3047,2.475,2.4621,2.4324,2.4305,2.3965,2.3563,0.0,0.0,0.0,0.0,0.0,0.0,0.0,0.0,0.0,0.0,0.0,0.0,2.5764,2.5725,0.0,0.0,0.0,0.0,0.0,0.0,2.5706,2.5706,2.5706,0.0,0.0,0.0,0.0,0.0,0.0,0.0,0.0,0.0,2.8939,2.9936,3.1113,3.2426,3.3812,3.5059,3.5723,3.6155,3.6992,3.7889,3.8768,3.9609,4.0507,4.1094,4.0664,4.0528,4.0059,3.8361,3.7931,3.756,3.6311,3.6719,3.7305,3.7344,3.8561,4.044,4.3146,4.6811,5.0446,5.3647,5.68,5.8936,5.9433,5.9483,5.9483,5.9483,5.9483,5.9483,5.9483,5.996,5.979,5.8836,6.0261,6.0632,5.9533,6.0016,6.0041,5.9508,5.9012,5.8786,5.8836,5.8786,5.9037,5.9558,5.9508,5.9483,5.9483,5.9483,0.0,0.0,5.9483,5.9483,5.9533,6.006,6.0267,6.0367,6.0934,6.1441,6.1943,0.0,0.0,0.0,0.0,0.0,0.0,2.2726,2.2932,2.3527,2.5254,2.5078,2.4816,2.4816,2.4691,2.418,2.319,0.0,0.0,0.0,0.0,0.0,0.0,0.0,0.0,0.0,0.0,2.5706,2.5706,0.0,0.0,0.0,0.0,0.0,0.0,0.0,0.0,2.5706,2.5706,0.0,0.0,0.0,0.0,0.0,0.0,0.0,0.0,0.0,0.0,3.0503,3.125,3.2524,3.3961,3.4726,3.5273,3.5918,3.7248,3.8105,3.8846,3.9961,4.0703,4.1094,4.0606,4.0313,3.9746,3.8244,3.7716,3.7324,3.6562,3.6875,3.7383,3.7637,3.8301,3.9475,4.1409,4.4481,4.7357,4.9523,5.387,5.6902,5.714,5.8561,5.9483,5.9483,5.9483,5.9483,5.9483,5.9709,5.9489,5.8736,5.994,6.0161,5.9037,5.9238,5.9388,5.9483,5.8961,5.8861,5.9182,5.9182,5.9307,5.9483,5.9483,5.9483,5.9483,5.9483,0.0,0.0,5.9483,5.9684,5.9991,6.0217,6.0719,6.1346,6.1592,6.2019,6.2476,0.0,0.0,0.0,0.0,0.0,2.1601,2.2814,2.3205,2.3878,2.534,2.5285,2.5094,2.5094,2.4984,2.4512,2.356,2.3482,0.0,0.0,0.0,0.0,0.0,0.0,0.0,0.0,0.0,2.5706,2.5706,2.5706,0.0,0.0,0.0,0.0,0.0,0.0,0.0,0.0,0.0,0.0,0.0,0.0,0.0,0.0,0.0,0.0,0.0,0.0,0.0,0.0,0.0,0.0,3.4157,3.457,3.5019,3.5723,3.7404,3.8223,3.8885,4.0157,4.0742,4.0898,4.0586,4.0079,3.9375,3.8185,3.758,3.7205,3.6775,3.7029,3.7422,3.7834,3.8281,3.8983,4.0118,4.2877,4.5312,4.6646,5.1176,5.4669,5.5505,5.7331,5.8779,5.9425,5.9357,5.9257,5.9257,5.9257,5.9031,5.8485,5.9338,5.9489,5.8736,5.8836,5.9131,5.9483,5.9131,5.9131,5.9483,5.9483,5.9483,5.9483,5.9483,5.9483,5.9483,5.9483,0.0,0.0,5.9659,5.996,6.0342,6.0668,6.1296,6.2019,6.2195,6.2476,6.2802,0.0,0.0,0.0,0.0,0.0,0.0,2.2372,2.3242,2.4124,2.4984,2.5102,2.5094,2.5094,2.4699,2.4402,2.4402,2.4402,0.0,0.0,0.0,0.0,0.0,0.0,0.0,0.0,0.0,2.5706,2.5706,2.5706,2.5706,2.5706,2.5706,0.0,0.0,0.0,0.0,0.0,0.0,0.0,0.0,0.0,0.0,2.7741,0.0,0.0,0.0,0.0,0.0,0.0,0.0,0.0,0.0,0.0,3.5019,3.5723,3.7404,3.8223,3.8885,4.0157,4.0508,4.0508,4.0508,3.9844,3.8984,3.8107,3.758,3.7205,3.6775,3.7029,3.7422,3.7834,3.8281,3.8885,3.9766,4.237,4.481,4.62,4.9317,5.2486,5.528,5.5985,5.7075,5.9289,5.9012,5.871,5.871,5.8704,0.0,5.7926,5.8409,5.871,5.871,5.9207,5.9483,5.9483,5.9483,5.9483,5.9483,5.9483,5.9483,5.9483,5.9483,5.9483,5.9483,0.0,0.0,0.0,6.0066,6.0292,6.0417,6.1542,6.1994,6.2069,6.2601,6.2802,6.2802,0.0,0.0,0.0,0.0,0.0,0.0,0.0,2.2977,2.363,2.4512,2.4386,2.4308,2.459,2.4777,2.4887,2.4887,2.459,0.0,0.0,0.0,0.0,0.0,0.0,0.0,0.0,0.0,2.5706,2.5706,2.6023,2.6023,2.5706,2.6042,2.6003,2.5706,0.0,0.0,0.0,0.0,0.0,0.0,0.0,2.7728,2.8119,0.0,0.0,0.0,0.0,0.0,0.0,0.0,0.0,0.0,0.0,0.0,0.0,3.6658,3.7578,3.8281,3.9004,3.9394,3.9454,3.8868,3.8517,3.8105,3.7283,3.699,3.6853,3.6734,3.7029,3.7422,3.7834,3.8281,3.9081,4.0546,4.1793,4.3159,4.4801,4.9044,5.2349,5.3233,5.6362,5.8571,5.8929,5.8786,5.871,5.871,5.8353,5.8403,5.8956,5.8811,5.871,5.871,5.8861,5.9131,5.9483,5.9483,5.9483,5.9483,5.9483,5.9483,5.9483,5.9483,5.9483,0.0,0.0,0.0,6.0041,6.0217,6.0744,6.1517,6.1868,6.2225,6.2576,6.2752,6.2802,6.2802,0.0,0.0,0.0,0.0,0.0,0.0,0.0,2.2986,2.3563,2.409,2.3965,2.3945,2.4363,2.4668,2.4906,2.5082,2.498,0.0,0.0,0.0,0.0,0.0,0.0,0.0,0.0,2.562,2.5796,2.5952,2.625,2.625,2.5971,2.6269,2.614,2.5706,2.5706,0.0,0.0,0.0,0.0,0.0,2.7318,2.7786,2.8314,0.0,0.0,0.0,0.0,0.0,0.0,0.0,0.0,0.0,0.0,0.0,0.0,0.0,3.6914,3.7578,3.8164,3.8516,3.8614,3.8262,3.793,3.7539,3.7049,3.6795,3.6736,3.6892,3.7246,3.7656,3.8086,3.8516,3.9237,4.0507,4.1211,4.2407,4.4823,4.841,5.1541,5.3548,5.7158,5.9282,5.8761,5.851,5.8384,5.8384,5.7882,5.8033,5.9156,5.8886,5.8786,5.9006,5.8987,5.9156,5.9483,5.9483,5.9483,5.9483,5.9483,5.9483,5.9483,5.9483,5.9608,0.0,0.0,6.0136,0.0,6.0864,6.1346,6.2019,6.2225,6.2501,6.2802,6.2802,6.2802,6.2802,0.0,0.0,0.0,0.0,0.0,0.0,0.0,2.3184,2.3722,2.3742,2.3761,2.3887,2.4266,2.4344,2.4539,2.5004,0.0,0.0,0.0,0.0,0.0,0.0,0.0,0.0,2.5094,2.5496,2.5913,2.636,2.6406,2.6438,2.6399,2.6458,2.623,2.5745,2.5745,2.5725,0.0,0.0,0.0,0.0,2.7077,2.7578,0.0,0.0,0.0,0.0,0.0,0.0,0.0,0.0,0.0,0.0,0.0,0.0,0.0,0.0,0.0,0.0,0.0,3.7795,3.7912,3.8319,3.7811,3.7207,3.7207,3.6951,0.0,3.7207,3.7598,3.8009,3.8553,3.8905,3.9297,3.9883,4.0818,4.2639,4.603,4.786,5.0754,5.5864,5.8271,5.9282,5.8761,5.8234,5.7951,5.7901,5.743,5.7606,5.871,5.8761,5.9006,5.9483,5.9483,5.9483,5.9483,5.9483,5.9483,5.9483,5.9483,5.9483,5.9483,5.9533,5.9834,0.0,0.0,6.0713,6.1311,6.1793,6.2019,6.2119,6.2601,6.2802,6.2802,6.2802,6.2802,6.2802,0.0,0.0,0.0,0.0,0.0,0.0,0.0,0.0,0.0,0.0,2.3268,2.3298,2.3404,2.3719,2.4102,0.0,0.0,0.0,0.0,0.0,0.0,0.0,0.0,0.0,2.5094,2.5496,2.5745,2.5874,2.653,2.6699,2.6419,2.7076,2.6966,2.623,2.623,2.6042,0.0,0.0,0.0,0.0,2.7734,2.8105,0.0,0.0,0.0,0.0,2.8756,2.9751,0.0,0.0,0.0,0.0,0.0,0.0,0.0,0.0,3.584,3.6211,3.6389,0.0,3.6931,3.668,3.6465,3.6311,0.0,3.6504,3.6814,3.7207,3.7383,3.7773,3.8848,3.8594,3.8809,4.0605,4.2664,4.4824,4.7092,5.1423,5.5573,5.8946,5.9423,5.9282,5.8761,5.8585,5.8334,5.7926,5.8133,5.8585,5.9282,5.9307,5.9357,5.9483,5.9483,5.9483,5.9483,5.9483,5.9483,5.9483,5.9483,5.9483,5.9508,5.9915,6.0166,0.0,6.0788,6.1291,6.1818,6.1943,6.2225,6.2626,6.2752,6.2802,6.2802,6.2802,6.2802,6.2802,0.0,0.0,0.0,0.0,0.0,0.0,0.0,0.0,0.0,0.0,0.0,2.3101,2.3101,2.3337,0.0,0.0,0.0,0.0,0.0,0.0,0.0,0.0,0.0,2.4699,2.4515,2.53,2.5815,2.6023,2.6491,2.6699,2.668,2.6966,2.6861,2.6399,2.6159,2.5945,0.0,0.0,0.0,2.7057,2.7747,0.0,0.0,0.0,0.0,0.0,2.8756,2.9751,0.0,3.1601,3.2656,3.3789,0.0,0.0,0.0,0.0,3.5547,3.5764,3.5959,3.6191,3.6309,3.6057,3.5999,3.6057,3.6269,3.6521,3.6814,3.7207,3.7617,3.8027,3.8516,4.0083,4.1196,4.0915,4.4773,4.862,5.0992,5.5007,5.8266,5.9773,5.9684,5.9282,5.8761,5.871,5.8585,5.8284,5.8535,5.8936,5.9458,5.9483,5.9483,5.9483,5.9483,5.9483,5.9483,5.9483,5.9483,5.9483,5.9759,5.9885,5.9885,6.0462,6.0864,0.0,6.1416,6.1868,6.2375,6.2375,6.2526,6.2802,6.2802,6.2802,6.2802,6.2802,6.2802,6.2802,0.0,0.0,0.0,0.0,0.0,0.0,0.0,0.0,0.0,0.0,0.0,0.0,0.0,0.0,0.0,0.0,0.0,0.0,0.0,0.0,0.0,0.0,0.0,2.416,2.38,2.4988,2.5828,2.6289,2.6497,2.6758,2.7097,2.6875,2.6692,2.6465,2.601,2.5764,0.0,0.0,2.6699,2.7038,2.7572,0.0,0.0,0.0,0.0,0.0,0.0,0.0,0.0,3.1905,3.3,3.4059,3.4394,0.0,0.0,0.0,0.0,0.0,3.5979,3.6194,3.6252,3.6057,3.5999,3.6096,3.6502,3.6697,3.6873,3.7148,3.7891,3.8564,3.8772,4.185,4.3736,4.1807,4.6987,5.2399,5.5626,5.8038,5.9533,5.9608,5.9533,5.9357,5.8987,5.8861,5.8811,5.8811,5.8811,5.9012,5.9483,5.9483,5.9483,5.9483,5.9483,5.9483,5.9483,5.9483,5.9533,5.9633,6.0066,6.0342,6.0442,6.104,6.1567,6.1999,0.0,0.0,6.2802,6.2802,6.2802,6.2802,6.2802,6.2802,6.2802,6.2802,6.2802,6.2802,0.0,0.0,0.0,0.0,0.0,0.0,0.0,0.0,0.0,0.0,0.0,0.0,0.0,0.0,0.0,0.0,0.0,0.0,0.0,0.0,0.0,2.2217,2.3281,2.3848,2.38,2.4719,2.5391,2.5815,2.6946,2.7526,2.7604,2.8223,2.7936,2.6882,2.6484,2.6062,2.5745,2.6557,2.694,2.7077,2.7871,0.0,0.0,0.0,0.0,0.0,0.0,0.0,0.0,3.1905,3.2773,3.3519,3.3578,0.0,0.0,0.0,0.0,0.0,3.6384,3.709,3.7346,3.6272,3.5999,3.6018,3.6077,3.668,3.7146,3.6834,3.7441,3.9017,4.2292,4.1388,4.1433,4.535,4.9114,5.3106,5.7578,5.8964,5.9659,6.0116,5.9784,5.9659,6.0016,5.9659,5.9382,5.9382,5.9382,5.9408,5.9483,5.9483,5.9483,5.9483,5.9483,5.9483,5.9483,5.9483,5.9734,6.0166,6.0267,6.0588,6.1085,6.1617,6.1918,6.2044,0.0,6.2727,6.2802,6.2802,6.2802,6.2802,6.2802,6.2802,6.2802,6.2802,6.2802,6.2802,0.0,0.0,0.0,0.0,0.0,0.0,0.0,0.0,0.0,0.0,0.0,0.0,0.0,0.0,0.0,0.0,0.0,0.0,0.0,0.0,0.0,2.1572,2.2732,2.3415,2.3415,2.4734,2.5749,2.6401,2.7278,2.7917,2.834,2.8281,2.7689,2.666,2.6218,2.5893,2.5764,2.6615,2.6999,2.7077,0.0,0.0,0.0,0.0,0.0,0.0,0.0,0.0,0.0,0.0,3.291,3.3441,3.3691,0.0,0.0,0.0,0.0,0.0,3.5759,3.6269,3.6641,3.6955,3.7736,3.8497,3.875,3.9277,3.9551,3.8887,3.9258,4.0615,4.367,4.4807,4.7258,5.3214,5.3951,5.5024,5.8627,5.9357,5.9583,5.9834,5.991,6.0035,6.0267,6.0085,5.9935,5.9935,5.9659,5.9483,5.9483,5.9483,5.9483,5.9483,5.9483,5.9483,5.9483,5.9784,6.0041,6.0317,6.0919,6.1366,6.1642,6.2195,6.2425,6.245,0.0,6.2802,6.2802,6.2802,6.2802,6.2802,6.2802,6.2802,6.2802,6.2802,6.2802,6.2802,0.0,0.0,0.0,0.0,0.0,0.0,0.0,0.0,0.0,0.0,0.0,0.0,0.0,0.0,0.0,0.0,0.0,0.0,0.0,0.0,2.2754,2.1415,2.2498,2.322,2.3404,2.4906,2.6186,2.7155,2.7819,2.8451,2.9062,2.8216,2.7389,2.6523,2.6081,2.5803,2.5764,2.6615,2.6999,2.7077,0.0,0.0,0.0,0.0,0.0,0.0,0.0,0.0,0.0,0.0,0.0,0.0,0.0,0.0,0.0,3.4176,3.4235,3.4469,3.5547,3.5976,3.6465,3.7853,3.8829,3.9727,4.0781,4.1113,4.119,4.1236,4.1767,4.2941,4.5204,4.8534,5.2526,5.7456,5.6829,5.6612,5.9137,5.9483,5.9483,5.9483,5.9966,6.0342,6.0512,6.0512,6.0512,6.0512,6.001,5.9633,5.9508,5.9483,5.9483,5.9483,5.9483,5.9558,5.9684,6.0217,6.0512,6.0518,6.1517,6.2069,6.2199,6.2626,6.2802,6.2802,6.2802,6.2802,6.2802,6.2802,6.2802,6.2802,6.2802,6.2802,6.2802,6.2802,6.2802,6.2802,0.0,0.0,0.0,0.0,0.0,0.0,0.0,0.0,0.0,0.0,0.0,0.0,0.0,0.0,0.0,0.0,0.0,0.0,0.0,0.0,2.1983,2.1866,2.2717,2.3546,2.4305,2.5218,2.6335,2.7643,2.8855,2.95,2.954,2.8666,2.7793,2.694,2.6523,2.6101,2.5764,2.6615,2.6999,2.7077,2.7949,0.0,0.0,0.0,0.0,0.0,0.0,0.0,0.0,0.0,0.0,0.0,0.0,0.0,3.3617,3.4414,3.4648,3.5019,3.6699,3.7752,3.8495,3.8984,3.7697,3.7072,3.9903,3.9961,4.0148,4.283,4.4434,4.6033,4.8188,5.0546,5.2178,5.2223,5.4454,5.6943,5.9167,5.9483,5.9483,5.9483,5.9966,6.0537,6.1085,6.1135,6.1135,6.1135,6.0588,6.0035,5.9533,5.9483,5.9483,5.9483,5.9483,5.9734,6.0242,6.0839,6.1135,6.116,6.1718,6.225,6.2752,6.2802,6.2802,6.2802,6.2802,6.2802,6.2802,6.2802,6.2802,6.2802,6.2802,6.2802,6.2802,6.2802,6.2802,6.2802,0.0,0.0,0.0,0.0,0.0,0.0,0.0,0.0,0.0,0.0,0.0,0.0,0.0,0.0,0.0,0.0,0.0,0.0,0.0,2.1874,2.2266,2.2266,2.2873,2.382,2.5191,2.6069,2.7155,2.8437,2.9467,2.9701,2.9141,2.8314,2.7454,2.6602,2.6159,2.6042,2.6159,2.6745,2.7168,2.7493,2.808,2.8314,0.0,0.0,0.0,0.0,0.0,0.0,0.0,0.0,3.2066,3.2496,3.2891,3.3187,3.3519,3.4141,3.4121,3.4203,3.5703,3.6951,3.7891,3.8283,3.8185,3.8693,4.1484,4.3338,4.441,4.414,4.6914,4.9546,5.0094,5.4092,5.6582,5.4432,5.643,5.8539,5.9386,5.9483,5.9608,5.996,6.0512,6.109,6.1642,6.1692,6.1542,6.1235,6.0638,6.0066,5.9533,5.9483,5.9483,5.9483,5.9834,6.0091,6.0292,6.124,6.1692,6.1692,6.2225,6.2601,6.2802,6.2802,6.2802,6.2802,6.2802,6.2802,6.2802,6.2802,6.2802,6.2802,6.2802,6.2802,6.2802,6.2802,6.2802,6.2802,0.0,0.0,0.0,0.0,0.0,0.0,0.0,0.0,0.0,0.0,0.0,0.0,0.0,0.0,0.0,0.0,0.0,0.0,2.1649,2.206,2.2431,2.2674,2.3136,2.4102,2.5667,2.6706,2.7715,2.8697,2.9453,2.9434,2.8697,2.8015,2.737,2.679,2.6316,2.6296,2.6602,2.6882,2.7187,2.7526,2.7943,2.8275,0.0,0.0,0.0,0.0,0.0,0.0,0.0,0.0,3.1816,3.2276,3.2656,3.3086,3.348,3.3961,3.4274,3.4707,3.5879,3.6934,3.7928,3.873,3.918,4.0098,4.2715,4.5149,4.6869,4.6845,4.9246,5.1574,5.2323,5.5265,5.7127,5.5821,5.7799,5.9483,5.9483,5.9483,5.9709,6.0242,6.0839,6.1411,6.1943,6.2149,6.2044,6.1492,6.0914,6.0337,5.9784,5.9583,5.9583,5.9759,6.0091,6.0468,6.0819,6.1617,6.2074,6.225,6.2626,6.2802,6.2802,6.2802,6.2802,6.2802,6.2802,6.2802,6.2802,6.2802,6.2802,6.2802,6.2802,6.2802,6.2802,6.2802,6.2802,6.2802,0.0,0.0,0.0,0.0,0.0,0.0,0.0,0.0,0.0,0.0,0.0,0.0,0.0,0.0,0.0,0.0,0.0,0.0,2.2509,2.2129,2.2266,2.3062,2.3544,2.4394,2.5667,2.7005,2.7897,2.8314,2.8697,2.8678,2.8275,2.7878,2.7695,2.7663,2.7207,2.6999,2.6999,2.6999,2.6999,2.7038,2.7526,2.8197,2.8912,0.0,0.0,0.0,0.0,0.0,0.0,0.0,3.1797,3.2257,3.2672,3.307,3.348,3.3961,3.531,3.6853,3.7658,3.8242,3.9022,4.0761,4.0566,4.0605,4.3125,4.4437,4.6461,5.1176,5.142,5.1792,5.5,5.3459,5.254,5.5178,5.7799,5.9483,5.9483,5.9483,5.9709,6.0242,6.0839,6.1391,6.1969,6.2476,6.2576,6.2044,6.1512,6.0939,6.0342,5.9809,5.9759,6.0292,6.0317,6.0844,6.1994,6.2019,6.2275,6.2802,6.2802,6.2802,6.2802,6.2802,6.2802,6.2802,6.2802,6.2802,6.2802,6.2802,6.2802,6.2802,6.2802,6.2802,6.2802,6.2827,6.2827,6.2827,0.0,0.0,0.0,0.0,0.0,0.0,0.0,0.0,0.0,0.0,0.0,0.0,0.0,0.0,0.0,0.0,0.0,0.0,2.2509,2.2392,2.2704,2.3555,2.3722,2.4394,2.5667,2.6406,2.7422,2.8717,2.8555,2.8105,2.737,2.7266,2.6894,2.6316,2.6784,2.6843,2.6602,2.6882,2.7187,2.7532,2.7943,2.8437,2.8971,0.0,0.0,0.0,0.0,0.0,0.0,0.0,0.0,0.0,3.2242,3.2851,3.348,3.3961,3.4466,3.5056,3.5898,3.7793,3.9491,3.9394,4.1211,4.3183,4.3613,4.5373,4.8448,5.3854,5.3319,5.261,5.5142,5.6447,5.6813,5.5749,5.7799,5.9483,5.9483,5.9483,5.9859,6.0814,6.111,6.1542,6.2476,6.2701,6.2576,6.2044,6.1843,6.1341,6.0342,6.0537,6.0563,6.0317,6.109,6.1667,6.1994,6.2375,6.2651,6.2802,6.2802,6.2802,6.2802,6.2802,6.2802,6.2802,6.2802,6.2802,6.2802,6.2802,6.2802,6.2802,6.2802,6.2802,6.2852,6.3299,6.3425,6.3475,0.0,0.0,0.0,0.0,0.0,0.0,0.0,0.0,1.8959,1.9439,2.0127,2.0956,0.0,0.0,0.0,2.2655,2.2899,2.2938,2.2752,2.2587,2.288,2.3761,2.38,2.4473,2.5945,2.625,2.6894,2.791,2.7832,2.7441,2.6777,2.7285,2.7233,2.6784,2.7643,2.7708,2.7181,2.7422,2.7676,2.7962,2.8392,2.899,2.9751,0.0,0.0,0.0,0.0,0.0,0.0,0.0,0.0,0.0,3.212,3.2734,3.3597,3.457,3.5583,3.6638,3.7656,3.9512,4.1172,4.1152,4.2637,4.4238,4.4648,4.6652,4.991,5.5121,5.4127,5.3305,5.6544,5.7594,5.778,5.7248,5.8478,5.9558,5.9784,5.9633,5.9985,6.1341,6.1336,6.1617,6.2701,6.2802,6.2676,6.2325,6.2119,6.1617,6.0713,6.0989,6.1034,6.0663,6.1542,6.2099,6.232,6.2651,6.2802,6.2802,6.2802,6.2927,6.3153,6.2902,6.2802,6.2802,6.2802,6.2802,6.2802,6.2802,6.2802,6.2807,6.3053,6.3153,6.3229,6.3822,6.4023,6.4073,0.0,0.0,0.0,0.0,0.0,0.0,0.0,1.7626,1.8087,1.9188,1.9337,1.9804,0.0,0.0,0.0,2.2879,2.3429,2.3563,2.3131,2.2791,2.2988,2.382,2.3937,2.4707,2.6289,2.634,2.634,2.634,2.6758,2.6738,2.6348,2.765,2.8216,2.8216,2.9076,2.9012,2.8184,2.8184,2.8184,2.8223,2.8697,2.9668,3.0796,3.082,0.0,0.0,0.0,0.0,0.0,0.0,0.0,0.0,3.2237,3.2773,3.3714,3.5296,3.7599,3.9922,4.1074,4.2227,4.338,4.453,4.4355,4.4316,4.5937,4.8009,5.0799,5.5026,5.4009,5.3825,5.8621,5.7555,5.6735,5.9092,5.9483,5.9684,6.0217,5.9885,6.0186,6.1818,6.1567,6.1667,6.2701,6.2802,6.2802,6.2802,6.235,6.1868,6.1386,6.1411,6.1436,6.1436,6.1943,6.2446,6.2877,6.2877,6.2852,6.2802,6.2802,6.3103,6.3676,6.3128,6.2877,6.2877,6.2877,6.2852,6.2802,6.2802,6.2852,6.2927,6.3475,6.3726,6.3847,6.4375,6.4551,6.4576,0.0,0.0,0.0,0.0,0.0,0.0,1.6162,1.7068,1.7789,1.8056,1.8091,1.8549,1.977,1.9973,0.0,2.158,2.2653,2.3209,2.3112,2.3368,2.375,2.4246,2.493,2.5464,2.5835,2.5854,2.5854,2.5854,2.6309,2.6309,2.5874,2.722,2.763,2.7311,2.8197,2.8099,2.7272,2.7272,2.7272,2.737,2.8463,2.9297,2.9897,3.0229,3.0566,0.0,0.0,0.0,0.0,0.0,0.0,0.0,3.2574,3.3008,3.3464,3.3851,3.5803,3.791,3.8184,4.0644,4.3165,4.3438,4.4396,4.5451,4.6133,4.8009,5.0357,5.3065,5.316,5.4158,5.8676,5.9054,5.8849,5.9425,5.9483,5.9684,6.0217,6.0191,6.0593,6.1843,6.1893,6.2094,6.2752,6.2802,6.2802,6.2802,6.2701,6.2576,6.245,6.2898,6.3169,6.3169,6.3672,6.3822,6.35,6.35,6.3274,6.2802,6.2802,6.3103,6.3701,6.3576,6.35,6.35,6.35,6.3229,6.2802,6.2802,6.3078,6.3525,6.3651,6.3973,6.44,6.4927,6.5128,6.5204,0.0,0.0,0.0,0.0,0.0,0.0,0.0,0.0,1.7169,1.7051,1.7037,1.7498,1.8691,1.9397,0.0,0.0,2.2615,2.3337,2.3101,2.3544,2.4093,2.4719,2.5347,2.5706,2.5706,2.5706,2.5706,2.5706,2.5952,2.5932,2.5725,2.6836,2.7226,2.7038,2.791,2.793,2.7357,2.7539,2.7871,2.832,2.918,2.9805,3.0263,3.0464,3.0547,3.0527,3.0293,0.0,0.0,0.0,0.0,0.0,0.0,0.0,3.3558,3.4398,3.6211,3.8202,3.9414,4.1523,4.3595,4.4414,4.5177,4.5803,4.6211,4.7206,4.8655,5.0862,5.2156,5.3926,5.7292,5.7932,5.8266,5.9328,5.9709,6.0085,6.0638,6.0738,6.114,6.225,6.2149,6.2199,6.2752,6.2802,6.2802,6.2802,6.2802,6.2802,6.2802,6.3103,6.34,6.3676,6.3973,6.4099,6.4073,6.4073,6.3948,6.3601,6.3601,6.3776,6.4073,6.4073,6.4073,6.4073,6.4073,6.3898,6.3601,6.3601,6.3802,6.4099,6.4375,6.4651,6.4953,6.5484,6.5685,6.5735,0.0,0.0,0.0,0.0,0.0,0.0,0.0,0.0,0.0,1.6324,1.6297,1.6758,1.7974,1.9052,2.0042,0.0,0.0,0.0,2.2805,2.349,2.4289,2.516,2.5515,2.5706,2.5706,2.5706,2.5706,2.5706,2.5706,2.5745,2.5835,2.6615,2.6999,2.7038,2.7741,2.7943,2.7715,2.7962,2.8549,2.9305,2.9799,3.0215,3.0547,3.0547,3.041,3.0176,3.0117,3.0952,3.1983,3.1245,0.0,0.0,0.0,0.0,3.3695,3.514,3.6953,3.8925,4.0957,4.2539,4.4043,4.584,4.5996,4.5803,4.6211,4.6595,4.7273,4.8741,5.0799,5.3127,5.5734,5.6195,5.6916,5.9154,5.996,6.0512,6.1135,6.1285,6.1692,6.2676,6.24,6.23,6.2777,6.2802,6.2802,6.2802,6.2902,6.3003,6.3078,6.3178,6.3505,6.4103,6.4103,6.43,6.4626,6.4647,6.4547,6.435,6.4471,6.4547,6.4626,6.4726,6.4676,6.4521,6.4597,6.4597,6.4496,6.4496,6.4551,6.4676,6.5128,6.538,6.5484,6.5936,6.609,6.609,0.0,0.0,0.0,0.0,0.0,0.0,0.0,0.0,0.0,0.0,1.6297,1.6758,1.7974,1.8053,1.8481,1.9645,1.994,2.049,2.148,0.0,0.0,2.5581,2.5667,2.5706,2.5706,2.5706,2.5706,2.5706,2.5706,2.5913,2.6321,2.6784,2.6999,2.7018,2.7116,2.7376,2.7676,2.7324,2.7493,2.8015,2.8769,2.9107,2.9166,2.9166,2.9609,3.0156,2.9813,3.0503,3.1567,3.145,3.1992,0.0,0.0,0.0,3.3461,3.3675,3.5764,3.799,3.7988,4.0527,4.3692,4.5781,4.5996,4.5803,4.6211,4.7772,4.8719,4.7076,4.8505,5.1302,5.5446,5.6215,5.6916,5.9154,5.996,6.0512,6.1135,6.1592,6.2119,6.2727,6.2752,6.2727,6.2802,6.2802,6.2802,6.2802,6.3279,6.3776,6.4249,6.4705,6.5208,6.576,6.5785,6.5584,6.5204,6.5183,6.4726,6.3802,6.4274,6.4726,6.5229,6.5685,6.5383,6.4547,6.5003,6.4927,6.4496,6.4496,6.4777,6.5204,6.5258,6.5584,6.599,6.6065,6.609,6.609,0.0,0.0,0.0,0.0,0.0,0.0,0.0,0.0,0.0,0.0,0.0,1.6938,1.7278,1.7683,1.8078,1.8461,1.9108,2.0116,2.161,2.3381,2.4695,2.5332,2.5581,2.5706,2.5706,2.5476,2.5476,2.5706,2.5476,2.5723,2.6419,2.6816,2.6999,2.6999,2.6765,2.7044,2.7676,2.7207,2.7526,2.8398,2.8756,2.9634,3.0605,2.9361,2.9902,3.1128,2.9721,3.0059,3.1133,3.0859,3.1352,3.2129,3.2378,0.0,0.0,0.0,3.5254,3.7228,3.8984,4.1426,4.3887,4.582,4.6172,4.6074,4.6269,4.7054,4.7468,4.6507,4.7076,4.9105,5.3558,5.4354,5.5584,5.9357,6.0437,6.0989,6.1567,6.2119,6.2526,6.2777,6.2802,6.2802,6.2802,6.2802,6.2802,6.2802,6.3375,6.3948,6.445,6.4726,6.5254,6.6065,6.581,6.5685,6.576,6.576,6.5509,6.5032,6.4978,6.5078,6.5329,6.5534,6.5559,6.5409,6.5634,6.5609,6.5383,6.5383,6.5534,6.576,6.576,6.5886,6.609,6.609,6.609,6.609,0.0,0.0,0.0,0.0,0.0,0.0,0.0,0.0,0.0,0.0,0.0,1.7214,1.7287,0.0,0.0,0.0,1.8562,1.9754,2.1396,2.2933,2.4051,2.4624,2.5222,2.5601,2.5706,2.5305,2.5305,2.5706,2.5305,2.561,2.6562,2.6862,2.7116,2.7311,2.6907,2.7096,2.7676,2.7337,2.7838,2.8951,2.9381,3.0547,3.191,3.0786,3.1465,3.2726,3.0527,0.0,0.0,0.0,3.0859,3.1738,3.2085,3.2734,0.0,0.0,0.0,3.6562,3.9823,4.1601,4.3047,4.5117,4.5723,4.5898,4.623,4.6308,4.6308,4.6308,4.6308,4.7663,5.2073,5.2901,5.4515,5.9499,6.0814,6.1386,6.1918,6.245,6.2802,6.2802,6.2802,6.2802,6.2802,6.2802,6.2802,6.2802,6.3475,6.4073,6.4496,6.4626,6.5078,6.5886,6.5509,6.5484,6.5886,6.5911,6.5986,6.609,6.5559,6.5358,6.5484,6.5484,6.5735,6.609,6.609,6.609,6.609,6.609,6.609,6.609,6.609,6.609,6.609,6.609,6.609,6.609,0.0,0.0,0.0,0.0,0.0,0.0,0.0,0.0,0.0,0.0,0.0,1.7627,1.8768,1.7386,1.6855,1.798,1.7899,1.847,2.0102,2.1414,2.251,2.3365,2.4519,0.0,2.5686,2.5305,2.5305,2.5706,2.5305,2.5735,2.696,2.6999,2.7428,2.8203,2.7819,2.7656,2.7715,2.7663,2.8138,2.9035,3.0708,3.143,3.1743,3.3672,3.4746,0.0,0.0,0.0,0.0,0.0,0.0,0.0,0.0,3.2734,3.348,0.0,0.0,0.0,3.8594,3.9375,4.0137,4.3105,4.418,4.4824,4.6016,4.6308,4.6308,4.6308,4.6308,4.7663,5.2073,5.2901,5.4515,5.9499,6.0814,6.1386,6.1918,6.245,6.2802,6.2802,6.2802,6.2802,6.2802,6.2802,6.2802,6.2802,6.3827,6.445,6.4496,6.4978,6.5283,6.5333,6.5308,6.5308,6.5333,6.5333,6.5584,6.609,6.5559,6.5559,6.604,6.604,6.6065,6.609,6.609,6.609,6.609,6.609,6.609,6.609,6.609,6.609,6.609,6.609,6.609,6.609,0.0,0.0,0.0,0.0,0.0,0.0,0.0,0.0,0.0,0.0,0.0,0.0,0.0,1.7069,1.6658,1.6917,1.8122,1.9088,1.9678,2.1873,2.3408,2.3991,2.4702,2.5285,2.5686,2.5305,2.5305,2.5706,2.5305,2.563,2.6634,2.7181,2.7624,2.7917,2.7761,2.7995,2.8437,2.7917,2.8158,2.9049,3.0806,3.2328,3.3633,3.4414,0.0,0.0,0.0,0.0,0.0,0.0,0.0,0.0,0.0,0.0,3.3597,3.4629,3.5173,3.5957,3.8516,3.9199,3.9805,4.2246,4.3652,4.4512,4.498,4.5723,4.6308,4.6308,4.6308,4.7208,5.023,5.0778,5.3004,5.9771,5.9868,5.9882,6.2192,6.2676,6.2802,6.2802,6.2802,6.2802,6.2802,6.2802,6.2802,6.2802,6.3178,6.3425,6.3425,6.3952,6.445,6.4777,6.5128,6.5459,6.581,6.581,6.5911,6.609,6.5911,6.5911,6.609,6.609,6.609,6.609,6.609,6.609,6.609,6.609,6.609,6.609,6.609,6.609,6.609,6.609,6.609,6.609,0.0,0.0,0.0,0.0,0.0,1.7435,1.694,1.7288,1.7421,0.0,0.0,0.0,0.0,0.0,1.7587,1.7727,1.8155,1.8776,1.9586,2.1467,2.2924,2.3751,2.4625,2.5285,2.5686,2.5305,2.5305,2.5706,2.5305,2.5551,2.6419,2.7122,2.7545,2.7715,2.7839,2.8353,2.9101,0.0,0.0,2.9556,0.0,0.0,3.4453,0.0,0.0,0.0,0.0,0.0,0.0,0.0,0.0,0.0,0.0,0.0,0.0,3.4863,3.5273,3.5801,3.7637,3.834,3.9043,4.1055,4.2246,4.3183,4.4336,4.5039,4.5605,4.6191,4.6308,4.7186,5.0167,4.9489,5.0783,5.7782,5.9122,5.9845,6.1413,6.2306,6.2802,6.2802,6.2802,6.2802,6.2802,6.2802,6.2802,6.2802,6.2802,0.0,6.2802,6.3178,6.3747,6.4496,6.4852,6.538,6.609,6.609,6.609,6.609,6.609,6.609,6.609,6.609,6.609,6.609,6.609,6.609,6.609,6.609,6.609,6.609,6.609,6.609,6.609,6.609,6.609,6.609,0.0,0.0,0.0,0.0,1.7595,1.7515,1.7246,1.7434,1.7501,1.7246,0.0,0.0,0.0,0.0,0.0,2.0458,1.8018,1.7447,1.9818,2.0135,2.096,2.2593,2.4236,2.5285,2.5686,2.5324,2.5305,2.5706,2.5305,2.5551,2.6419,2.6816,2.7266,2.7734,2.8138,2.8803,2.9598,0.0,2.9799,3.0527,0.0,3.4925,3.4007,0.0,0.0,0.0,3.7461,3.7422,0.0,0.0,0.0,0.0,0.0,0.0,0.0,0.0,3.5019,3.5469,0.0,0.0,0.0,3.9414,3.9883,4.0781,4.41,4.4217,4.4141,4.5879,4.623,4.7539,5.1907,4.9254,4.8118,5.333,5.8399,6.1165,5.9637,6.1304,6.272,6.2781,6.2802,6.2802,6.2802,6.2802,6.2802,6.2802,6.2802,6.2802,6.2802,6.2852,6.3375,6.4471,6.4547,6.5053,6.6086,6.609,6.609,6.609,6.609,6.609,6.609,6.609,6.609,6.609,6.609,6.609,6.609,6.609,6.609,6.609,6.609,6.609,6.609,6.609,6.609,6.609,0.0,0.0,0.0,1.7595,1.7595,1.7515,1.7246,1.7434,1.7501,0.0,0.0,0.0,0.0,0.0,0.0,1.9137,1.9342,2.011,2.1755,2.2722,2.356,2.4361,2.4858,2.5285,2.5686,2.5581,2.5581,2.5706,2.5581,2.5828,2.6419,2.6816,2.7402,2.8158,2.8541,2.9062,2.9559,2.8933,0.0,0.0,3.2437,3.4274,0.0,0.0,0.0,0.0,0.0,4.0507,0.0,0.0,3.8241,3.584,0.0,0.0,0.0,0.0,0.0,0.0,3.6208,0.0,0.0,0.0,0.0,0.0,4.1172,4.1836,4.2715,4.4141,4.4414,4.5186,4.7659,4.875,4.9189,4.9019,5.1873,5.5914,6.1099,6.0927,6.0886,6.2597,6.2802,6.2802,6.2802,6.2802,6.2802,0.0,6.2802,6.2802,6.2802,6.3576,6.4174,6.4496,6.5254,6.5609,6.5509,6.5911,6.609,6.609,6.609,6.609,6.609,6.609,6.609,6.609,6.609,6.609,6.609,6.609,6.609,6.609,6.609,6.609,6.609,6.609,6.609,6.609,0.0,0.0,1.7595,1.7595,1.7689,1.7702,1.7555,1.7662,1.7716,0.0,0.0,0.0,0.0,0.0,0.0,0.0,2.0834,2.1407,2.2673,2.3499,2.4292,2.507,2.5266,2.5457,2.5686,2.5706,2.5706,2.5706,2.5893,2.612,2.6419,2.7012,2.7572,2.8073,2.8476,2.8789,2.9018,2.8509,0.0,0.0,3.3219,0.0,0.0,3.8983,4.0234,0.0,0.0,0.0,3.9687,4.1817,4.0059,0.0,0.0,0.0,0.0,0.0,0.0,0.0,0.0,0.0,3.7441,3.8047,0.0,0.0,4.0937,4.1406,4.2168,4.4336,4.4785,4.5376,4.731,4.899,4.9992,4.977,5.0469,5.2693,5.7486,5.9673,6.0886,6.1284,6.2178,6.2802,6.2802,6.2802,6.2802,6.2802,6.2601,6.2551,6.2802,6.3676,6.4274,6.4496,6.5308,6.5609,6.5283,6.5835,6.609,6.609,6.609,6.609,6.609,6.609,6.609,6.609,6.609,6.609,6.609,6.609,6.609,6.609,6.609,6.609,6.609,6.609,6.609,6.609,0.0,0.0,1.7608,1.7635,1.7862,1.8062,1.8102,1.8102,1.8116,0.0,0.0,0.0,0.0,0.0,0.0,0.0,2.2396,2.199,2.322,2.3468,2.4054,2.5113,2.5515,2.5706,2.5706,2.5706,2.5725,2.5776,2.6191,2.6458,2.6555,2.733,2.7721,2.778,2.8138,2.8314,2.8314,2.8412,0.0,3.0781,3.5019,3.6035,0.0,0.0,3.9941,0.0,4.0742,4.0468,3.9687,4.3047,4.2148,0.0,0.0,0.0,0.0,0.0,3.5234,0.0,0.0,0.0,0.0,0.0,3.7987,0.0,4.1758,4.1641,4.1738,4.4922,4.5586,4.6248,4.8395,4.8838,4.966,5.2058,5.1445,5.1112,5.2231,5.7725,6.1031,5.9403,6.111,6.2409,6.2409,6.2659,6.2802,6.2802,6.2425,6.2446,6.3053,6.3601,6.4099,6.4551,6.5103,6.5358,6.5283,6.5835,6.609,6.609,6.609,6.609,6.609,6.609,6.609,6.609,6.609,6.609,6.609,6.609,6.609,6.609,6.609,6.609,6.609,6.609,6.609,6.609,1.7595,1.7595,1.7675,1.7889,1.8196,1.8477,1.8689,1.873,1.8824,1.9093,0.0,0.0,0.0,0.0,0.0,0.0,0.0,2.3772,2.5089,2.5198,2.5351,2.5569,2.5647,2.5706,2.5706,2.5706,2.5893,2.6269,2.636,2.6751,2.7448,2.7624,2.7878,2.8197,2.8262,2.8314,2.8353,2.9037,0.0,3.1905,3.2824,0.0,3.7031,3.9297,4.0723,4.1679,4.2812,4.2988,4.2715,0.0,4.2598,4.1738,0.0,0.0,0.0,0.0,0.0,0.0,0.0,0.0,0.0,0.0,0.0,0.0,3.8828,3.8712,3.9043,4.0781,4.1152,4.17,4.3476,4.4113,4.4415,4.4583,4.7341,5.1159,5.6015,5.5382,5.5482,5.8338,5.9446,5.9982,5.9982,6.168,6.2802,6.2802,6.3149,6.3776,6.4756,6.4906,6.5053,6.5153,6.566,6.5735,6.5283,6.5835,6.609,6.609,6.609,6.609,6.609,6.609,6.609,6.609,6.609,6.609,6.609,6.609,6.609,6.609,6.609,6.609,6.609,6.609,6.609,6.609,1.7595,1.7702,1.7889,1.8196,1.8637,1.9039,1.9319,1.9344,1.9412,1.9574,0.0,0.0,0.0,0.0,0.0,0.0,0.0,0.0,2.6324,2.6342,2.6342,2.6342,2.6342,2.6342,2.6342,2.6342,2.6459,2.6699,2.6927,2.7272,2.7702,2.7917,2.8803,3.0204,2.8881,2.9135,3.0503,2.9609,3.0151,3.1714,3.3665,0.0,3.8789,4.0508,4.1797,4.2812,4.3242,4.3672,4.3926,4.3047,4.2187,0.0,0.0,3.9452,3.8652,0.0,3.7908,3.8711,0.0,0.0,0.0,3.8203,0.0,0.0,0.0,3.9044,3.9336,4.084,4.1152,4.1328,4.1972,4.336,4.3959,4.2621,4.5943,4.9583,5.2117,5.3063,5.3887,5.4988,5.6369,5.7795,5.9177,6.0362,6.1556,6.272,6.3078,6.3726,6.4852,6.4902,6.5028,6.5283,6.5835,6.5835,6.5329,6.5835,6.609,6.609,6.609,6.609,6.609,6.609,6.609,6.609,6.609,6.609,6.609,6.609,6.609,6.609,6.609,6.609,6.609,6.609,6.609,6.609,1.7595,1.7822,1.8116,1.8437,1.9,1.9495,1.976,1.98,1.9932,0.0,0.0,0.0,0.0,0.0,0.0,0.0,0.0,0.0,0.0,2.7487,2.7539,2.7604,2.7214,2.7155,2.7487,2.7175,2.7038,2.7116,2.7513,2.7754,2.7819,2.8138,2.9467,3.148,2.9877,3.0332,3.2187,3.0571,0.0,3.23,0.0,3.7576,3.9121,4.123,4.2285,4.2676,4.3165,4.3789,4.4258,4.3399,0.0,4.0703,4.1758,4.0742,0.0,0.0,0.0,0.0,0.0,0.0,0.0,0.0,0.0,3.84,0.0,0.0,0.0,0.0,4.1465,4.1309,4.0996,4.272,4.36,4.1817,4.4502,4.6551,0.0,4.9508,0.0,5.1135,5.3105,5.5357,5.7515,5.8061,5.9523,6.2572,6.213,6.2558,6.4379,6.4496,6.4802,6.5434,6.5886,6.5886,6.5459,6.5886,6.609,6.609,6.609,6.609,6.609,6.609,6.609,6.609,6.609,6.609,6.609,6.609,6.609,6.609,6.609,6.609,6.609,6.609,6.609,6.609,1.7595,1.7822,1.8116,1.8437,1.9,1.9495,1.976,1.98,2.0415,0.0,0.0,0.0,0.0,0.0,0.0,0.0,0.0,0.0,2.9369,0.0,2.9467,2.9824,2.8014,2.7715,2.9266,2.7793,2.7207,2.7624,2.7663,2.7878,2.8236,2.8275,2.8652,2.9361,3.1387,3.1621,3.0625,0.0,3.4505,0.0,3.6519,3.613,0.0,3.9337,4.0742,4.1094,4.3418,4.4316,4.4258,0.0,4.293,4.2246,0.0,4.0879,4.2695,0.0,0.0,0.0,0.0,0.0,0.0,0.0,3.8242,0.0,0.0,0.0,0.0,0.0,0.0,0.0,0.0,0.0,0.0,0.0,0.0,0.0,4.1245,4.2724,4.5007,4.8296,5.0715,5.2076,5.2042,5.354,5.6815,6.2391,5.9837,5.9902,6.4287,6.4496,6.4953,6.5986,6.6086,6.6086,6.599,6.6086,6.609,6.609,6.609,6.609,6.609,6.609,6.609,6.609,6.609,6.609,6.609,6.609,6.609,6.609,6.609,6.609,6.609,6.609,6.609,6.609,1.7595,1.7969,1.833,1.8478,1.9133,1.9667,1.9786,2.0389,2.237,0.0,0.0,0.0,0.0,0.0,0.0,0.0,0.0,0.0,0.0,0.0,0.0,3.0215,2.9101,2.8842,2.9579,2.8613,2.8073,2.8041,2.8041,2.8138,2.8314,2.8314,2.9453,3.1548,3.2422,3.3496,3.4671,0.0,3.5114,0.0,0.0,0.0,0.0,4.0234,4.2324,4.291,4.4004,4.4551,4.4725,0.0,4.3262,0.0,0.0,0.0,0.0,0.0,0.0,0.0,0.0,0.0,0.0,0.0,0.0,0.0,3.8143,0.0,3.7834,0.0,0.0,0.0,0.0,0.0,0.0,0.0,3.8789,0.0,0.0,0.0,4.2585,4.5006,0.0,0.0,5.012,5.2503,5.5795,6.0431,5.8373,5.9001,6.3769,6.4048,6.4526,6.5609,6.5936,6.609,6.609,6.609,6.609,6.609,6.609,6.609,6.609,6.609,6.609,6.609,6.609,6.609,6.609,6.609,6.609,6.609,6.609,6.609,6.609,6.609,6.609,6.614,1.7849,1.813,1.845,1.8705,1.928,1.9937,2.0659,2.1577,2.4141,2.9562,0.0,0.0,3.3068,3.2949,0.0,0.0,0.0,3.4105,0.0,0.0,3.2324,0.0,3.0737,0.0,0.0,2.976,2.8887,2.8457,2.834,2.8373,2.8457,2.8457,2.9863,3.2387,3.3164,3.4766,3.6838,0.0,3.6462,3.6523,3.7168,3.7676,3.8379,4.1543,4.3496,4.457,4.457,4.4744,4.4998,4.5002,4.3321,0.0,4.4258,0.0,0.0,0.0,0.0,0.0,3.8359,0.0,0.0,0.0,0.0,0.0,0.0,0.0,0.0,0.0,0.0,0.0,0.0,0.0,0.0,0.0,0.0,3.8574,0.0,3.9433,4.0781,0.0,0.0,0.0,0.0,5.0348,5.313,5.8376,5.6638,5.7782,6.3401,6.3847,6.435,6.5279,6.5835,6.609,6.609,6.609,6.609,6.609,6.609,6.609,6.609,6.609,6.609,6.609,6.609,6.609,6.609,6.609,6.609,6.609,6.609,6.609,6.609,6.609,6.619,6.6413,1.8478,1.8236,1.8303,1.92,1.9388,2.027,2.2811,2.3503,2.5216,2.9369,0.0,0.0,0.0,0.0,0.0,0.0,0.0,3.7228,3.594,0.0,3.5332,0.0,0.0,0.0,0.0,0.0,2.935,2.8893,2.8496,2.8496,2.8893,2.8893,2.918,2.9891,3.3649,3.4919,3.4446,3.7695,3.9805,4.0996,4.1015,4.25,4.4491,0.0,4.3164,4.4979,4.4979,0.0,0.0,4.3574,4.3106,0.0,0.0,0.0,0.0,0.0,0.0,0.0,0.0,0.0,0.0,3.7832,0.0,0.0,0.0,0.0,3.8338,0.0,0.0,0.0,0.0,0.0,0.0,0.0,0.0,0.0,0.0,0.0,3.8497,3.9844,0.0,0.0,0.0,4.5433,4.7352,0.0,5.4161,5.5544,6.3289,6.4199,6.4726,6.5283,6.5835,6.609,6.609,6.609,6.609,6.609,6.609,6.609,6.609,6.609,6.609,6.609,6.609,6.609,6.609,6.609,6.609,6.609,6.609,6.609,6.609,6.609,6.6463,6.6962,2.0653,2.0595,2.0216,1.9251,2.0284,2.2275,2.5341,2.6407,0.0,0.0,0.0,0.0,0.0,0.0,3.7246,0.0,0.0,3.793,3.6934,3.6345,0.0,0.0,0.0,3.3105,0.0,0.0,3.0508,2.9766,2.9369,2.9246,2.9369,2.9369,2.976,3.06,3.3922,3.584,3.6777,0.0,0.0,0.0,0.0,4.2617,4.412,0.0,0.0,4.5449,4.5449,4.5625,0.0,4.5371,4.4453,4.3652,4.4512,4.3808,4.2812,4.3516,4.3319,0.0,0.0,0.0,4.1953,3.9238,0.0,0.0,0.0,0.0,0.0,0.0,0.0,0.0,0.0,0.0,0.0,0.0,0.0,0.0,0.0,0.0,3.8283,3.9316,4.1094,4.2624,4.3578,0.0,0.0,0.0,5.5241,0.0,6.283,6.3651,6.4224,6.4752,6.5283,6.5735,6.609,6.609,6.609,6.609,6.609,6.609,6.609,6.609,6.609,6.609,6.609,6.609,6.609,6.609,6.609,6.609,6.609,6.609,6.609,6.609,6.6237,6.6513,2.1987,2.2132,2.1756,2.0597,2.1919,2.433,2.7939,2.9226,0.0,0.0,3.4693,0.0,3.7551,0.0,3.8144,0.0,3.8887,3.869,3.783,3.7518,0.0,3.7576,3.5781,0.0,0.0,0.0,0.0,3.1348,3.0483,3.0053,3.0067,2.9877,3.0112,3.0762,3.3476,3.5723,3.7617,3.963,4.1211,0.0,0.0,4.375,0.0,0.0,4.5371,4.5295,0.0,4.6074,4.6308,4.6308,4.5547,4.4844,4.6111,4.5098,4.3691,4.5117,4.4629,4.3475,4.2891,4.3437,0.0,4.0801,4.1074,0.0,3.828,0.0,0.0,0.0,0.0,0.0,0.0,0.0,0.0,0.0,0.0,0.0,0.0,3.7715,0.0,3.8906,4.0098,4.1133,4.1797,4.3876,4.7157,5.1909,5.398,5.6936,6.1326,6.2916,6.3948,6.4496,6.5028,6.5559,6.609,6.609,6.609,6.609,6.609,6.609,6.609,6.609,6.609,6.609,6.609,6.609,6.609,6.609,6.609,6.609,6.609,6.609,6.609,6.609,6.6363,6.684,2.2512,2.2841,2.3067,2.3429,2.4373,0.0,0.0,0.0,3.3321,0.0,3.6803,3.7733,3.8573,3.9022,3.9414,3.9863,3.9922,0.0,3.8749,3.8689,0.0,0.0,3.8086,3.7793,3.865,0.0,0.0,0.0,3.1816,3.0957,3.0952,3.0488,3.0254,3.0332,3.2446,3.4648,3.6912,3.9453,4.2031,4.4531,4.5392,4.594,4.6211,4.6289,4.5508,4.457,4.584,4.6308,4.6308,4.6308,4.6308,4.6367,4.6755,4.6618,4.6484,4.7327,4.7246,4.656,4.4961,4.4805,4.4569,4.2461,0.0,0.0,0.0,0.0,4.0898,0.0,0.0,0.0,0.0,0.0,0.0,0.0,0.0,0.0,0.0,0.0,0.0,0.0,3.9114,4.0328,4.2638,4.0877,4.2535,4.9679,5.0594,5.3326,5.9008,6.1867,6.3714,6.4446,6.4978,6.5509,6.6061,6.6086,6.609,6.609,6.609,6.609,6.609,6.609,6.609,6.609,6.609,6.609,6.609,6.609,6.609,6.609,6.609,6.609,6.609,6.6115,6.684,6.7844,2.3565,2.5,2.6962,0.0,2.8973,2.9561,0.0,0.0,0.0,0.0,3.7313,3.8926,3.9492,3.9648,3.9766,3.9883,4.0157,0.0,0.0,0.0,0.0,4.0644,3.9414,3.8984,3.9551,3.6994,0.0,3.5335,0.0,3.1866,3.1866,3.1387,3.1016,3.0815,3.2602,3.4964,3.7716,3.9669,4.2363,4.5412,4.594,4.5644,0.0,0.0,4.5508,4.457,4.584,4.6308,4.6308,4.6308,4.6308,4.6328,4.6426,4.6579,4.6794,4.7009,4.6989,4.6814,4.6384,4.6111,4.5605,4.4101,4.3555,4.2968,0.0,0.0,0.0,0.0,0.0,0.0,0.0,0.0,0.0,0.0,0.0,0.0,0.0,0.0,0.0,3.9491,0.0,0.0,3.9464,4.2834,4.5812,4.7463,5.0702,5.4574,5.9059,0.0,6.0212,6.3806,6.4425,6.4953,6.5484,6.5911,6.609,6.609,6.609,6.609,6.609,6.609,6.609,6.609,6.609,6.609,6.609,6.609,6.609,6.609,6.609,6.609,6.614,6.6589,6.6962,6.7339,2.6617,0.0,0.0,3.2369,0.0,0.0,3.3874,0.0,0.0,3.6317,3.7992,0.0,3.957,4.0117,4.0468,4.0468,4.084,0.0,0.0,0.0,0.0,4.1191,4.082,4.0723,4.0996,3.9199,0.0,3.7129,0.0,3.3297,3.2711,3.1879,3.1372,3.125,3.2949,3.4863,3.7031,4.0273,4.2871,4.4902,4.5898,4.5879,0.0,4.6035,4.5859,4.5332,4.6035,4.6308,4.6308,4.6308,4.6308,4.6308,4.6308,4.6465,4.6638,4.6638,4.6638,4.6638,4.6638,4.6462,4.6133,4.541,4.5039,4.4453,4.2969,4.2948,4.3144,0.0,0.0,0.0,0.0,0.0,0.0,0.0,0.0,0.0,0.0,0.0,0.0,0.0,4.0804,0.0,3.8155,4.3147,4.6222,4.5389,4.8618,5.2391,5.6464,5.6929,5.9098,6.3559,6.3726,6.4254,6.5283,6.538,6.5634,6.609,6.609,6.609,6.609,6.609,6.609,6.609,6.609,6.609,6.609,6.609,6.609,6.609,6.609,6.609,6.6187,6.6786,6.7163,6.7417,3.0261,0.0,0.0,0.0,0.0,0.0,0.0,3.7029,0.0,3.8068,0.0,3.9453,3.9453,4.0546,4.1269,4.1269,0.0,4.1562,4.0801,4.1797,4.2089,4.1387,4.209,4.248,4.248,4.1621,0.0,0.0,0.0,3.4746,3.3304,3.2192,3.1645,3.168,3.3356,3.486,3.6482,4.1191,4.3496,4.418,4.5683,4.6308,4.6308,4.6308,4.6308,4.6308,4.6308,4.6308,4.6308,4.6308,4.6308,4.6308,4.6308,4.6308,4.6308,4.6308,4.6308,4.6308,4.6308,4.6308,4.6308,4.6308,4.6308,4.5898,4.4394,4.4355,4.4531,4.4121,4.3436,4.3554,0.0,0.0,0.0,0.0,0.0,0.0,0.0,0.0,0.0,0.0,0.0,0.0,0.0,4.2374,4.467,4.3385,4.529,4.8464,5.3076,5.5351,5.8697,6.3438,6.3203,6.363,6.4957,6.4802,6.5103,6.5886,6.6015,6.609,6.609,6.609,6.609,6.609,6.609,6.609,6.609,6.609,6.609,6.609,6.609,6.609,6.614,6.6686,6.7238,6.7719,3.1333,0.0,0.0,0.0,0.0,3.7461,3.8594,3.875,3.8945,3.9473,4.0312,4.0839,4.0839,4.1367,4.1699,4.1699,4.205,0.0,0.0,0.0,0.0,4.2187,4.2695,4.2989,4.2989,4.1817,4.0507,0.0,0.0,3.4866,3.2891,3.2676,3.2398,3.214,3.3492,3.6382,4.0331,4.2617,4.4473,4.5879,4.6191,4.6308,4.6308,4.6308,4.6308,4.6308,4.6308,4.6308,4.6308,4.6308,4.6308,4.6308,4.6308,4.6308,4.6308,4.6308,4.6308,4.6308,4.6308,4.6308,4.6308,4.6308,4.6308,4.623,4.5918,4.5918,4.5937,4.5859,4.5723,4.5449,4.4844,0.0,0.0,0.0,0.0,0.0,0.0,0.0,0.0,0.0,0.0,0.0,0.0,4.1107,4.2092,4.1113,4.2112,4.583,5.2927,5.2383,5.5269,0.0,6.3751,0.0,0.0,0.0,6.5459,6.4777,6.5685,6.609,6.609,6.609,6.609,6.609,6.609,6.609,6.609,6.609,6.609,6.609,6.609,6.609,6.609,6.6237,6.6639,6.7263,0.0,0.0,0.0,0.0,0.0,0.0,0.0,4.0586,0.0,4.0605,4.0937,4.1191,4.1191,4.1738,4.2109,4.2109,4.2519,4.2754,4.2754,4.2969,4.3065,4.3065,4.3281,0.0,4.3398,0.0,4.1523,3.9551,0.0,3.6133,3.3785,3.332,3.3008,3.291,3.488,3.7283,4.0019,4.2598,0.0,4.5039,4.5937,4.6308,4.6308,4.6308,4.6308,4.6308,4.6308,4.6308,4.6308,4.6308,4.6308,4.6308,4.6308,4.6308,4.6308,4.6308,4.6308,4.6308,4.6308,4.6308,4.6308,4.6308,4.6308,4.6308,4.6308,4.6308,4.6308,4.6308,4.6484,4.6209,4.4961,4.3633,0.0,0.0,0.0,0.0,0.0,0.0,0.0,0.0,0.0,0.0,0.0,0.0,4.1758,4.0918,4.1445,4.5163,5.2906,5.1886,5.4677,0.0,0.0,0.0,6.3676,0.0,6.5283,6.5333,6.586,6.609,6.609,6.609,6.609,6.609,6.609,6.609,6.609,6.609,6.609,6.609,6.609,6.6287,6.6538,6.6237,6.6488,6.7113,0.0,3.7166,0.0,0.0,3.9296,0.0,4.1152,4.2031,4.2305,4.1562,4.1465,4.1465,4.1465,4.2109,4.2538,4.2538,4.2969,4.3223,4.3223,4.3516,4.3711,4.3711,4.3711,4.375,4.3848,4.3848,4.2734,0.0,0.0,0.0,3.5098,3.4124,3.3929,3.4456,3.6621,3.8377,0.0,0.0,4.3926,4.4375,4.5742,4.6308,4.6308,4.6308,4.6308,4.6308,4.6308,4.6308,4.6308,4.6308,4.6308,4.6308,4.6308,4.6308,4.6308,4.6308,4.6308,4.6308,4.6308,4.6308,4.6308,4.6308,4.6308,4.6308,4.6308,4.6367,4.6426,4.6426,4.6833,4.6736,4.5271,4.4334,0.0,0.0,0.0,0.0,0.0,0.0,0.0,0.0,0.0,0.0,0.0,0.0,4.1601,4.1602,4.1738,4.478,5.1649,5.1237,0.0,0.0,0.0,6.2461,6.3144,0.0,6.5153,6.576,6.5986,6.609,6.609,6.609,6.609,6.609,6.609,6.609,6.609,6.609,6.609,6.609,6.609,6.6388,6.6761,6.6287,6.6388,6.6912,0.0,0.0,0.0,0.0,0.0,0.0,4.166,4.2481,4.2851,4.2343,4.2285,4.2285,4.2285,4.2734,4.3028,4.3028,4.3398,4.3652,4.3652,4.3691,4.3711,4.3711,4.3711,4.3906,4.4316,4.4336,4.3633,0.0,0.0,3.8671,3.6482,3.5192,3.5625,3.7521,3.8164,4.0253,0.0,4.3574,4.4609,4.6074,4.623,4.6308,4.6308,4.6308,4.6308,4.6308,4.6308,4.6308,4.6308,4.6308,4.6308,4.6308,4.6308,4.6308,4.6308,4.6308,4.6308,4.6308,4.6308,4.6308,4.6308,4.6308,4.6308,4.6308,4.6308,4.6579,4.6853,4.6853,4.7497,4.7461,4.5389,4.6797,4.7132,0.0,0.0,0.0,0.0,0.0,0.0,0.0,0.0,0.0,0.0,4.0742,4.0058,4.2715,4.2246,4.3558,4.7556,4.8422,0.0,5.5227,5.837,5.9556,5.8715,6.3521,6.5509,6.4651,6.5634,6.609,6.609,6.609,6.609,6.609,6.609,6.609,6.609,6.609,6.609,6.609,6.609,6.6115,6.6187,6.6137,6.6137,6.6338,0.0,0.0,0.0,0.0,0.0,0.0,0.0,4.3242,4.3379,4.3202,4.3163,4.3163,4.3163,4.334,4.3457,4.3457,4.3613,4.3828,4.4101,4.4121,4.4238,4.4471,4.4471,4.4569,4.4766,4.4744,4.4121,0.0,0.0,0.0,3.7402,3.6857,3.7638,3.9532,4.0996,4.2422,4.3769,4.4824,4.5664,4.6308,4.6308,4.6308,4.6308,4.6308,4.6308,4.6308,4.6308,4.6308,4.6308,4.6308,4.6308,4.6308,4.6308,4.6308,4.6308,4.6308,4.6308,4.6308,4.6308,4.6308,4.6308,4.6308,4.6308,4.6308,4.6308,4.6599,4.6833,4.6579,4.7226,4.7757,4.7405,4.7346,4.7171,0.0,0.0,0.0,0.0,0.0,0.0,0.0,0.0,0.0,0.0,0.0,4.1582,4.2285,4.0528,4.1716,4.6917,4.8885,0.0,5.3318,0.0,6.1433,5.9069,6.3737,6.5886,6.5459,6.5911,6.609,6.609,6.609,6.609,6.609,6.609,6.609,6.609,6.609,6.609,6.609,6.609,6.6338,6.6589,6.6237,6.6338,6.6639,4.1504,0.0,4.1426,0.0,4.2558,4.2656,4.3574,4.3711,4.375,4.3887,4.3906,4.3906,4.3906,4.3906,4.3965,4.4061,4.4081,4.4217,4.4549,4.459,4.4686,4.4998,4.4998,0.0,4.5193,4.5215,4.4824,4.4044,4.2305,0.0,3.9591,3.9103,3.9786,4.1504,4.3007,4.3984,4.4551,4.5781,4.6308,4.6308,4.6308,4.6367,4.6484,4.6484,4.6484,4.6484,4.6484,4.6406,4.6308,4.6308,4.6308,4.6308,4.6308,4.6308,4.6308,4.6308,4.6308,4.6308,4.6308,4.6308,4.6308,4.6308,4.6308,4.6308,4.6308,4.6599,4.6853,4.6719,4.7168,4.7815,4.8558,4.7698,4.7129,4.7991,0.0,0.0,0.0,0.0,0.0,0.0,0.0,4.6819,4.6348,4.3887,0.0,4.291,4.0762,4.147,4.6123,0.0,0.0,0.0,0.0,0.0,5.9972,6.4033,6.609,6.609,6.609,6.609,6.609,6.609,6.609,6.609,6.609,6.609,6.609,6.609,6.609,6.609,6.609,6.6363,6.6711,6.6463,6.6513,6.6736,4.2226,4.2382,4.2656,4.3535,4.3691,4.3691,4.3711,4.3711,4.3867,4.4336,4.4394,4.4394,4.4394,4.4394,4.4551,4.4959,4.4979,4.4998,4.4998,4.4998,4.4998,0.0,0.0,4.5234,4.5686,4.5686,4.5881,4.6269,0.0,0.0,4.3594,4.1934,4.2031,4.3672,4.3691,4.4668,4.6269,4.6289,4.6308,4.6308,4.6308,4.654,4.6892,4.6892,4.6892,4.6892,4.6892,4.6638,4.6308,4.6308,4.6308,4.6308,4.6308,4.6308,4.6308,4.6308,4.6308,4.6308,4.6308,4.6308,4.6308,4.6308,4.6308,4.6308,4.6308,4.6599,4.7028,4.7503,4.76,4.7715,4.8144,4.8203,4.7773,4.6543,0.0,0.0,0.0,0.0,0.0,0.0,4.4042,4.3475,4.6055,4.2792,0.0,4.5392,4.4025,4.3459,4.4378,0.0,0.0,5.1854,5.7533,0.0,6.0496,6.4228,6.609,6.609,6.609,6.609,6.609,6.609,6.609,6.609,6.609,6.609,6.609,6.609,6.609,6.609,6.609,6.609,6.6187,6.6786,6.6635,6.6266,4.3242,4.3301,4.3358,4.3652,4.3965,4.418,4.418,4.4414,4.4627,4.4783,4.4803,4.4941,4.5256,4.5,4.4862,0.0,4.4998,4.5135,0.0,4.5469,4.5586,4.5857,4.5898,4.5957,4.6094,4.6113,4.6172,4.6308,0.0,0.0,0.0,4.3144,4.3828,4.5469,4.5469,4.5781,4.6308,4.6308,4.6308,4.6328,4.6599,4.6794,4.6931,4.7266,4.7383,4.7383,4.7383,4.7285,4.719,4.719,4.719,4.719,4.719,4.6973,4.6658,4.6387,4.6482,4.6638,4.6387,4.6308,4.6308,4.6308,4.6308,4.6308,4.6308,4.6406,4.6699,4.7444,4.76,4.7715,4.8125,4.8457,4.8538,4.8128,4.8542,0.0,0.0,0.0,0.0,0.0,0.0,4.7151,0.0,4.5646,0.0,0.0,4.295,0.0,0.0,0.0,0.0,0.0,5.5617,0.0,6.0475,6.2579,6.4478,6.609,6.609,6.609,6.609,6.609,6.609,6.609,6.609,6.609,6.609,6.609,6.609,6.609,6.609,6.609,6.6115,6.6312,6.6262,6.614,4.373,4.3944,4.4139,4.3984,4.4336,4.4629,4.4629,4.4842,4.5057,4.5254,4.5273,4.543,4.5881,4.5664,0.0,4.5486,4.5486,4.5625,4.592,4.594,4.6035,4.6289,4.6308,4.6308,4.6308,4.6308,0.0,4.6308,4.5215,4.4687,4.4687,4.4687,4.5254,4.6308,4.6308,4.6308,4.6308,4.6308,4.6387,4.6562,4.6794,4.7107,4.7419,4.7715,4.7835,4.7835,4.7835,4.7737,4.76,4.76,4.748,4.7344,4.7344,4.7148,4.6853,4.6599,4.6697,4.6814,4.6426,4.6308,4.6348,4.6504,4.6543,4.656,4.6738,4.6777,4.6933,4.7483,4.76,4.7715,4.8125,4.8578,4.8952,4.9105,4.9261,4.9402,4.9402,0.0,0.0,0.0,0.0,0.0,0.0,4.6721,4.5979,0.0,0.0,0.0,0.0,0.0,0.0,5.1369,5.5422,0.0,6.1233,6.208,6.371,6.609,6.609,6.609,6.609,6.609,6.609,6.609,6.609,6.609,6.609,6.609,6.609,6.609,6.609,6.609,6.6137,6.6363,6.6287,6.6115,4.3887,4.4432,4.4881,0.0,4.4764,0.0,4.5057,4.5076,4.5254,4.5686,4.5744,4.5881,4.6269,4.6308,4.6308,4.6308,0.0,0.0,0.0,4.6308,4.6308,4.6308,4.6308,4.6308,4.6308,4.6308,4.6308,4.6308,4.6308,4.6308,4.6308,4.6308,4.6308,4.6308,4.6308,4.6308,4.6308,4.6328,4.654,4.6911,4.697,4.7477,4.8203,4.8242,4.8223,4.8203,4.8203,4.7949,4.764,4.762,4.7344,4.7028,4.7009,4.7009,4.7028,4.6892,4.6892,4.6814,4.6426,4.6308,4.6387,4.6755,4.6892,4.7009,4.7441,4.7581,4.76,4.76,4.762,4.7776,4.8125,4.8578,4.9027,4.9414,4.9824,5.0121,5.016,0.0,0.0,0.0,0.0,0.0,0.0,4.6484,4.709,0.0,0.0,0.0,0.0,0.0,5.0207,5.3694,5.6266,5.9068,6.2154,6.2223,6.3532,6.609,6.609,6.609,6.609,6.609,6.609,6.609,6.609,6.609,6.609,6.609,6.609,6.609,6.609,6.609,6.6187,6.6736,6.6589,6.6187,0.0,0.0,4.4979,4.4881,4.5234,4.5527,4.5527,4.5801,4.6035,4.6133,4.6152,4.6191,4.6289,4.6308,4.6308,4.6308,4.6308,4.6308,4.6308,4.6308,4.6308,4.6308,4.6308,4.6308,4.6308,4.6308,4.6308,4.6308,4.6308,4.6308,4.6308,4.6308,4.6308,4.6308,4.6308,4.6308,4.6328,4.6618,4.6814,4.697,4.7614,4.8027,4.8242,4.8597,4.8519,4.8203,4.8203,4.8144,4.8008,4.7718,4.7972,4.8363,4.8008,4.8144,4.8167,4.6836,4.6658,4.6814,4.6426,4.6308,4.6328,4.6426,4.6677,4.6931,4.7028,4.7344,4.76,4.76,4.7832,4.8086,4.8183,4.8578,4.8933,4.9027,4.9148,4.932,4.9629,4.9418,4.9125,0.0,4.8613,4.8382,4.8284,4.8284,4.7894,0.0,0.0,4.7399,4.7516,4.7726,4.9691,5.3667,5.2974,5.4651,5.909,5.9499,6.1845,6.609,6.609,6.609,6.609,6.609,6.609,6.609,6.609,6.609,6.609,6.609,6.609,6.609,6.609,6.609,6.6137,6.6262,6.6216,6.6137,4.5037,4.5311,4.5547,4.5351,4.5683,4.5957,4.5957,4.6152,4.6308,4.6308,4.6308,4.6308,4.6308,4.6308,4.6308,4.6308,4.6308,4.6308,4.6308,4.6308,4.6308,4.6308,4.6308,4.6308,4.6308,4.6308,4.6308,4.6308,4.6308,4.6308,4.6308,4.6308,4.6308,4.6308,4.6308,4.6406,4.6579,4.6814,4.7126,4.7536,4.8027,4.832,4.8558,4.8792,4.8734,4.8519,4.8519,4.8519,4.8499,4.8265,4.8363,4.8538,4.8281,4.8265,4.8109,4.7168,4.7187,4.736,4.6736,4.656,4.656,4.656,4.6892,4.7285,4.7438,4.7695,4.7952,4.8148,4.8363,4.8519,4.8519,4.889,4.916,4.916,4.9359,4.9574,4.9785,4.9633,4.9496,4.9508,4.9316,4.9105,4.8933,4.8913,4.8522,4.7561,4.7871,0.0,4.8102,4.8711,5.0106,5.2362,5.136,5.2708,5.6695,5.9227,6.238,6.609,6.609,6.609,6.609,6.609,6.609,6.609,6.609,6.609,6.609,6.609,6.609,6.609,6.609,6.609,6.609,6.609,6.6287,6.6463,4.5271,4.5779,4.6191,4.5861,4.6055,4.6308,4.6308,4.6308,4.6308,4.6308,4.6308,4.6308,4.6308,4.6308,4.6308,4.6308,4.6308,4.6308,4.6308,4.6308,4.6308,4.6308,4.6308,4.6308,4.6308,4.6308,4.6308,4.6308,4.6308,4.6308,4.6308,4.6308,4.6308,4.6308,4.6367,4.6579,4.6911,4.7048,4.7516,4.8223,4.8281,4.8558,4.8913,4.8913,4.8855,4.8773,4.8773,4.8773,4.8796,4.8714,4.8519,4.8301,4.8223,4.8008,4.7796,4.7796,4.805,4.8125,4.7243,4.7009,4.7009,4.7009,4.7344,4.7796,4.8125,4.8262,4.8418,4.8835,4.8913,4.8913,4.8913,4.918,4.9371,4.9234,4.9648,4.9984,4.9906,4.9965,4.9863,4.9547,4.9449,4.9277,4.891,4.8913,4.8933,4.8991,4.9258,4.9469,4.9586,5.0312,5.0742,5.0801,5.0859,5.2431,5.5635,5.984,6.3334,6.609,6.609,6.609,6.609,6.609,6.609,6.609,6.609,6.609,6.609,6.609,6.609,6.609,6.609,6.609,6.609,6.609,6.6488,6.6937,4.6113,4.6211,4.6289,4.6211,4.625,4.6308,4.6308,4.6308,4.6308,4.6308,4.6308,4.6308,4.6308,4.6308,4.6308,4.6308,4.6308,4.6308,4.6308,4.6308,4.6308,4.6308,4.6308,4.6308,4.6308,4.6308,4.6308,4.6308,4.6308,4.6308,4.6308,4.6308,4.6308,4.6308,4.6658,4.6853,4.695,4.7673,4.8086,4.8242,4.8636,4.8812,4.8913,4.8913,4.8656,4.8301,4.8301,4.8301,4.8262,4.7913,4.8226,4.8714,4.832,4.8441,4.8698,4.8698,4.8757,4.8597,4.7737,4.748,4.748,4.748,4.7793,4.8125,4.8183,4.8519,4.8815,4.8894,4.8913,4.8913,4.8913,4.8952,4.8753,4.8008,4.8578,4.8949,4.8574,4.8851,4.9203,4.9469,4.9199,4.8968,4.8913,4.8913,4.9046,4.9371,4.9164,4.9301,5.0063,5.0238,5.0449,5.0801,5.1128,5.3529,5.8194,5.8997,6.1644,6.609,6.609,6.609,6.609,6.609,6.609,6.609,6.609,6.609,6.609,6.609,6.609,6.609,6.609,6.609,6.609,6.609,6.6488,6.6987,4.6308,4.6308,4.6308,4.6308,4.6308,4.6308,4.6308,4.6308,4.6308,4.6308,4.6308,4.6308,4.6308,4.6308,4.6308,4.6308,4.6308,4.6308,4.6308,4.6308,4.6308,4.6308,4.6308,4.6308,4.6308,4.6308,4.6308,4.6308,4.6308,4.6308,4.6308,4.6521,4.6618,4.6618,4.6814,4.7165,4.7595,4.7793,4.8167,4.8597,4.8815,4.8913,4.8913,4.8913,4.8776,4.8578,4.8578,4.8578,4.8558,4.8363,4.8581,4.8874,4.8636,4.8714,4.8913,4.8913,4.8714,4.8441,4.8027,4.7776,4.76,4.76,4.7757,4.793,4.8164,4.8359,4.8597,4.8855,4.8913,4.8913,4.8913,4.8913,4.8776,4.8385,4.864,4.8812,4.8617,4.8753,4.8968,4.9141,4.9007,4.8913,4.8913,4.8913,4.8991,4.916,4.9199,4.9394,4.9805,5.0273,5.0605,5.0801,5.1187,5.3132,5.6781,5.8148,6.0587,6.417,6.5483,6.609,6.609,6.609,6.609,6.609,6.609,6.609,6.609,6.609,6.609,6.609,6.609,6.609,6.609,6.609,6.6488,6.6987,4.6308,4.6308,4.6308,4.6308,4.6308,4.6308,4.6308,4.6308,4.6308,4.6308,4.6308,4.6308,4.6308,4.6308,4.6308,4.6308,4.6308,4.6308,4.6308,4.6308,4.6308,4.6308,4.6308,4.6308,4.6308,4.6308,4.6308,4.6308,4.6308,4.6348,4.6445,4.6658,4.6814,4.6889,4.7009,4.7419,4.8047,4.7952,4.8307,4.8913,4.8913,4.8913,4.8913,4.8913,4.8913,4.8913,4.8913,4.8913,4.8913,4.8913,4.8913,4.8913,4.8913,4.8913,4.8913,4.8913,4.8636,4.8359,4.8359,4.8148,4.7894,4.7894,4.7894,4.7991,4.8281,4.8359,4.8457,4.8835,4.8913,4.8913,4.8913,4.8913,4.8835,4.864,4.8776,4.8835,4.864,4.8776,4.8913,4.8913,4.8913,4.8913,4.8913,4.8913,4.8952,4.9027,4.9336,4.9547,4.9644,5.0391,5.0859,5.0957,5.1245,5.2575,5.5091,5.7571,6.0044,6.2514,6.496,6.609,6.609,6.609,6.609,6.609,6.609,6.609,6.609,6.609,6.609,6.609,6.609,6.609,6.609,6.609,6.6564,6.7163,4.6308,4.6308,4.6308,4.6308,4.6308,4.6308,4.6308,4.6308,4.6308,4.6308,4.6308,4.6308,4.6308,4.6308,4.6308,4.6308,4.6308,4.6308,4.6308,4.6308,4.6308,4.6308,4.6308,4.6308,4.6308,4.6308,4.6308,4.6308,4.6308,4.6482,4.6853,4.6501,4.654,4.6931,4.7344,4.7581,4.7698,4.846,4.8855,4.8913,4.8913,4.8913,4.8913,4.8913,4.8913,4.8913,4.8913,4.8913,4.8913,4.8913,4.8913,4.8913,4.8913,4.8913,4.8913,4.8913,4.8874,4.8855,4.8855,4.8835,4.8815,4.8815,4.8815,4.8815,4.8855,4.8855,4.8855,4.8894,4.8913,4.8913,4.8913,4.8913,4.864,4.7815,4.8363,4.862,4.7815,4.8382,4.8913,4.8913,4.8913,4.8913,4.8913,4.8913,4.9046,4.943,4.9488,4.9683,5.0141,5.0566,5.0976,5.1343,5.1382,5.2575,5.5091,5.7571,6.0044,6.2514,6.496,6.609,6.609,6.609,6.609,6.609,6.609,6.609,6.609,6.609,6.609,6.609,6.609,6.609,6.609,6.609,6.6815,6.7668,4.6308,4.6308,4.6308,4.6308,4.6308,4.6308,4.6308,4.6308,4.6308,4.6308,4.6308,4.6308,4.6308,4.6308,4.6308,4.6308,4.6308,4.6308,4.6308,4.6308,4.6308,4.6308,4.6308,4.6308,4.6308,4.6308,4.6426,4.6677,4.6426,4.6523,4.6911,4.6736,4.6892,4.7344,4.7522,4.7894,4.8402,4.846,4.8636,4.8913,4.8913,4.8913,4.8913,4.8913,4.8913,4.8913,4.8913,4.8913,4.8913,4.8913,4.8913,4.8913,4.8913,4.8913,4.8913,4.8913,4.8913,4.8913,4.8913,4.8913,4.8913,4.8913,4.8913,4.8913,4.8913,4.8913,4.8913,4.8913,4.8913,4.8913,4.8913,4.8913,4.8796,4.8441,4.8698,4.8796,4.8441,4.8698,4.8913,4.8913,4.8913,4.8913,4.8913,4.8913,4.9066,4.9469,4.9508,4.9801,5.0527,5.0933,5.1245,5.1401,5.1401,5.1843,5.2792,5.6781,5.9271,6.0248,6.4214,6.609,6.609,6.609,6.609,6.609,6.609,6.609,6.609,6.609,6.609,6.609,6.609,6.609,6.609,6.609,6.6366,6.6815,4.6308,4.6308,4.6308,4.6308,4.6308,4.6308,4.6308,4.6308,4.6308,4.6308,4.6308,4.6308,4.6308,4.6308,4.6308,4.6308,4.6308,4.6308,4.6308,4.6308,4.6308,4.6308,4.6308,4.6308,4.6308,4.6308,4.6445,4.6716,4.6445,4.6523,4.6911,4.6911,4.7168,4.76,4.7737,4.8128,4.8675,4.8499,4.8617,4.8913,4.8913,4.8913,4.8913,4.8913,4.8913,4.8913,4.8913,4.8913,4.8913,4.8913,4.8913,4.8913,4.8913,4.8913,4.8913,4.8913,4.8913,4.8913,4.8913,4.8913,4.8913,4.8913,4.8913,4.8913,4.8913,4.8913,4.8913,4.8913,4.8913,4.8913,4.8913,4.8913,4.8913,4.8913,4.8913,4.8913,4.8913,4.8913,4.8913,4.8913,4.8913,4.8913,4.8913,4.8913,4.9066,4.9469,4.9625,5.0074,5.0933,5.1245,5.1401,5.1401,5.1401,5.1401,5.1401,5.6315,5.8791,5.886,6.3751,6.609,6.609,6.609,6.609,6.609,6.609,6.609,6.609,6.609,6.609,6.609,6.609,6.609,6.609,6.609,6.6237,6.6463,4.6308,4.6308,4.6308,4.6308,4.6308,4.6308,4.6308,4.6308,4.6308,4.6308,4.6308,4.6308,4.6308,4.6308,4.6308,4.6308,4.6308,4.6308,4.6308,4.6308,4.6308,4.6308,4.6308,4.6308,4.6308,4.6308,4.6308,4.6308,4.6308,4.6523,4.6911,4.6911,4.7146,4.762,4.8027,4.8203,4.8242,4.8695,4.8913,4.8913,4.8913,4.8913,4.8913,4.8913,4.8913,4.8913,4.8913,4.8913,4.8913,4.8913,4.8913,4.8913,4.8913,4.8913,4.8913,4.8913,4.8913,4.8913,4.8913,4.8913,4.8913,4.8913,4.8913,4.8913,4.8913,4.8913,4.8913,4.8913,4.8913,4.8913,4.8913,4.8913,4.8913,4.8913,4.8913,4.8913,4.8913,4.8913,4.8913,4.8913,4.8913,4.8913,4.8913,4.8913,4.9066,4.9469,4.9941,5.0547,5.1362,5.1401,5.1401,5.1401,5.1401,5.1401,5.1401,5.6315,5.8791,5.886,6.3751,6.609,6.609,6.609,6.609,6.609,6.609,6.609,6.609,6.609,6.609,6.609,6.609,6.609,6.609,6.609,6.6488,6.6912,4.6308,4.6308,4.6308,4.6308,4.6308,4.6308,4.6308,4.6308,4.6308,4.6308,4.6308,4.6308,4.6308,4.6308,4.6308,4.6308,4.6308,4.6308,4.6308,4.6308,4.6308,4.6308,4.6308,4.6308,4.6308,4.6308,4.6445,4.6716,4.6445,4.668,4.7383,4.7048,4.7302,4.8027,4.8144,4.8379,4.8695,4.8855,4.8913,4.8913,4.8913,4.8913,4.8913,4.8913,4.8913,4.8913,4.8913,4.8913,4.8913,4.8913,4.8913,4.8913,4.8913,4.8913,4.8913,4.8913,4.8913,4.8913,4.8913,4.8913,4.8913,4.8913,4.8913,4.8913,4.8913,4.8913,4.8913,4.8913,4.8913,4.8913,4.8913,4.8913,4.8913,4.8913,4.8913,4.8913,4.8913,4.8913,4.8913,4.8913,4.8913,4.8913,4.8913,4.9164,4.9512,4.9941,5.0644,5.1148,5.1401,5.1401,5.1401,5.1401,5.1401,5.1401,5.1401,5.6315,5.8791,5.886,6.3751,6.609,6.609,6.609,6.609,6.609,6.609,6.609,6.609,6.609,6.609,6.609,6.609,6.609,6.609,6.609,6.619,6.6413,4.6308,4.6308,4.6308,4.6308,4.6308,4.6308,4.6308,4.6308,4.6308,4.6308,4.6308,4.6308,4.6308,4.6308,4.6308,4.6308,4.6308,4.6308,4.6308,4.6308,4.6308,4.6308,4.6308,4.6308,4.6308,4.6308,4.6426,4.6658,4.6426,4.6562,4.7092,4.7148,4.7461,4.7969,4.8301,4.8636,4.8913,4.8913,4.8913,4.8913,4.8913,4.8913,4.8913,4.8913,4.8913,4.8913,4.8913,4.8913,4.8913,4.8913,4.8913,4.8913,4.8913,4.8913,4.8913,4.8913,4.8913,4.8913,4.8913,4.8913,4.8913,4.8913,4.8913,4.8913,4.8913,4.8913,4.8913,4.8913,4.8913,4.8913,4.8913,4.8913,4.8913,4.8913,4.8913,4.8913,4.8913,4.8913,4.8913,4.8913,4.8913,4.8913,4.8913,4.9258,4.9762,5.0391,5.1055,5.1401,5.1401,5.1401,5.1401,5.1401,5.1401,5.1401,5.1401,5.6315,5.8791,5.886,6.3751,6.609,6.609,6.609,6.609,6.609,6.609,6.609,6.609,6.609,6.609,6.609,6.609,6.609,6.609,6.609,6.609,6.614,4.6308,4.6308,4.6308,4.6308,4.6308,4.6308,4.6308,4.6308,4.6308,4.6308,4.6308,4.6308,4.6308,4.6308,4.6308,4.6308,4.6308,4.6308,4.6308,4.6308,4.6308,4.6308,4.6308,4.6308,4.6308,4.6308,4.6308,4.6308,4.6308,4.6348,4.6426,4.7229,4.764,4.7757,4.8561,4.8913,4.8913,4.8913,4.8913,4.8913,4.8913,4.8913,4.8913,4.8913,4.8913,4.8913,4.8913,4.8913,4.8913,4.8913,4.8913,4.8913,4.8913,4.8913,4.8913,4.8913,4.8913,4.8913,4.8913,4.8913,4.8913,4.8913,4.8913,4.8913,4.8913,4.8913,4.8913,4.8913,4.8913,4.8913,4.8913,4.8913,4.8913,4.8913,4.8913,4.8913,4.8913,4.8913,4.8913,4.8913,4.8913,4.8913,4.8913,4.9297,4.9918,5.0801,5.1187,5.1401,5.1401,5.1401,5.1401,5.1401,5.1401,5.1401,5.1401,5.6102,5.8585,5.886,6.3751,6.609,6.609,6.609,6.609,6.609,6.609,6.609,6.609,6.609,6.609,6.609,6.609,6.609,6.609,6.609,6.609,6.609,4.6308,4.6308,4.6308,4.6308,4.6308,4.6308,4.6308,4.6308,4.6308,4.6308,4.6308,4.6308,4.6308,4.6308,4.6308,4.6308,4.6308,4.6308,4.6308,4.6308,4.6308,4.6308,4.6308,4.6308,4.6308,4.6308,4.6308,4.6308,4.6308,4.6641,4.7327,4.7522,4.7952,4.864,4.8815,4.8913,4.8913,4.8913,4.8913,4.8913,4.8913,4.8913,4.8913,4.8913,4.8913,4.8913,4.8913,4.8913,4.8913,4.8913,4.8913,4.8913,4.8913,4.8913,4.8913,4.8913,4.8913,4.8913,4.8913,4.8913,4.8913,4.8913,4.8913,4.8913,4.8913,4.8913,4.8913,4.8913,4.8913,4.8913,4.8913,4.8913,4.8913,4.8913,4.8913,4.8913,4.8913,4.8913,4.8913,4.8913,4.8913,4.8913,4.8913,4.9594,5.0391,5.1206,5.1362,5.1401,5.1401,5.1401,5.1401,5.1401,5.1401,5.1401,5.1401,5.4402,5.6898,5.886,6.3751,6.609,6.609,6.609,6.609,6.609,6.609,6.609,6.609,6.609,6.609,6.609,6.609,6.609,6.609,6.609,6.609,6.609,4.6308,4.6308,4.6308,4.6308,4.6308,4.6308,4.6308,4.6308,4.6308,4.6308,4.6308,4.6308,4.6308,4.6308,4.6308,4.6308,4.6308,4.6308,4.6308,4.6308,4.6308,4.6308,4.6308,4.6308,4.6308,4.6308,4.6308,4.6308,4.6308,4.6641,4.7266,4.7503,4.7952,4.8578,4.8815,4.8913,4.8913,4.8913,4.8913,4.8913,4.8913,4.8913,4.8913,4.8913,4.8913,4.8913,4.8913,4.8913,4.8913,4.8913,4.8913,4.8913,4.8913,4.8913,4.8913,4.8913,4.8913,4.8913,4.8913,4.8913,4.8913,4.8913,4.8913,4.8913,4.8913,4.8913,4.8913,4.8913,4.8913,4.8913,4.8913,4.8913,4.8913,4.8913,4.8913,4.8913,4.8913,4.8913,4.8913,4.8913,4.8913,4.907,4.9476,5.0102,5.0742,5.1362,5.1401,5.1401,5.1401,5.1401,5.1401,5.1401,5.1401,5.1401,5.1401,5.3876,5.6362,5.886,6.2602,6.5003,6.609,6.609,6.609,6.609,6.609,6.609,6.609,6.609,6.609,6.609,6.609,6.609,6.609,6.609,6.609,6.609,4.6308,4.6308,4.6308,4.6308,4.6308,4.6308,4.6308,4.6308,4.6308,4.6308,4.6308,4.6308,4.6308,4.6308,4.6308,4.6308,4.6308,4.6308,4.6308,4.6308,4.6308,4.6308,4.6308,4.6308,4.6308,4.6308,4.6308,4.6308,4.6308,4.6562,4.7028,4.7402,4.7874,4.834,4.8714,4.8913,4.8913,4.8913,4.8913,4.8913,4.8913,4.8913,4.8913,4.8913,4.8913,4.8913,4.8913,4.8913,4.8913,4.8913,4.8913,4.8913,4.8913,4.8913,4.8913,4.8913,4.8913,4.8913,4.8913,4.8913,4.8913,4.8913,4.8913,4.8913,4.8913,4.8913,4.8913,4.8913,4.8913,4.8913,4.8913,4.8913,4.8913,4.8913,4.8913,4.8913,4.8913,4.8913,4.8913,4.8913,4.8972,4.932,5.0121,5.0566,5.0976,5.1382,5.1401,5.1401,5.1401,5.1401,5.1401,5.1401,5.1401,5.1401,5.1401,5.3423,5.5917,5.8814,6.088,6.3356,6.609,6.609,6.609,6.609,6.609,6.609,6.609,6.609,6.609,6.609,6.609,6.609,6.609,6.609,6.609,6.609,4.6308,4.6308,4.6308,4.6308,4.6308,4.6308,4.6308,4.6308,4.6308,4.6308,4.6308,4.6308,4.6308,4.6308,4.6308,4.6308,4.6308,4.6308,4.6308,4.6308,4.6308,4.6308,4.6308,4.6308,4.6308,4.6308,4.6308,4.6308,4.6308,4.6699,4.7522,4.7581,4.803,4.8815,4.8874,4.8913,4.8913,4.8913,4.8913,4.8913,4.8913,4.8913,4.8913,4.8913,4.8913,4.8913,4.8913,4.8913,4.8913,4.8913,4.8913,4.8913,4.8913,4.8913,4.8913,4.8913,4.8913,4.8913,4.8913,4.8913,4.8913,4.8913,4.8913,4.8913,4.8913,4.8913,4.8913,4.8913,4.8913,4.8913,4.8913,4.8913,4.8913,4.8913,4.8913,4.8913,4.8913,4.8913,4.8913,4.8913,4.9199,4.9629,5.016,5.0566,5.0976,5.1382,5.1401,5.1401,5.1401,5.1401,5.1401,5.1401,5.1401,5.1401,5.1401,5.1721,5.4233,5.8791,5.9134,6.1688,6.609,6.609,6.609,6.609,6.609,6.609,6.609,6.609,6.609,6.609,6.609,6.609,6.609,6.609,6.609,6.609,4.6308,4.6308,4.6308,4.6308,4.6308,4.6308,4.6308,4.6308,4.6308,4.6308,4.6308,4.6308,4.6308,4.6308,4.6308,4.6308,4.6308,4.6308,4.6308,4.6308,4.6308,4.6308,4.6308,4.6308,4.6308,4.6308,4.6308,4.6308,4.6308,4.6738,4.76,4.76,4.8069,4.8913,4.8913,4.8913,4.8913,4.8913,4.8913,4.8913,4.8913,4.8913,4.8913,4.8913,4.8913,4.8913,4.8913,4.8913,4.8913,4.8913,4.8913,4.8913,4.8913,4.8913,4.8913,4.8913,4.8913,4.8913,4.8913,4.8913,4.8913,4.8913,4.8913,4.8913,4.8913,4.8913,4.8913,4.8913,4.8913,4.8913,4.8913,4.8913,4.8913,4.8913,4.8913,4.8913,4.8913,4.8913,4.8913,4.8913,4.9496,4.9961,5.018,5.0781,5.1206,5.1401,5.1401,5.1401,5.1401,5.1401,5.1401,5.1401,5.1401,5.1401,5.1401,5.1401,5.318,5.6758,5.8148,6.1352,6.609,6.609,6.609,6.609,6.609,6.609,6.609,6.609,6.609,6.609,6.609,6.609,6.609,6.609,6.609,6.609]}]]